<?xml version='1.0' encoding='UTF-8'?><gpx version="1.1" creator="JPX - https://github.com/jenetics/jpx" xmlns="http://www.topografix.com/GPX/1/1"><trk><trkseg><trkpt lat="51.49926847050232" lon="21.699711723462528"><ele>127.00000000000001</ele><time>2026-05-03T12:55:48Z</time></trkpt><trkpt lat="51.499270657392266" lon="21.699545544924174"><ele>127.0</ele><time>2026-05-03T12:55:50.999Z</time></trkpt><trkpt lat="51.499202672659216" lon="21.699365793134728"><ele>127.0</ele><time>2026-05-03T12:55:52.999Z</time></trkpt><trkpt lat="51.499171089833624" lon="21.699272025267952"><ele>127.0</ele><time>2026-05-03T12:55:53.999Z</time></trkpt><trkpt lat="51.49913625727912" lon="21.69916970344229"><ele>127.00000000000001</ele><time>2026-05-03T12:55:54.999Z</time></trkpt><trkpt lat="51.4991027776756" lon="21.699062827334636"><ele>127.0</ele><time>2026-05-03T12:55:55.999Z</time></trkpt><trkpt lat="51.499064878116236" lon="21.698947288347224"><ele>127.19999999999999</ele><time>2026-05-03T12:55:56.999Z</time></trkpt><trkpt lat="51.49902280107194" lon="21.698817456654666"><ele>127.39999999999999</ele><time>2026-05-03T12:55:57.999Z</time></trkpt><trkpt lat="51.49897421227791" lon="21.698673677961988"><ele>127.60000000000001</ele><time>2026-05-03T12:55:58.999Z</time></trkpt><trkpt lat="51.498923821879615" lon="21.69851891642163"><ele>127.80000000000001</ele><time>2026-05-03T12:55:59.999Z</time></trkpt><trkpt lat="51.49887069204547" lon="21.698355369692305"><ele>128.0</ele><time>2026-05-03T12:56:00.999Z</time></trkpt><trkpt lat="51.49881774475453" lon="21.69819250865444"><ele>128.0</ele><time>2026-05-03T12:56:01.999Z</time></trkpt><trkpt lat="51.49876690524596" lon="21.69802246362022"><ele>128.0</ele><time>2026-05-03T12:56:02.999Z</time></trkpt><trkpt lat="51.498712491478045" lon="21.697861208400127"><ele>128.0</ele><time>2026-05-03T12:56:03.999Z</time></trkpt><trkpt lat="51.498658584930475" lon="21.697692879148658"><ele>128.0</ele><time>2026-05-03T12:56:04.999Z</time></trkpt><trkpt lat="51.498602312679466" lon="21.69752265308455"><ele>128.0</ele><time>2026-05-03T12:56:05.999Z</time></trkpt><trkpt lat="51.498547700032056" lon="21.697347150691417"><ele>128.0</ele><time>2026-05-03T12:56:06.999Z</time></trkpt><trkpt lat="51.498497149160215" lon="21.697177980881325"><ele>128.0</ele><time>2026-05-03T12:56:07.999Z</time></trkpt><trkpt lat="51.49843622248237" lon="21.697000529873424"><ele>128.0</ele><time>2026-05-03T12:56:09Z</time></trkpt><trkpt lat="51.498374255649175" lon="21.696815470691167"><ele>127.75</ele><time>2026-05-03T12:56:10Z</time></trkpt><trkpt lat="51.49831242899799" lon="21.696630519177482"><ele>127.5</ele><time>2026-05-03T12:56:11Z</time></trkpt><trkpt lat="51.49825533058535" lon="21.69644859264632"><ele>127.25</ele><time>2026-05-03T12:56:12Z</time></trkpt><trkpt lat="51.49819506523566" lon="21.696266808063278"><ele>127.0</ele><time>2026-05-03T12:56:13Z</time></trkpt><trkpt lat="51.49813475111007" lon="21.696086294114142"><ele>127.0</ele><time>2026-05-03T12:56:14Z</time></trkpt><trkpt lat="51.4980748704177" lon="21.695907792661654"><ele>127.0</ele><time>2026-05-03T12:56:15Z</time></trkpt><trkpt lat="51.49801530782915" lon="21.695721600960873"><ele>127.0</ele><time>2026-05-03T12:56:16Z</time></trkpt><trkpt lat="51.49795360508175" lon="21.69553537208857"><ele>127.0</ele><time>2026-05-03T12:56:17Z</time></trkpt><trkpt lat="51.497892267922694" lon="21.695349088402768"><ele>127.0</ele><time>2026-05-03T12:56:18Z</time></trkpt><trkpt lat="51.49783090755865" lon="21.695160842042146"><ele>127.0</ele><time>2026-05-03T12:56:19Z</time></trkpt><trkpt lat="51.497770879878985" lon="21.6949714786172"><ele>127.0</ele><time>2026-05-03T12:56:20Z</time></trkpt><trkpt lat="51.49771159530403" lon="21.694788472548908"><ele>127.0</ele><time>2026-05-03T12:56:21Z</time></trkpt><trkpt lat="51.49765173420392" lon="21.69460580348821"><ele>127.25</ele><time>2026-05-03T12:56:22Z</time></trkpt><trkpt lat="51.49759160055772" lon="21.694414165821275"><ele>127.5</ele><time>2026-05-03T12:56:23Z</time></trkpt><trkpt lat="51.497529433582024" lon="21.69422658405064"><ele>127.75</ele><time>2026-05-03T12:56:24Z</time></trkpt><trkpt lat="51.49746640561352" lon="21.694040005893914"><ele>128.0</ele><time>2026-05-03T12:56:25Z</time></trkpt><trkpt lat="51.49740383450617" lon="21.69384982034705"><ele>128.0</ele><time>2026-05-03T12:56:26Z</time></trkpt><trkpt lat="51.49734850060962" lon="21.693656805848924"><ele>128.0</ele><time>2026-05-03T12:56:27Z</time></trkpt><trkpt lat="51.49728388805842" lon="21.693469440629894"><ele>128.0</ele><time>2026-05-03T12:56:28Z</time></trkpt><trkpt lat="51.49722466358728" lon="21.693275408957543"><ele>128.0</ele><time>2026-05-03T12:56:29Z</time></trkpt><trkpt lat="51.49716641097156" lon="21.69305665089081"><ele>128.0</ele><time>2026-05-03T12:56:30Z</time></trkpt><trkpt lat="51.49709803567068" lon="21.69288537021097"><ele>128.0</ele><time>2026-05-03T12:56:31Z</time></trkpt><trkpt lat="51.49703218191745" lon="21.692692651904306"><ele>128.0</ele><time>2026-05-03T12:56:32Z</time></trkpt><trkpt lat="51.49697611408484" lon="21.692491620130077"><ele>128.0</ele><time>2026-05-03T12:56:33Z</time></trkpt><trkpt lat="51.49691220107803" lon="21.692301497828954"><ele>128.0</ele><time>2026-05-03T12:56:34Z</time></trkpt><trkpt lat="51.496849088028554" lon="21.692106904498257"><ele>128.0</ele><time>2026-05-03T12:56:35Z</time></trkpt><trkpt lat="51.496786908121244" lon="21.69191191067178"><ele>128.0</ele><time>2026-05-03T12:56:36Z</time></trkpt><trkpt lat="51.49672167285169" lon="21.69171934822283"><ele>128.0</ele><time>2026-05-03T12:56:37Z</time></trkpt><trkpt lat="51.496653717601525" lon="21.691526301051766"><ele>128.0</ele><time>2026-05-03T12:56:38Z</time></trkpt><trkpt lat="51.49659216489981" lon="21.691331972248182"><ele>128.0</ele><time>2026-05-03T12:56:39Z</time></trkpt><trkpt lat="51.496529965454684" lon="21.691139784648325"><ele>128.0</ele><time>2026-05-03T12:56:40Z</time></trkpt><trkpt lat="51.49646574463194" lon="21.69094932419716"><ele>128.0</ele><time>2026-05-03T12:56:41Z</time></trkpt><trkpt lat="51.496400337083614" lon="21.69075015483564"><ele>128.0</ele><time>2026-05-03T12:56:42Z</time></trkpt><trkpt lat="51.49633550706036" lon="21.690557005498242"><ele>128.0</ele><time>2026-05-03T12:56:43Z</time></trkpt><trkpt lat="51.496275300918725" lon="21.690367267155082"><ele>128.0</ele><time>2026-05-03T12:56:44Z</time></trkpt><trkpt lat="51.49621372535229" lon="21.690170250451086"><ele>128.0</ele><time>2026-05-03T12:56:45Z</time></trkpt><trkpt lat="51.496151095280176" lon="21.689976498028486"><ele>128.25</ele><time>2026-05-03T12:56:46Z</time></trkpt><trkpt lat="51.49608303210541" lon="21.68978865329028"><ele>128.5</ele><time>2026-05-03T12:56:47Z</time></trkpt><trkpt lat="51.49602536213462" lon="21.689596374177423"><ele>128.75</ele><time>2026-05-03T12:56:48Z</time></trkpt><trkpt lat="51.49595874875153" lon="21.689399661009187"><ele>129.0</ele><time>2026-05-03T12:56:49Z</time></trkpt><trkpt lat="51.49589759168429" lon="21.68920277025311"><ele>129.0</ele><time>2026-05-03T12:56:50Z</time></trkpt><trkpt lat="51.49583148870129" lon="21.6890062918291"><ele>129.0</ele><time>2026-05-03T12:56:51Z</time></trkpt><trkpt lat="51.49576627073454" lon="21.688808372821413"><ele>129.0</ele><time>2026-05-03T12:56:52Z</time></trkpt><trkpt lat="51.495704028448294" lon="21.688606353876306"><ele>129.0</ele><time>2026-05-03T12:56:53Z</time></trkpt><trkpt lat="51.49564026025718" lon="21.68841033242913"><ele>129.25</ele><time>2026-05-03T12:56:54Z</time></trkpt><trkpt lat="51.49557529048237" lon="21.68821065556414"><ele>129.5</ele><time>2026-05-03T12:56:55Z</time></trkpt><trkpt lat="51.49550682960125" lon="21.688019595250072"><ele>129.75</ele><time>2026-05-03T12:56:56Z</time></trkpt><trkpt lat="51.495441930614064" lon="21.68781709500861"><ele>130.0</ele><time>2026-05-03T12:56:57Z</time></trkpt><trkpt lat="51.495377615243605" lon="21.68762356860534"><ele>130.0</ele><time>2026-05-03T12:56:58Z</time></trkpt><trkpt lat="51.495316610533514" lon="21.687430725757107"><ele>130.0</ele><time>2026-05-03T12:56:59Z</time></trkpt><trkpt lat="51.495255418191775" lon="21.687236094336896"><ele>130.0</ele><time>2026-05-03T12:57:00Z</time></trkpt><trkpt lat="51.49519237246401" lon="21.687040455326212"><ele>130.0</ele><time>2026-05-03T12:57:01Z</time></trkpt><trkpt lat="51.4951301566012" lon="21.686850645332182"><ele>130.0</ele><time>2026-05-03T12:57:02Z</time></trkpt><trkpt lat="51.49506886973213" lon="21.68666550467397"><ele>130.0</ele><time>2026-05-03T12:57:03Z</time></trkpt><trkpt lat="51.49500930874088" lon="21.686507122309173"><ele>130.0</ele><time>2026-05-03T12:57:04Z</time></trkpt><trkpt lat="51.49496413721917" lon="21.686346365512232"><ele>130.0</ele><time>2026-05-03T12:57:05Z</time></trkpt><trkpt lat="51.494919740838604" lon="21.686214931761242"><ele>130.0</ele><time>2026-05-03T12:57:06Z</time></trkpt><trkpt lat="51.49487779220267" lon="21.686100260164988"><ele>130.0</ele><time>2026-05-03T12:57:07Z</time></trkpt><trkpt lat="51.494841042305545" lon="21.68600706230153"><ele>130.0</ele><time>2026-05-03T12:57:08Z</time></trkpt><trkpt lat="51.49485563060295" lon="21.685829831469626"><ele>130.0</ele><time>2026-05-03T12:57:10Z</time></trkpt><trkpt lat="51.49489663547519" lon="21.685745254371604"><ele>130.0</ele><time>2026-05-03T12:57:11Z</time></trkpt><trkpt lat="51.494965153888096" lon="21.68566754847125"><ele>130.0</ele><time>2026-05-03T12:57:12Z</time></trkpt><trkpt lat="51.49505238293799" lon="21.68555734605981"><ele>130.0</ele><time>2026-05-03T12:57:13Z</time></trkpt><trkpt lat="51.49515018004636" lon="21.685415488703786"><ele>130.0</ele><time>2026-05-03T12:57:14Z</time></trkpt><trkpt lat="51.49526024302358" lon="21.685263826327"><ele>130.0</ele><time>2026-05-03T12:57:15Z</time></trkpt><trkpt lat="51.49538169279169" lon="21.6850956719745"><ele>130.0</ele><time>2026-05-03T12:57:16Z</time></trkpt><trkpt lat="51.495507246665184" lon="21.684926520939822"><ele>130.0</ele><time>2026-05-03T12:57:17Z</time></trkpt><trkpt lat="51.49563912337216" lon="21.68474104037718"><ele>130.0</ele><time>2026-05-03T12:57:18Z</time></trkpt><trkpt lat="51.49577674072291" lon="21.684547354259802"><ele>130.0</ele><time>2026-05-03T12:57:19Z</time></trkpt><trkpt lat="51.4959220423564" lon="21.68434385179786"><ele>130.0</ele><time>2026-05-03T12:57:20Z</time></trkpt><trkpt lat="51.496067233252006" lon="21.68413327333436"><ele>130.0</ele><time>2026-05-03T12:57:21Z</time></trkpt><trkpt lat="51.496216340857835" lon="21.68392206861004"><ele>130.0</ele><time>2026-05-03T12:57:22Z</time></trkpt><trkpt lat="51.496374995299504" lon="21.683709359266913"><ele>129.33333333333334</ele><time>2026-05-03T12:57:23Z</time></trkpt><trkpt lat="51.49652032814525" lon="21.68348043753458"><ele>128.66666666666666</ele><time>2026-05-03T12:57:24Z</time></trkpt><trkpt lat="51.496675935754574" lon="21.68325192494872"><ele>128.0</ele><time>2026-05-03T12:57:25Z</time></trkpt><trkpt lat="51.4968367560991" lon="21.683022175949127"><ele>128.0</ele><time>2026-05-03T12:57:26Z</time></trkpt><trkpt lat="51.496995256530724" lon="21.682785689005655"><ele>128.0</ele><time>2026-05-03T12:57:27Z</time></trkpt><trkpt lat="51.49715842164124" lon="21.682546947160546"><ele>128.0</ele><time>2026-05-03T12:57:28Z</time></trkpt><trkpt lat="51.49732480323904" lon="21.682304828775212"><ele>127.66666666666666</ele><time>2026-05-03T12:57:29Z</time></trkpt><trkpt lat="51.49749058772968" lon="21.68207409096675"><ele>127.33333333333334</ele><time>2026-05-03T12:57:30Z</time></trkpt><trkpt lat="51.49765525678507" lon="21.68185435065492"><ele>127.0</ele><time>2026-05-03T12:57:31Z</time></trkpt><trkpt lat="51.49781250039724" lon="21.681632181167533"><ele>127.33333333333334</ele><time>2026-05-03T12:57:32Z</time></trkpt><trkpt lat="51.49795755566778" lon="21.681381579684352"><ele>127.66666666666666</ele><time>2026-05-03T12:57:33Z</time></trkpt><trkpt lat="51.4981171249647" lon="21.681159377007678"><ele>128.0</ele><time>2026-05-03T12:57:34Z</time></trkpt><trkpt lat="51.498277679175544" lon="21.680931318192783"><ele>128.0</ele><time>2026-05-03T12:57:35Z</time></trkpt><trkpt lat="51.498439194158884" lon="21.680691847055463"><ele>128.0</ele><time>2026-05-03T12:57:36Z</time></trkpt><trkpt lat="51.49860370558116" lon="21.68045404649832"><ele>128.0</ele><time>2026-05-03T12:57:37Z</time></trkpt><trkpt lat="51.49877384439251" lon="21.680212172688883"><ele>127.5</ele><time>2026-05-03T12:57:38Z</time></trkpt><trkpt lat="51.49894112932402" lon="21.679972720966063"><ele>127.0</ele><time>2026-05-03T12:57:39Z</time></trkpt><trkpt lat="51.499111021177946" lon="21.679724627533723"><ele>127.0</ele><time>2026-05-03T12:57:40Z</time></trkpt><trkpt lat="51.49927185057531" lon="21.67948395967444"><ele>127.0</ele><time>2026-05-03T12:57:41Z</time></trkpt><trkpt lat="51.49943860633466" lon="21.679249585864817"><ele>127.0</ele><time>2026-05-03T12:57:42Z</time></trkpt><trkpt lat="51.49959880094197" lon="21.679016742563398"><ele>127.0</ele><time>2026-05-03T12:57:43.001Z</time></trkpt><trkpt lat="51.49976348751096" lon="21.67878327291792"><ele>127.0</ele><time>2026-05-03T12:57:44.001Z</time></trkpt><trkpt lat="51.499927800472925" lon="21.678547630023196"><ele>127.0</ele><time>2026-05-03T12:57:45.001Z</time></trkpt><trkpt lat="51.500093595068044" lon="21.678317139125618"><ele>127.0</ele><time>2026-05-03T12:57:46.001Z</time></trkpt><trkpt lat="51.500259302759304" lon="21.678080974096503"><ele>127.0</ele><time>2026-05-03T12:57:47.001Z</time></trkpt><trkpt lat="51.50042550977464" lon="21.67783375878646"><ele>127.0</ele><time>2026-05-03T12:57:48.001Z</time></trkpt><trkpt lat="51.500592900256834" lon="21.677588330949618"><ele>126.66666666666667</ele><time>2026-05-03T12:57:49.001Z</time></trkpt><trkpt lat="51.50076255983461" lon="21.677352910396735"><ele>126.33333333333334</ele><time>2026-05-03T12:57:50.001Z</time></trkpt><trkpt lat="51.50092878505511" lon="21.677108948787946"><ele>126.0</ele><time>2026-05-03T12:57:51.001Z</time></trkpt><trkpt lat="51.50109753333853" lon="21.676864843301104"><ele>125.66666666666666</ele><time>2026-05-03T12:57:52.001Z</time></trkpt><trkpt lat="51.50126425346494" lon="21.67662359744441"><ele>125.33333333333333</ele><time>2026-05-03T12:57:53.001Z</time></trkpt><trkpt lat="51.50143009220383" lon="21.67638447907287"><ele>125.0</ele><time>2026-05-03T12:57:54.001Z</time></trkpt><trkpt lat="51.501597197895826" lon="21.67614946636015"><ele>124.66666666666666</ele><time>2026-05-03T12:57:55.001Z</time></trkpt><trkpt lat="51.50176584930041" lon="21.675908456440716"><ele>124.33333333333334</ele><time>2026-05-03T12:57:56Z</time></trkpt><trkpt lat="51.501933897812506" lon="21.67567332928579"><ele>124.0</ele><time>2026-05-03T12:57:57Z</time></trkpt><trkpt lat="51.50209754320535" lon="21.675432673244853"><ele>125.5</ele><time>2026-05-03T12:57:58Z</time></trkpt><trkpt lat="51.502265698313714" lon="21.67519005202331"><ele>127.0</ele><time>2026-05-03T12:57:59Z</time></trkpt><trkpt lat="51.50244424253625" lon="21.674955795067373"><ele>127.0</ele><time>2026-05-03T12:58:00Z</time></trkpt><trkpt lat="51.502608702462325" lon="21.674718021273204"><ele>127.0</ele><time>2026-05-03T12:58:01Z</time></trkpt><trkpt lat="51.50275927053799" lon="21.674483960859305"><ele>127.0</ele><time>2026-05-03T12:58:02Z</time></trkpt><trkpt lat="51.50290427909505" lon="21.674277414793593"><ele>128.0</ele><time>2026-05-03T12:58:03Z</time></trkpt><trkpt lat="51.50303513955409" lon="21.674083385045797"><ele>129.0</ele><time>2026-05-03T12:58:04Z</time></trkpt><trkpt lat="51.5031603370732" lon="21.673904242490995"><ele>130.0</ele><time>2026-05-03T12:58:05Z</time></trkpt><trkpt lat="51.503272008964885" lon="21.673747499600815"><ele>129.75</ele><time>2026-05-03T12:58:06Z</time></trkpt><trkpt lat="51.50337383369" lon="21.673588702971532"><ele>129.5</ele><time>2026-05-03T12:58:07Z</time></trkpt><trkpt lat="51.50345718660541" lon="21.673415499005635"><ele>129.25</ele><time>2026-05-03T12:58:08Z</time></trkpt><trkpt lat="51.503512188347464" lon="21.673232850217676"><ele>129.0</ele><time>2026-05-03T12:58:09Z</time></trkpt><trkpt lat="51.503538810105454" lon="21.67303403401409"><ele>129.0</ele><time>2026-05-03T12:58:10Z</time></trkpt><trkpt lat="51.5035596150266" lon="21.672826028417504"><ele>129.0</ele><time>2026-05-03T12:58:11Z</time></trkpt><trkpt lat="51.50351977401065" lon="21.672611050028276"><ele>129.0</ele><time>2026-05-03T12:58:12Z</time></trkpt><trkpt lat="51.50349063749206" lon="21.672403635338476"><ele>129.0</ele><time>2026-05-03T12:58:13Z</time></trkpt><trkpt lat="51.503440575956155" lon="21.672164014857753"><ele>128.66666666666666</ele><time>2026-05-03T12:58:14Z</time></trkpt><trkpt lat="51.5033836406295" lon="21.671917007385797"><ele>128.33333333333331</ele><time>2026-05-03T12:58:15Z</time></trkpt><trkpt lat="51.5033430232889" lon="21.671673538649603"><ele>128.0</ele><time>2026-05-03T12:58:16Z</time></trkpt><trkpt lat="51.50329084003146" lon="21.671425622982937"><ele>128.0</ele><time>2026-05-03T12:58:17Z</time></trkpt><trkpt lat="51.503242107850355" lon="21.6711829308112"><ele>128.0</ele><time>2026-05-03T12:58:18Z</time></trkpt><trkpt lat="51.503197329354855" lon="21.670928051378656"><ele>128.0</ele><time>2026-05-03T12:58:19Z</time></trkpt><trkpt lat="51.50314916498145" lon="21.67067873573697"><ele>128.0</ele><time>2026-05-03T12:58:20Z</time></trkpt><trkpt lat="51.50309763768753" lon="21.670425352637903"><ele>128.0</ele><time>2026-05-03T12:58:21Z</time></trkpt><trkpt lat="51.50304207676638" lon="21.670160759168564"><ele>128.0</ele><time>2026-05-03T12:58:22Z</time></trkpt><trkpt lat="51.50298690243432" lon="21.66988526807924"><ele>128.33333333333331</ele><time>2026-05-03T12:58:23Z</time></trkpt><trkpt lat="51.50293600209899" lon="21.669614938707173"><ele>128.66666666666666</ele><time>2026-05-03T12:58:24Z</time></trkpt><trkpt lat="51.502880702167715" lon="21.669322354980515"><ele>129.0</ele><time>2026-05-03T12:58:25Z</time></trkpt><trkpt lat="51.50283345250323" lon="21.66902131587857"><ele>129.0</ele><time>2026-05-03T12:58:26Z</time></trkpt><trkpt lat="51.50277632242719" lon="21.668741464139583"><ele>129.0</ele><time>2026-05-03T12:58:27Z</time></trkpt><trkpt lat="51.50272235105409" lon="21.668461600251508"><ele>129.0</ele><time>2026-05-03T12:58:28Z</time></trkpt><trkpt lat="51.50266901798813" lon="21.66817071149761"><ele>129.33333333333334</ele><time>2026-05-03T12:58:29Z</time></trkpt><trkpt lat="51.50261316077069" lon="21.66788301332607"><ele>129.66666666666669</ele><time>2026-05-03T12:58:30Z</time></trkpt><trkpt lat="51.50255249435868" lon="21.667583877399014"><ele>130.0</ele><time>2026-05-03T12:58:31Z</time></trkpt><trkpt lat="51.50249687582616" lon="21.667290397812803"><ele>130.33333333333334</ele><time>2026-05-03T12:58:32Z</time></trkpt><trkpt lat="51.502441683926264" lon="21.66701453473642"><ele>130.66666666666666</ele><time>2026-05-03T12:58:33Z</time></trkpt><trkpt lat="51.502387601749206" lon="21.666749740682476"><ele>131.0</ele><time>2026-05-03T12:58:34Z</time></trkpt><trkpt lat="51.502339857551995" lon="21.6664906121966"><ele>131.33333333333331</ele><time>2026-05-03T12:58:35Z</time></trkpt><trkpt lat="51.50229289444822" lon="21.66624882167554"><ele>131.66666666666666</ele><time>2026-05-03T12:58:36Z</time></trkpt><trkpt lat="51.50224116862295" lon="21.6660010256943"><ele>132.0</ele><time>2026-05-03T12:58:37Z</time></trkpt><trkpt lat="51.502196641482314" lon="21.665758889261504"><ele>132.33333333333334</ele><time>2026-05-03T12:58:38Z</time></trkpt><trkpt lat="51.50215283263365" lon="21.66551328578156"><ele>132.66666666666669</ele><time>2026-05-03T12:58:39Z</time></trkpt><trkpt lat="51.50210829473636" lon="21.665262981556406"><ele>133.0</ele><time>2026-05-03T12:58:40Z</time></trkpt><trkpt lat="51.50206019165309" lon="21.66500967739693"><ele>133.0</ele><time>2026-05-03T12:58:41Z</time></trkpt><trkpt lat="51.50201477769892" lon="21.664746778425474"><ele>133.0</ele><time>2026-05-03T12:58:42Z</time></trkpt><trkpt lat="51.501965797734954" lon="21.66449146321949"><ele>133.0</ele><time>2026-05-03T12:58:43Z</time></trkpt><trkpt lat="51.501913638771725" lon="21.66423056542426"><ele>133.0</ele><time>2026-05-03T12:58:44Z</time></trkpt><trkpt lat="51.50186467406941" lon="21.66396975643109"><ele>133.0</ele><time>2026-05-03T12:58:45Z</time></trkpt><trkpt lat="51.50181753745256" lon="21.66370625320484"><ele>133.0</ele><time>2026-05-03T12:58:46Z</time></trkpt><trkpt lat="51.50177300121948" lon="21.66344311244107"><ele>133.0</ele><time>2026-05-03T12:58:47Z</time></trkpt><trkpt lat="51.50172278299302" lon="21.66318119730303"><ele>133.0</ele><time>2026-05-03T12:58:48Z</time></trkpt><trkpt lat="51.50167107087253" lon="21.66291671895135"><ele>133.0</ele><time>2026-05-03T12:58:49Z</time></trkpt><trkpt lat="51.50161782994819" lon="21.662656477407022"><ele>133.0</ele><time>2026-05-03T12:58:50Z</time></trkpt><trkpt lat="51.50156690817936" lon="21.662394818135578"><ele>133.0</ele><time>2026-05-03T12:58:51Z</time></trkpt><trkpt lat="51.501518498931816" lon="21.66213219526869"><ele>133.0</ele><time>2026-05-03T12:58:52Z</time></trkpt><trkpt lat="51.50147073802028" lon="21.66186933320078"><ele>133.0</ele><time>2026-05-03T12:58:53Z</time></trkpt><trkpt lat="51.50142303656669" lon="21.661608059240443"><ele>133.0</ele><time>2026-05-03T12:58:54Z</time></trkpt><trkpt lat="51.501374029971295" lon="21.661353907040645"><ele>133.0</ele><time>2026-05-03T12:58:55Z</time></trkpt><trkpt lat="51.50133257046145" lon="21.661108144009706"><ele>133.33333333333334</ele><time>2026-05-03T12:58:56Z</time></trkpt><trkpt lat="51.50128916839529" lon="21.66086384308472"><ele>133.66666666666666</ele><time>2026-05-03T12:58:57Z</time></trkpt><trkpt lat="51.50124309147977" lon="21.66062167153687"><ele>134.0</ele><time>2026-05-03T12:58:58.001Z</time></trkpt><trkpt lat="51.50119452508091" lon="21.660375731909024"><ele>133.66666666666666</ele><time>2026-05-03T12:58:59.001Z</time></trkpt><trkpt lat="51.50114994965918" lon="21.660123719849096"><ele>133.33333333333334</ele><time>2026-05-03T12:59:00.001Z</time></trkpt><trkpt lat="51.5011058872716" lon="21.659875942640667"><ele>133.0</ele><time>2026-05-03T12:59:01.001Z</time></trkpt><trkpt lat="51.50106014026723" lon="21.659628340318434"><ele>133.66666666666669</ele><time>2026-05-03T12:59:02.001Z</time></trkpt><trkpt lat="51.50101432109075" lon="21.659386988926492"><ele>134.33333333333334</ele><time>2026-05-03T12:59:03.001Z</time></trkpt><trkpt lat="51.500968567323405" lon="21.659148957884312"><ele>135.0</ele><time>2026-05-03T12:59:04.001Z</time></trkpt><trkpt lat="51.50091942340496" lon="21.6589064785294"><ele>135.0</ele><time>2026-05-03T12:59:05.001Z</time></trkpt><trkpt lat="51.50086762187691" lon="21.658653466188067"><ele>135.0</ele><time>2026-05-03T12:59:06.001Z</time></trkpt><trkpt lat="51.500816048268035" lon="21.65839352643775"><ele>135.0</ele><time>2026-05-03T12:59:07.001Z</time></trkpt><trkpt lat="51.500776099241904" lon="21.658130895364728"><ele>135.33333333333334</ele><time>2026-05-03T12:59:08.001Z</time></trkpt><trkpt lat="51.50073080291641" lon="21.65786992579627"><ele>135.66666666666669</ele><time>2026-05-03T12:59:09.001Z</time></trkpt><trkpt lat="51.500683369184415" lon="21.657618470121644"><ele>136.0</ele><time>2026-05-03T12:59:10.001Z</time></trkpt><trkpt lat="51.500638450531646" lon="21.657376810505866"><ele>136.66666666666669</ele><time>2026-05-03T12:59:11.001Z</time></trkpt><trkpt lat="51.50059152048941" lon="21.65714259898316"><ele>137.33333333333334</ele><time>2026-05-03T12:59:12.001Z</time></trkpt><trkpt lat="51.50054637719246" lon="21.65690153968514"><ele>138.0</ele><time>2026-05-03T12:59:13.001Z</time></trkpt><trkpt lat="51.50050068955297" lon="21.656662910494532"><ele>138.33333333333334</ele><time>2026-05-03T12:59:14.001Z</time></trkpt><trkpt lat="51.50045418680676" lon="21.656429388328462"><ele>138.66666666666669</ele><time>2026-05-03T12:59:15.001Z</time></trkpt><trkpt lat="51.50040966673115" lon="21.656195388346365"><ele>139.0</ele><time>2026-05-03T12:59:16.001Z</time></trkpt><trkpt lat="51.50036597072512" lon="21.655961065779987"><ele>139.0</ele><time>2026-05-03T12:59:17.001Z</time></trkpt><trkpt lat="51.50032253443221" lon="21.655729781106604"><ele>139.0</ele><time>2026-05-03T12:59:18.001Z</time></trkpt><trkpt lat="51.500277989743424" lon="21.655500684378538"><ele>139.0</ele><time>2026-05-03T12:59:19.001Z</time></trkpt><trkpt lat="51.50023380505725" lon="21.65526952790629"><ele>139.66666666666669</ele><time>2026-05-03T12:59:20.001Z</time></trkpt><trkpt lat="51.50019092198787" lon="21.655032968093636"><ele>140.33333333333334</ele><time>2026-05-03T12:59:21.001Z</time></trkpt><trkpt lat="51.50014623665265" lon="21.654786753410452"><ele>141.0</ele><time>2026-05-03T12:59:22.001Z</time></trkpt><trkpt lat="51.50010115239571" lon="21.654543778756015"><ele>141.66666666666666</ele><time>2026-05-03T12:59:23.001Z</time></trkpt><trkpt lat="51.50005370693909" lon="21.654302853585154"><ele>142.33333333333331</ele><time>2026-05-03T12:59:24.001Z</time></trkpt><trkpt lat="51.500009253057904" lon="21.654062711447704"><ele>143.0</ele><time>2026-05-03T12:59:25.001Z</time></trkpt><trkpt lat="51.49996380587181" lon="21.653823268669456"><ele>143.0</ele><time>2026-05-03T12:59:26.001Z</time></trkpt><trkpt lat="51.49992042664188" lon="21.653582977076624"><ele>143.0</ele><time>2026-05-03T12:59:27.001Z</time></trkpt><trkpt lat="51.499876602725614" lon="21.653342342768216"><ele>143.0</ele><time>2026-05-03T12:59:28.001Z</time></trkpt><trkpt lat="51.499832898726375" lon="21.653110216151934"><ele>143.0</ele><time>2026-05-03T12:59:29.001Z</time></trkpt><trkpt lat="51.49979090869678" lon="21.652868997083807"><ele>143.0</ele><time>2026-05-03T12:59:30.001Z</time></trkpt><trkpt lat="51.49974470051596" lon="21.652629212591517"><ele>143.0</ele><time>2026-05-03T12:59:31.001Z</time></trkpt><trkpt lat="51.49970160110882" lon="21.652391311433195"><ele>143.33333333333331</ele><time>2026-05-03T12:59:32.001Z</time></trkpt><trkpt lat="51.499655390727234" lon="21.652151794777122"><ele>143.66666666666666</ele><time>2026-05-03T12:59:33.001Z</time></trkpt><trkpt lat="51.49961231063766" lon="21.651907197608924"><ele>144.0</ele><time>2026-05-03T12:59:34.001Z</time></trkpt><trkpt lat="51.49956489539567" lon="21.651666517791035"><ele>144.33333333333334</ele><time>2026-05-03T12:59:35.001Z</time></trkpt><trkpt lat="51.49951830648578" lon="21.65141810472676"><ele>144.66666666666669</ele><time>2026-05-03T12:59:36.001Z</time></trkpt><trkpt lat="51.49947063767896" lon="21.651174789257553"><ele>145.0</ele><time>2026-05-03T12:59:37.001Z</time></trkpt><trkpt lat="51.49942494711849" lon="21.65093485363114"><ele>145.33333333333334</ele><time>2026-05-03T12:59:38.001Z</time></trkpt><trkpt lat="51.49938105801343" lon="21.650692618133633"><ele>145.66666666666666</ele><time>2026-05-03T12:59:39.001Z</time></trkpt><trkpt lat="51.49933597884175" lon="21.650445077445465"><ele>146.0</ele><time>2026-05-03T12:59:40.001Z</time></trkpt><trkpt lat="51.499289767538066" lon="21.650201467042763"><ele>146.33333333333331</ele><time>2026-05-03T12:59:41.001Z</time></trkpt><trkpt lat="51.499243732916966" lon="21.649961754182513"><ele>146.66666666666666</ele><time>2026-05-03T12:59:42.001Z</time></trkpt><trkpt lat="51.49919962807738" lon="21.649720688269188"><ele>147.0</ele><time>2026-05-03T12:59:43.001Z</time></trkpt><trkpt lat="51.49915299671774" lon="21.649480947777914"><ele>147.33333333333334</ele><time>2026-05-03T12:59:44.001Z</time></trkpt><trkpt lat="51.49910931569911" lon="21.64923557571291"><ele>147.66666666666669</ele><time>2026-05-03T12:59:45.001Z</time></trkpt><trkpt lat="51.499064155132" lon="21.648991980531388"><ele>148.0</ele><time>2026-05-03T12:59:46.001Z</time></trkpt><trkpt lat="51.499023599391464" lon="21.648742027594672"><ele>147.66666666666669</ele><time>2026-05-03T12:59:47.001Z</time></trkpt><trkpt lat="51.49897756067115" lon="21.648488398080026"><ele>147.33333333333334</ele><time>2026-05-03T12:59:48.001Z</time></trkpt><trkpt lat="51.49893189053708" lon="21.64823671257586"><ele>147.0</ele><time>2026-05-03T12:59:49.001Z</time></trkpt><trkpt lat="51.498884281509525" lon="21.647987455582864"><ele>147.0</ele><time>2026-05-03T12:59:50.001Z</time></trkpt><trkpt lat="51.49883112751181" lon="21.647738744061623"><ele>147.0</ele><time>2026-05-03T12:59:51.001Z</time></trkpt><trkpt lat="51.49878409942127" lon="21.647487466778013"><ele>147.0</ele><time>2026-05-03T12:59:52.001Z</time></trkpt><trkpt lat="51.49873729056304" lon="21.647239338924948"><ele>147.0</ele><time>2026-05-03T12:59:53.001Z</time></trkpt><trkpt lat="51.498687685968676" lon="21.64698911898396"><ele>147.0</ele><time>2026-05-03T12:59:54.001Z</time></trkpt><trkpt lat="51.4986389239666" lon="21.64674648145625"><ele>147.0</ele><time>2026-05-03T12:59:55.001Z</time></trkpt><trkpt lat="51.49859136656434" lon="21.6465010196676"><ele>147.0</ele><time>2026-05-03T12:59:56.001Z</time></trkpt><trkpt lat="51.49854650252339" lon="21.646255571220816"><ele>147.0</ele><time>2026-05-03T12:59:57.001Z</time></trkpt><trkpt lat="51.49849949513949" lon="21.64600950306872"><ele>147.0</ele><time>2026-05-03T12:59:58.001Z</time></trkpt><trkpt lat="51.49845175455482" lon="21.645766292841024"><ele>147.0</ele><time>2026-05-03T12:59:59.001Z</time></trkpt><trkpt lat="51.49840737639108" lon="21.645519267072704"><ele>147.0</ele><time>2026-05-03T13:00:00.001Z</time></trkpt><trkpt lat="51.49836283013902" lon="21.64527610451328"><ele>147.0</ele><time>2026-05-03T13:00:01.001Z</time></trkpt><trkpt lat="51.49831538599389" lon="21.64503293460539"><ele>147.0</ele><time>2026-05-03T13:00:02.001Z</time></trkpt><trkpt lat="51.498269026170796" lon="21.64478662732352"><ele>147.0</ele><time>2026-05-03T13:00:03.001Z</time></trkpt><trkpt lat="51.498226805761554" lon="21.644537352469108"><ele>147.0</ele><time>2026-05-03T13:00:04.001Z</time></trkpt><trkpt lat="51.49818733758539" lon="21.644295550054743"><ele>147.33333333333334</ele><time>2026-05-03T13:00:05.001Z</time></trkpt><trkpt lat="51.498144586994236" lon="21.644047998450457"><ele>147.66666666666669</ele><time>2026-05-03T13:00:06.001Z</time></trkpt><trkpt lat="51.49809996155061" lon="21.64380240787881"><ele>148.0</ele><time>2026-05-03T13:00:07.001Z</time></trkpt><trkpt lat="51.498049824092874" lon="21.64356099783284"><ele>148.0</ele><time>2026-05-03T13:00:08.001Z</time></trkpt><trkpt lat="51.49800082817053" lon="21.64331879349169"><ele>148.0</ele><time>2026-05-03T13:00:09.001Z</time></trkpt><trkpt lat="51.49795709741892" lon="21.643076804625274"><ele>148.0</ele><time>2026-05-03T13:00:10.001Z</time></trkpt><trkpt lat="51.497912891798975" lon="21.642829853516965"><ele>148.0</ele><time>2026-05-03T13:00:11.001Z</time></trkpt><trkpt lat="51.49786879567628" lon="21.64258563779199"><ele>148.0</ele><time>2026-05-03T13:00:12.001Z</time></trkpt><trkpt lat="51.49782168258838" lon="21.64233158785738"><ele>148.0</ele><time>2026-05-03T13:00:13.001Z</time></trkpt><trkpt lat="51.49777428216087" lon="21.642083092427324"><ele>148.0</ele><time>2026-05-03T13:00:14Z</time></trkpt><trkpt lat="51.49772665800039" lon="21.641837818104367"><ele>148.0</ele><time>2026-05-03T13:00:15Z</time></trkpt><trkpt lat="51.49768188454731" lon="21.641600673570604"><ele>148.0</ele><time>2026-05-03T13:00:16Z</time></trkpt><trkpt lat="51.49763962539045" lon="21.641365525685206"><ele>148.0</ele><time>2026-05-03T13:00:17Z</time></trkpt><trkpt lat="51.49759549340673" lon="21.64113334617885"><ele>148.0</ele><time>2026-05-03T13:00:18Z</time></trkpt><trkpt lat="51.49755432632829" lon="21.640914336649008"><ele>148.0</ele><time>2026-05-03T13:00:19Z</time></trkpt><trkpt lat="51.497510926692144" lon="21.64070107153276"><ele>148.0</ele><time>2026-05-03T13:00:20Z</time></trkpt><trkpt lat="51.497444614748865" lon="21.640488278245396"><ele>148.0</ele><time>2026-05-03T13:00:21Z</time></trkpt><trkpt lat="51.497360368608746" lon="21.640294726674576"><ele>148.0</ele><time>2026-05-03T13:00:22Z</time></trkpt><trkpt lat="51.49727183811047" lon="21.64011118550844"><ele>148.0</ele><time>2026-05-03T13:00:23Z</time></trkpt><trkpt lat="51.49718073108065" lon="21.639928393446272"><ele>148.0</ele><time>2026-05-03T13:00:24Z</time></trkpt><trkpt lat="51.497093442864404" lon="21.639742762739683"><ele>148.5</ele><time>2026-05-03T13:00:25Z</time></trkpt><trkpt lat="51.49700122515444" lon="21.63956142140305"><ele>149.0</ele><time>2026-05-03T13:00:26Z</time></trkpt><trkpt lat="51.49691432612387" lon="21.639379910524298"><ele>149.5</ele><time>2026-05-03T13:00:27Z</time></trkpt><trkpt lat="51.49682623611539" lon="21.639202040685714"><ele>150.0</ele><time>2026-05-03T13:00:28Z</time></trkpt><trkpt lat="51.49673971181763" lon="21.63902982946797"><ele>150.0</ele><time>2026-05-03T13:00:29Z</time></trkpt><trkpt lat="51.49665248176719" lon="21.638856466833175"><ele>150.0</ele><time>2026-05-03T13:00:30Z</time></trkpt><trkpt lat="51.49656911652133" lon="21.638681709144755"><ele>150.0</ele><time>2026-05-03T13:00:31Z</time></trkpt><trkpt lat="51.49649042514473" lon="21.638506594478027"><ele>150.0</ele><time>2026-05-03T13:00:32Z</time></trkpt><trkpt lat="51.49641045777482" lon="21.638334967365395"><ele>150.0</ele><time>2026-05-03T13:00:33Z</time></trkpt><trkpt lat="51.496323831795685" lon="21.638159366347548"><ele>150.0</ele><time>2026-05-03T13:00:34Z</time></trkpt><trkpt lat="51.496242195612616" lon="21.63798637536017"><ele>150.0</ele><time>2026-05-03T13:00:35Z</time></trkpt><trkpt lat="51.49616300818697" lon="21.637819261748746"><ele>150.0</ele><time>2026-05-03T13:00:36Z</time></trkpt><trkpt lat="51.49608247783412" lon="21.63765514869959"><ele>150.0</ele><time>2026-05-03T13:00:37Z</time></trkpt><trkpt lat="51.49600199370369" lon="21.63749152727929"><ele>150.0</ele><time>2026-05-03T13:00:38Z</time></trkpt><trkpt lat="51.49592227202739" lon="21.637323652154624"><ele>150.0</ele><time>2026-05-03T13:00:39Z</time></trkpt><trkpt lat="51.49583905376382" lon="21.637155100019182"><ele>150.0</ele><time>2026-05-03T13:00:40Z</time></trkpt><trkpt lat="51.495756007865104" lon="21.636987004476268"><ele>150.0</ele><time>2026-05-03T13:00:41Z</time></trkpt><trkpt lat="51.495679634578714" lon="21.636822951047982"><ele>150.0</ele><time>2026-05-03T13:00:42Z</time></trkpt><trkpt lat="51.495600095582084" lon="21.636659020342584"><ele>150.0</ele><time>2026-05-03T13:00:43Z</time></trkpt><trkpt lat="51.49551777049665" lon="21.63649513709718"><ele>150.0</ele><time>2026-05-03T13:00:44Z</time></trkpt><trkpt lat="51.49543559180766" lon="21.63632702286625"><ele>150.0</ele><time>2026-05-03T13:00:45Z</time></trkpt><trkpt lat="51.49534928403055" lon="21.63615925211778"><ele>150.0</ele><time>2026-05-03T13:00:46Z</time></trkpt><trkpt lat="51.49526607888378" lon="21.635989635445068"><ele>150.0</ele><time>2026-05-03T13:00:47Z</time></trkpt><trkpt lat="51.495187204390035" lon="21.635821126907274"><ele>150.0</ele><time>2026-05-03T13:00:48Z</time></trkpt><trkpt lat="51.49510574420512" lon="21.635654713257964"><ele>150.25</ele><time>2026-05-03T13:00:49Z</time></trkpt><trkpt lat="51.49502455106057" lon="21.63548804010028"><ele>150.5</ele><time>2026-05-03T13:00:50Z</time></trkpt><trkpt lat="51.49494434609561" lon="21.63532425357781"><ele>150.75</ele><time>2026-05-03T13:00:51Z</time></trkpt><trkpt lat="51.49486374571338" lon="21.635162325633114"><ele>151.0</ele><time>2026-05-03T13:00:52Z</time></trkpt><trkpt lat="51.49478841784902" lon="21.634998055894435"><ele>151.0</ele><time>2026-05-03T13:00:53Z</time></trkpt><trkpt lat="51.49470716947865" lon="21.634831475197068"><ele>151.0</ele><time>2026-05-03T13:00:54Z</time></trkpt><trkpt lat="51.49462399301749" lon="21.634666038502548"><ele>151.0</ele><time>2026-05-03T13:00:55Z</time></trkpt><trkpt lat="51.49454086061295" lon="21.634498493739603"><ele>151.0</ele><time>2026-05-03T13:00:56Z</time></trkpt><trkpt lat="51.49446050614374" lon="21.63433061204048"><ele>151.0</ele><time>2026-05-03T13:00:57Z</time></trkpt><trkpt lat="51.4943772562616" lon="21.63415981265886"><ele>151.0</ele><time>2026-05-03T13:00:58Z</time></trkpt><trkpt lat="51.49429316165124" lon="21.63398951059692"><ele>151.0</ele><time>2026-05-03T13:00:59.001Z</time></trkpt><trkpt lat="51.494209957032474" lon="21.6338214284139"><ele>151.0</ele><time>2026-05-03T13:01:00.001Z</time></trkpt><trkpt lat="51.49412644976538" lon="21.63365332638906"><ele>150.5</ele><time>2026-05-03T13:01:01.001Z</time></trkpt><trkpt lat="51.49404284509501" lon="21.633486325915918"><ele>150.0</ele><time>2026-05-03T13:01:02.001Z</time></trkpt><trkpt lat="51.49396093058776" lon="21.633326030665437"><ele>149.5</ele><time>2026-05-03T13:01:03.001Z</time></trkpt><trkpt lat="51.493886291043154" lon="21.633178937784322"><ele>149.0</ele><time>2026-05-03T13:01:04.001Z</time></trkpt><trkpt lat="51.49381971100776" lon="21.633042053000096"><ele>149.0</ele><time>2026-05-03T13:01:05.001Z</time></trkpt><trkpt lat="51.493758989074784" lon="21.63291389105892"><ele>149.0</ele><time>2026-05-03T13:01:06.001Z</time></trkpt><trkpt lat="51.49369544546804" lon="21.63278600988879"><ele>149.0</ele><time>2026-05-03T13:01:07.001Z</time></trkpt><trkpt lat="51.49363173246401" lon="21.632664713934485"><ele>149.0</ele><time>2026-05-03T13:01:08.001Z</time></trkpt><trkpt lat="51.493570856040414" lon="21.632539130256557"><ele>149.0</ele><time>2026-05-03T13:01:09.001Z</time></trkpt><trkpt lat="51.49351207221384" lon="21.632417219673883"><ele>149.16666666666666</ele><time>2026-05-03T13:01:10.001Z</time></trkpt><trkpt lat="51.49345938853433" lon="21.63230447769201"><ele>149.33333333333331</ele><time>2026-05-03T13:01:11.001Z</time></trkpt><trkpt lat="51.4934173128786" lon="21.632216903972584"><ele>149.5</ele><time>2026-05-03T13:01:12.001Z</time></trkpt><trkpt lat="51.49338985071801" lon="21.632081536980035"><ele>149.66666666666666</ele><time>2026-05-03T13:01:14.001Z</time></trkpt><trkpt lat="51.49343370306015" lon="21.63197689678382"><ele>149.83333333333334</ele><time>2026-05-03T13:01:17.001Z</time></trkpt><trkpt lat="51.49348957605344" lon="21.631892959727665"><ele>150.0</ele><time>2026-05-03T13:01:20.001Z</time></trkpt><trkpt lat="51.49339314879538" lon="21.63178797535077"><ele>150.0</ele><time>2026-05-03T13:02:26.001Z</time></trkpt><trkpt lat="51.49332954968275" lon="21.63180098029072"><ele>150.0</ele><time>2026-05-03T13:02:35Z</time></trkpt><trkpt lat="51.49341878586793" lon="21.63182019967079"><ele>150.0</ele><time>2026-05-03T13:03:03Z</time></trkpt><trkpt lat="51.493348766109165" lon="21.631795728969497"><ele>150.0</ele><time>2026-05-03T13:04:12.001Z</time></trkpt><trkpt lat="51.49332072909697" lon="21.631891793060277"><ele>150.0</ele><time>2026-05-03T13:06:31.001Z</time></trkpt><trkpt lat="51.49339698228422" lon="21.631924350700487"><ele>150.0</ele><time>2026-05-03T13:06:36Z</time></trkpt><trkpt lat="51.493468944680345" lon="21.63185421250052"><ele>150.0</ele><time>2026-05-03T13:06:41Z</time></trkpt><trkpt lat="51.4936117101698" lon="21.631783426631376"><ele>150.0</ele><time>2026-05-03T13:08:09Z</time></trkpt><trkpt lat="51.49367929740339" lon="21.63170198997454"><ele>150.0</ele><time>2026-05-03T13:08:10Z</time></trkpt><trkpt lat="51.49376644460053" lon="21.631599183720496"><ele>150.0</ele><time>2026-05-03T13:08:11Z</time></trkpt><trkpt lat="51.49384425107446" lon="21.631471410844526"><ele>150.0</ele><time>2026-05-03T13:08:12Z</time></trkpt><trkpt lat="51.49392519867768" lon="21.63133157255054"><ele>150.0</ele><time>2026-05-03T13:08:13Z</time></trkpt><trkpt lat="51.49405137494689" lon="21.63118073610703"><ele>150.0</ele><time>2026-05-03T13:08:14Z</time></trkpt><trkpt lat="51.49414582697832" lon="21.63105288420542"><ele>150.0</ele><time>2026-05-03T13:08:15Z</time></trkpt><trkpt lat="51.49422877063066" lon="21.63098292407795"><ele>150.0</ele><time>2026-05-03T13:08:16Z</time></trkpt><trkpt lat="51.494307579703154" lon="21.630868821313253"><ele>150.0</ele><time>2026-05-03T13:08:18Z</time></trkpt><trkpt lat="51.49436725094365" lon="21.630791615336523"><ele>150.0</ele><time>2026-05-03T13:08:21Z</time></trkpt><trkpt lat="51.49440065934503" lon="21.630700795350776"><ele>150.0</ele><time>2026-05-03T13:08:24Z</time></trkpt><trkpt lat="51.49437181877117" lon="21.630579502761762"><ele>150.0</ele><time>2026-05-03T13:08:25Z</time></trkpt><trkpt lat="51.494288539254754" lon="21.630434612935222"><ele>150.0</ele><time>2026-05-03T13:08:26Z</time></trkpt><trkpt lat="51.49421165089971" lon="21.630280800644435"><ele>150.0</ele><time>2026-05-03T13:08:27Z</time></trkpt><trkpt lat="51.49412992937098" lon="21.63010260217226"><ele>150.0</ele><time>2026-05-03T13:08:28Z</time></trkpt><trkpt lat="51.49403572773575" lon="21.629905749390154"><ele>150.0</ele><time>2026-05-03T13:08:29Z</time></trkpt><trkpt lat="51.49393850732832" lon="21.629702010982836"><ele>150.0</ele><time>2026-05-03T13:08:30Z</time></trkpt><trkpt lat="51.493832550411575" lon="21.629482920292066"><ele>150.0</ele><time>2026-05-03T13:08:31Z</time></trkpt><trkpt lat="51.49372734622563" lon="21.629261083086735"><ele>150.0</ele><time>2026-05-03T13:08:32Z</time></trkpt><trkpt lat="51.493622923917115" lon="21.62905280647052"><ele>150.0</ele><time>2026-05-03T13:08:33Z</time></trkpt><trkpt lat="51.49351758718102" lon="21.628847848121353"><ele>150.0</ele><time>2026-05-03T13:08:34Z</time></trkpt><trkpt lat="51.49342870457325" lon="21.62862255142673"><ele>150.0</ele><time>2026-05-03T13:08:35Z</time></trkpt><trkpt lat="51.49332767686076" lon="21.62843044507374"><ele>149.66666666666666</ele><time>2026-05-03T13:08:36Z</time></trkpt><trkpt lat="51.493228407644224" lon="21.628206750647692"><ele>149.33333333333331</ele><time>2026-05-03T13:08:37Z</time></trkpt><trkpt lat="51.49312229093279" lon="21.627974763831254"><ele>149.0</ele><time>2026-05-03T13:08:38Z</time></trkpt><trkpt lat="51.49301277316448" lon="21.62773712446757"><ele>149.33333333333331</ele><time>2026-05-03T13:08:39Z</time></trkpt><trkpt lat="51.492916551796235" lon="21.62750783123751"><ele>149.66666666666666</ele><time>2026-05-03T13:08:40Z</time></trkpt><trkpt lat="51.49281766609086" lon="21.627289667460488"><ele>150.0</ele><time>2026-05-03T13:08:41Z</time></trkpt><trkpt lat="51.492730092644656" lon="21.627085801349608"><ele>150.0</ele><time>2026-05-03T13:08:42Z</time></trkpt><trkpt lat="51.49263612863494" lon="21.626895921802497"><ele>150.0</ele><time>2026-05-03T13:08:43Z</time></trkpt><trkpt lat="51.49254233537804" lon="21.626715103312183"><ele>150.0</ele><time>2026-05-03T13:08:44Z</time></trkpt><trkpt lat="51.492475716473926" lon="21.62655372357369"><ele>150.0</ele><time>2026-05-03T13:08:45Z</time></trkpt><trkpt lat="51.49241235932314" lon="21.626423320806815"><ele>150.0</ele><time>2026-05-03T13:08:46Z</time></trkpt><trkpt lat="51.49235549133126" lon="21.62628441561313"><ele>150.0</ele><time>2026-05-03T13:08:47Z</time></trkpt><trkpt lat="51.49229846655414" lon="21.626156081347304"><ele>150.0</ele><time>2026-05-03T13:08:48Z</time></trkpt><trkpt lat="51.49225195927279" lon="21.626060361154277"><ele>150.0</ele><time>2026-05-03T13:08:49Z</time></trkpt><trkpt lat="51.492202743239595" lon="21.625971524892293"><ele>150.0</ele><time>2026-05-03T13:08:50Z</time></trkpt><trkpt lat="51.49212405049903" lon="21.62584605080561"><ele>149.8</ele><time>2026-05-03T13:08:52Z</time></trkpt><trkpt lat="51.49208182828094" lon="21.62571606526777"><ele>149.6</ele><time>2026-05-03T13:08:54Z</time></trkpt><trkpt lat="51.49201554680042" lon="21.625636962435824"><ele>149.4</ele><time>2026-05-03T13:09:00Z</time></trkpt><trkpt lat="51.491898038792705" lon="21.625784226130925"><ele>149.2</ele><time>2026-05-03T13:09:01Z</time></trkpt><trkpt lat="51.49183269530723" lon="21.62587017192094"><ele>149.0</ele><time>2026-05-03T13:09:02Z</time></trkpt><trkpt lat="51.491781633049875" lon="21.62596291315593"><ele>149.0</ele><time>2026-05-03T13:09:03Z</time></trkpt><trkpt lat="51.49172327148686" lon="21.626033855389885"><ele>149.0</ele><time>2026-05-03T13:09:04Z</time></trkpt><trkpt lat="51.491659623196334" lon="21.62610290070977"><ele>149.0</ele><time>2026-05-03T13:09:05Z</time></trkpt><trkpt lat="51.49160217706026" lon="21.626147726860044"><ele>149.0</ele><time>2026-05-03T13:09:06Z</time></trkpt><trkpt lat="51.49151792598571" lon="21.626250970950935"><ele>149.0</ele><time>2026-05-03T13:09:08Z</time></trkpt><trkpt lat="51.49159859623124" lon="21.626183447910282"><ele>149.0</ele><time>2026-05-03T13:09:33Z</time></trkpt><trkpt lat="51.49158380923744" lon="21.62606486649741"><ele>149.0</ele><time>2026-05-03T13:09:34Z</time></trkpt><trkpt lat="51.491548582104585" lon="21.62592532269107"><ele>149.0</ele><time>2026-05-03T13:09:35Z</time></trkpt><trkpt lat="51.49149366265235" lon="21.62579126867246"><ele>149.0</ele><time>2026-05-03T13:09:36Z</time></trkpt><trkpt lat="51.49138792688677" lon="21.625628047598685"><ele>149.0</ele><time>2026-05-03T13:09:37Z</time></trkpt><trkpt lat="51.491316132821346" lon="21.625488341691764"><ele>149.0</ele><time>2026-05-03T13:09:38Z</time></trkpt><trkpt lat="51.49126314388163" lon="21.625341099602217"><ele>149.0</ele><time>2026-05-03T13:09:39Z</time></trkpt><trkpt lat="51.491192132146466" lon="21.625221276355415"><ele>149.0</ele><time>2026-05-03T13:09:40Z</time></trkpt><trkpt lat="51.49114002473433" lon="21.625136958175194"><ele>149.0</ele><time>2026-05-03T13:09:41Z</time></trkpt><trkpt lat="51.49108600592694" lon="21.62506087557946"><ele>149.0</ele><time>2026-05-03T13:09:42Z</time></trkpt><trkpt lat="51.49106148346408" lon="21.624931874073145"><ele>149.0</ele><time>2026-05-03T13:09:44Z</time></trkpt><trkpt lat="51.49112868743797" lon="21.624752715401748"><ele>148.75</ele><time>2026-05-03T13:09:45Z</time></trkpt><trkpt lat="51.4910646995349" lon="21.624602601529485"><ele>148.5</ele><time>2026-05-03T13:09:47Z</time></trkpt><trkpt lat="51.49101743816702" lon="21.624456376292127"><ele>148.25</ele><time>2026-05-03T13:09:48Z</time></trkpt><trkpt lat="51.490948792548316" lon="21.62433699861597"><ele>148.0</ele><time>2026-05-03T13:09:49Z</time></trkpt><trkpt lat="51.490871101902385" lon="21.62414653926759"><ele>148.0</ele><time>2026-05-03T13:09:50Z</time></trkpt><trkpt lat="51.49077231655741" lon="21.623971133449487"><ele>148.0</ele><time>2026-05-03T13:09:51Z</time></trkpt><trkpt lat="51.49067846452626" lon="21.62377690612698"><ele>148.0</ele><time>2026-05-03T13:09:52Z</time></trkpt><trkpt lat="51.49059210975581" lon="21.62359819092617"><ele>148.0</ele><time>2026-05-03T13:09:53Z</time></trkpt><trkpt lat="51.49051350522091" lon="21.623434644131965"><ele>148.20000000000002</ele><time>2026-05-03T13:09:54Z</time></trkpt><trkpt lat="51.490443573562814" lon="21.623289142352714"><ele>148.4</ele><time>2026-05-03T13:09:55Z</time></trkpt><trkpt lat="51.490380451059394" lon="21.6231454805917"><ele>148.60000000000002</ele><time>2026-05-03T13:09:56Z</time></trkpt><trkpt lat="51.49031856772418" lon="21.623020364608603"><ele>148.8</ele><time>2026-05-03T13:09:57Z</time></trkpt><trkpt lat="51.49028431782977" lon="21.622916647387875"><ele>149.0</ele><time>2026-05-03T13:09:58Z</time></trkpt><trkpt lat="51.490229200981254" lon="21.622814205382515"><ele>149.0</ele><time>2026-05-03T13:09:59Z</time></trkpt><trkpt lat="51.49017927680711" lon="21.62270373732763"><ele>149.0</ele><time>2026-05-03T13:10:00Z</time></trkpt><trkpt lat="51.49011490307486" lon="21.622716134914455"><ele>149.0</ele><time>2026-05-03T13:10:08Z</time></trkpt><trkpt lat="51.4900253623157" lon="21.62240816883504"><ele>149.0</ele><time>2026-05-03T13:10:23Z</time></trkpt><trkpt lat="51.489951515686094" lon="21.6222433863242"><ele>149.0</ele><time>2026-05-03T13:10:24Z</time></trkpt><trkpt lat="51.489857621876446" lon="21.622071357848856"><ele>149.0</ele><time>2026-05-03T13:10:25Z</time></trkpt><trkpt lat="51.48977117997209" lon="21.62188433718175"><ele>149.0</ele><time>2026-05-03T13:10:26Z</time></trkpt><trkpt lat="51.48966937153245" lon="21.621689889743408"><ele>149.0</ele><time>2026-05-03T13:10:27Z</time></trkpt><trkpt lat="51.48958483523704" lon="21.621509822280395"><ele>149.5</ele><time>2026-05-03T13:10:28Z</time></trkpt><trkpt lat="51.48950583194783" lon="21.621336154536728"><ele>150.0</ele><time>2026-05-03T13:10:29Z</time></trkpt><trkpt lat="51.48943722119456" lon="21.62117741751048"><ele>150.5</ele><time>2026-05-03T13:10:30Z</time></trkpt><trkpt lat="51.489369655871855" lon="21.621035644140537"><ele>151.0</ele><time>2026-05-03T13:10:31Z</time></trkpt><trkpt lat="51.489317024069585" lon="21.620925486740845"><ele>151.25</ele><time>2026-05-03T13:10:32Z</time></trkpt><trkpt lat="51.48927595118999" lon="21.620819090656163"><ele>151.5</ele><time>2026-05-03T13:10:33Z</time></trkpt><trkpt lat="51.489261814255855" lon="21.620554242439848"><ele>151.75</ele><time>2026-05-03T13:10:35Z</time></trkpt><trkpt lat="51.489258753575314" lon="21.620367409328455"><ele>152.0</ele><time>2026-05-03T13:10:36Z</time></trkpt><trkpt lat="51.4892699923678" lon="21.62018380833388"><ele>152.25</ele><time>2026-05-03T13:10:37Z</time></trkpt><trkpt lat="51.489257838564654" lon="21.6199712087216"><ele>152.5</ele><time>2026-05-03T13:10:38Z</time></trkpt><trkpt lat="51.48926876959336" lon="21.619766300561544"><ele>152.75</ele><time>2026-05-03T13:10:39Z</time></trkpt><trkpt lat="51.48925976949761" lon="21.619552444656314"><ele>153.0</ele><time>2026-05-03T13:10:40Z</time></trkpt><trkpt lat="51.48925206316948" lon="21.619311967770656"><ele>153.25</ele><time>2026-05-03T13:10:41Z</time></trkpt><trkpt lat="51.489244258167915" lon="21.619045276640172"><ele>153.5</ele><time>2026-05-03T13:10:42Z</time></trkpt><trkpt lat="51.48925735407642" lon="21.618809159790075"><ele>153.75</ele><time>2026-05-03T13:10:43Z</time></trkpt><trkpt lat="51.48927017221568" lon="21.61860326809297"><ele>154.0</ele><time>2026-05-03T13:10:44Z</time></trkpt><trkpt lat="51.48929727133173" lon="21.618396940584685"><ele>154.2</ele><time>2026-05-03T13:10:45Z</time></trkpt><trkpt lat="51.489297234589024" lon="21.61821374777499"><ele>154.4</ele><time>2026-05-03T13:10:46Z</time></trkpt><trkpt lat="51.48928994077585" lon="21.618051071209653"><ele>154.6</ele><time>2026-05-03T13:10:47Z</time></trkpt><trkpt lat="51.48928153905422" lon="21.617900511503596"><ele>154.8</ele><time>2026-05-03T13:10:48Z</time></trkpt><trkpt lat="51.48925500658359" lon="21.617775393987277"><ele>155.0</ele><time>2026-05-03T13:10:49Z</time></trkpt><trkpt lat="51.4891462338861" lon="21.61779522816545"><ele>154.6</ele><time>2026-05-03T13:10:50Z</time></trkpt><trkpt lat="51.489091623510156" lon="21.6176802475015"><ele>154.2</ele><time>2026-05-03T13:10:51Z</time></trkpt><trkpt lat="51.489020124591754" lon="21.617529311981706"><ele>153.8</ele><time>2026-05-03T13:10:52Z</time></trkpt><trkpt lat="51.48898083881554" lon="21.617411952622465"><ele>153.4</ele><time>2026-05-03T13:10:54Z</time></trkpt><trkpt lat="51.48892271570394" lon="21.617321907373558"><ele>153.0</ele><time>2026-05-03T13:10:56Z</time></trkpt><trkpt lat="51.48884873518513" lon="21.61717785993725"><ele>153.0</ele><time>2026-05-03T13:11:03Z</time></trkpt><trkpt lat="51.48879006745763" lon="21.61705334218954"><ele>153.0</ele><time>2026-05-03T13:11:04Z</time></trkpt><trkpt lat="51.48873450450491" lon="21.61692503622311"><ele>153.0</ele><time>2026-05-03T13:11:05Z</time></trkpt><trkpt lat="51.488682403758524" lon="21.616851938055326"><ele>153.0</ele><time>2026-05-03T13:11:06Z</time></trkpt><trkpt lat="51.488495604626536" lon="21.616997108706272"><ele>153.20000000000002</ele><time>2026-05-03T13:11:09Z</time></trkpt><trkpt lat="51.48840973472068" lon="21.617094299945208"><ele>153.4</ele><time>2026-05-03T13:11:10Z</time></trkpt><trkpt lat="51.48831732919088" lon="21.6172241168689"><ele>153.60000000000002</ele><time>2026-05-03T13:11:11Z</time></trkpt><trkpt lat="51.48823797837609" lon="21.61732175958353"><ele>153.8</ele><time>2026-05-03T13:11:12Z</time></trkpt><trkpt lat="51.488182903277206" lon="21.61738634813069"><ele>154.0</ele><time>2026-05-03T13:11:13Z</time></trkpt><trkpt lat="51.488080981468016" lon="21.617509609342775"><ele>154.0</ele><time>2026-05-03T13:11:15Z</time></trkpt><trkpt lat="51.48801326440511" lon="21.61760104520308"><ele>154.0</ele><time>2026-05-03T13:11:16Z</time></trkpt><trkpt lat="51.48794730102068" lon="21.617684849185004"><ele>154.0</ele><time>2026-05-03T13:11:17Z</time></trkpt><trkpt lat="51.48789788834347" lon="21.617755877481148"><ele>154.0</ele><time>2026-05-03T13:11:18Z</time></trkpt><trkpt lat="51.48783055616064" lon="21.617812230816515"><ele>154.0</ele><time>2026-05-03T13:11:21Z</time></trkpt><trkpt lat="51.487746721863004" lon="21.617626906770973"><ele>154.25</ele><time>2026-05-03T13:11:22Z</time></trkpt><trkpt lat="51.48769054446238" lon="21.61750332482859"><ele>154.5</ele><time>2026-05-03T13:11:23Z</time></trkpt><trkpt lat="51.4876249722802" lon="21.61736498119114"><ele>154.75</ele><time>2026-05-03T13:11:24Z</time></trkpt><trkpt lat="51.4875448466725" lon="21.617195480210633"><ele>155.0</ele><time>2026-05-03T13:11:25Z</time></trkpt><trkpt lat="51.48747893505226" lon="21.617026845133108"><ele>155.0</ele><time>2026-05-03T13:11:26Z</time></trkpt><trkpt lat="51.48740568665092" lon="21.616901704476565"><ele>155.0</ele><time>2026-05-03T13:11:27Z</time></trkpt><trkpt lat="51.48735276093854" lon="21.616835983107926"><ele>155.0</ele><time>2026-05-03T13:11:28Z</time></trkpt><trkpt lat="51.48740386293068" lon="21.61695458430595"><ele>155.0</ele><time>2026-05-03T13:11:47Z</time></trkpt><trkpt lat="51.48746739167515" lon="21.617078375071753"><ele>155.0</ele><time>2026-05-03T13:11:48Z</time></trkpt><trkpt lat="51.48752346522437" lon="21.617220388048725"><ele>155.0</ele><time>2026-05-03T13:11:49Z</time></trkpt><trkpt lat="51.487585241315315" lon="21.617390447116172"><ele>155.0</ele><time>2026-05-03T13:11:50Z</time></trkpt><trkpt lat="51.48767360647815" lon="21.617580611151308"><ele>155.0</ele><time>2026-05-03T13:11:51Z</time></trkpt><trkpt lat="51.487764474463425" lon="21.617751695426403"><ele>155.0</ele><time>2026-05-03T13:11:52Z</time></trkpt><trkpt lat="51.48784376995656" lon="21.617898431959038"><ele>155.0</ele><time>2026-05-03T13:11:53Z</time></trkpt><trkpt lat="51.48791287073428" lon="21.61805793556064"><ele>155.0</ele><time>2026-05-03T13:11:54Z</time></trkpt><trkpt lat="51.48800056236123" lon="21.61824430884878"><ele>155.0</ele><time>2026-05-03T13:11:55Z</time></trkpt><trkpt lat="51.48810743508537" lon="21.6184481027935"><ele>155.0</ele><time>2026-05-03T13:11:56Z</time></trkpt><trkpt lat="51.48821471237557" lon="21.61868925915712"><ele>154.66666666666666</ele><time>2026-05-03T13:11:57Z</time></trkpt><trkpt lat="51.48831936429214" lon="21.618939299142873"><ele>154.33333333333334</ele><time>2026-05-03T13:11:58Z</time></trkpt><trkpt lat="51.48843399288092" lon="21.61917775390188"><ele>154.0</ele><time>2026-05-03T13:11:59Z</time></trkpt><trkpt lat="51.488547544364536" lon="21.619441443264233"><ele>154.0</ele><time>2026-05-03T13:12:00Z</time></trkpt><trkpt lat="51.488659004472936" lon="21.619712228699584"><ele>154.0</ele><time>2026-05-03T13:12:01Z</time></trkpt><trkpt lat="51.48878975038335" lon="21.61998059855449"><ele>154.0</ele><time>2026-05-03T13:12:02Z</time></trkpt><trkpt lat="51.488941415525865" lon="21.620228105898935"><ele>153.33333333333334</ele><time>2026-05-03T13:12:03Z</time></trkpt><trkpt lat="51.48906313896197" lon="21.620518811126153"><ele>152.66666666666666</ele><time>2026-05-03T13:12:04Z</time></trkpt><trkpt lat="51.48920874189033" lon="21.620800129617464"><ele>152.0</ele><time>2026-05-03T13:12:05Z</time></trkpt><trkpt lat="51.48935506109738" lon="21.62108607114334"><ele>151.5</ele><time>2026-05-03T13:12:06Z</time></trkpt><trkpt lat="51.48949201576036" lon="21.621384555603928"><ele>151.0</ele><time>2026-05-03T13:12:07Z</time></trkpt><trkpt lat="51.48963087655748" lon="21.621687824755387"><ele>150.0</ele><time>2026-05-03T13:12:08Z</time></trkpt><trkpt lat="51.48976693267957" lon="21.621998035842665"><ele>149.0</ele><time>2026-05-03T13:12:09Z</time></trkpt><trkpt lat="51.489906713384215" lon="21.62228062679834"><ele>149.0</ele><time>2026-05-03T13:12:10Z</time></trkpt><trkpt lat="51.49004907319894" lon="21.622588245292256"><ele>149.0</ele><time>2026-05-03T13:12:11Z</time></trkpt><trkpt lat="51.49018592652176" lon="21.622891388136566"><ele>149.5</ele><time>2026-05-03T13:12:12Z</time></trkpt><trkpt lat="51.49032396191731" lon="21.6232183895385"><ele>150.0</ele><time>2026-05-03T13:12:13Z</time></trkpt><trkpt lat="51.49045571527817" lon="21.623496689829363"><ele>149.33333333333334</ele><time>2026-05-03T13:12:14Z</time></trkpt><trkpt lat="51.49059633668464" lon="21.62376169347345"><ele>148.66666666666669</ele><time>2026-05-03T13:12:15Z</time></trkpt><trkpt lat="51.490694456617454" lon="21.623961775033603"><ele>148.0</ele><time>2026-05-03T13:12:16Z</time></trkpt><trkpt lat="51.49079426924688" lon="21.624133200707522"><ele>148.0</ele><time>2026-05-03T13:12:17Z</time></trkpt><trkpt lat="51.490862322289644" lon="21.624304560937073"><ele>148.0</ele><time>2026-05-03T13:12:18Z</time></trkpt><trkpt lat="51.49093578250278" lon="21.62442407500054"><ele>148.0</ele><time>2026-05-03T13:12:19Z</time></trkpt><trkpt lat="51.49099164215886" lon="21.6245561842056"><ele>148.0</ele><time>2026-05-03T13:12:20Z</time></trkpt><trkpt lat="51.49104822515948" lon="21.624673255676836"><ele>148.0</ele><time>2026-05-03T13:12:21Z</time></trkpt><trkpt lat="51.491104855282344" lon="21.6247277868648"><ele>148.0</ele><time>2026-05-03T13:12:22Z</time></trkpt><trkpt lat="51.49114173216715" lon="21.62487949952861"><ele>148.0</ele><time>2026-05-03T13:12:24Z</time></trkpt><trkpt lat="51.49114313817416" lon="21.6250358742826"><ele>148.0</ele><time>2026-05-03T13:12:26Z</time></trkpt><trkpt lat="51.49112083594238" lon="21.625148507825514"><ele>148.0</ele><time>2026-05-03T13:12:27Z</time></trkpt><trkpt lat="51.49116985114586" lon="21.62521232417518"><ele>148.0</ele><time>2026-05-03T13:12:28Z</time></trkpt><trkpt lat="51.49120632610143" lon="21.625335446984707"><ele>148.0</ele><time>2026-05-03T13:12:29Z</time></trkpt><trkpt lat="51.49129164375333" lon="21.625503497301285"><ele>148.20000000000002</ele><time>2026-05-03T13:12:31Z</time></trkpt><trkpt lat="51.49131109031807" lon="21.625606760241926"><ele>148.4</ele><time>2026-05-03T13:12:32Z</time></trkpt><trkpt lat="51.491342064636285" lon="21.625701775997403"><ele>148.60000000000002</ele><time>2026-05-03T13:12:34Z</time></trkpt><trkpt lat="51.49139052016181" lon="21.625783291604773"><ele>148.8</ele><time>2026-05-03T13:12:37Z</time></trkpt><trkpt lat="51.491243567500966" lon="21.625890602424814"><ele>149.0</ele><time>2026-05-03T13:12:53Z</time></trkpt><trkpt lat="51.49112466867438" lon="21.625871808850807"><ele>149.0</ele><time>2026-05-03T13:17:58Z</time></trkpt><trkpt lat="51.49106126706529" lon="21.6259493358871"><ele>149.0</ele><time>2026-05-03T13:17:59Z</time></trkpt><trkpt lat="51.49100040197256" lon="21.626031862588185"><ele>149.0</ele><time>2026-05-03T13:18:00Z</time></trkpt><trkpt lat="51.490965961118334" lon="21.6262206122948"><ele>149.0</ele><time>2026-05-03T13:18:02Z</time></trkpt><trkpt lat="51.491013279341985" lon="21.626337071623013"><ele>149.0</ele><time>2026-05-03T13:18:03Z</time></trkpt><trkpt lat="51.49105786089828" lon="21.626432564327423"><ele>149.0</ele><time>2026-05-03T13:18:04Z</time></trkpt><trkpt lat="51.491093007705395" lon="21.626519726204737"><ele>148.8</ele><time>2026-05-03T13:18:05Z</time></trkpt><trkpt lat="51.49115064753721" lon="21.62663572759608"><ele>148.60000000000002</ele><time>2026-05-03T13:18:07Z</time></trkpt><trkpt lat="51.49106833487748" lon="21.62681340165732"><ele>148.4</ele><time>2026-05-03T13:18:10Z</time></trkpt><trkpt lat="51.491019451418495" lon="21.626882777677455"><ele>148.20000000000002</ele><time>2026-05-03T13:18:11Z</time></trkpt><trkpt lat="51.49096525920742" lon="21.626953394768876"><ele>148.0</ele><time>2026-05-03T13:18:13Z</time></trkpt><trkpt lat="51.49084910585553" lon="21.62679552809162"><ele>148.0</ele><time>2026-05-03T13:18:15Z</time></trkpt><trkpt lat="51.490805266101454" lon="21.626680337559343"><ele>148.0</ele><time>2026-05-03T13:18:16Z</time></trkpt><trkpt lat="51.490741326202425" lon="21.626557258855406"><ele>148.0</ele><time>2026-05-03T13:18:17Z</time></trkpt><trkpt lat="51.49067254285023" lon="21.626417865840708"><ele>148.0</ele><time>2026-05-03T13:18:18Z</time></trkpt><trkpt lat="51.490613742159866" lon="21.626287832300903"><ele>148.0</ele><time>2026-05-03T13:18:19Z</time></trkpt><trkpt lat="51.4905568979275" lon="21.62617170024867"><ele>148.20000000000002</ele><time>2026-05-03T13:18:20Z</time></trkpt><trkpt lat="51.49051183847008" lon="21.62607764528896"><ele>148.4</ele><time>2026-05-03T13:18:21Z</time></trkpt><trkpt lat="51.4904569756121" lon="21.625960503923434"><ele>148.60000000000002</ele><time>2026-05-03T13:18:23Z</time></trkpt><trkpt lat="51.49033352109354" lon="21.6260663979963"><ele>148.8</ele><time>2026-05-03T13:18:25Z</time></trkpt><trkpt lat="51.49026727690475" lon="21.626186753178526"><ele>149.0</ele><time>2026-05-03T13:18:26Z</time></trkpt><trkpt lat="51.490182556415874" lon="21.62631157729844"><ele>149.0</ele><time>2026-05-03T13:18:27Z</time></trkpt><trkpt lat="51.490086577137824" lon="21.626462629431355"><ele>149.0</ele><time>2026-05-03T13:18:28Z</time></trkpt><trkpt lat="51.48997661311605" lon="21.62661820185005"><ele>149.0</ele><time>2026-05-03T13:18:29Z</time></trkpt><trkpt lat="51.48986071451036" lon="21.626788513989982"><ele>149.0</ele><time>2026-05-03T13:18:30Z</time></trkpt><trkpt lat="51.48973668369369" lon="21.626966688397783"><ele>149.33333333333331</ele><time>2026-05-03T13:18:31Z</time></trkpt><trkpt lat="51.48960987875364" lon="21.62715325688684"><ele>149.66666666666666</ele><time>2026-05-03T13:18:32Z</time></trkpt><trkpt lat="51.48947830017406" lon="21.62734651649936"><ele>150.0</ele><time>2026-05-03T13:18:33Z</time></trkpt><trkpt lat="51.4893417794253" lon="21.627551330762703"><ele>150.0</ele><time>2026-05-03T13:18:34Z</time></trkpt><trkpt lat="51.48920099736476" lon="21.627756717521393"><ele>150.0</ele><time>2026-05-03T13:18:35Z</time></trkpt><trkpt lat="51.48905679445253" lon="21.627966846617554"><ele>150.0</ele><time>2026-05-03T13:18:36Z</time></trkpt><trkpt lat="51.488909181242825" lon="21.628184382650847"><ele>150.33333333333334</ele><time>2026-05-03T13:18:37Z</time></trkpt><trkpt lat="51.48875681189816" lon="21.628400288732728"><ele>150.66666666666669</ele><time>2026-05-03T13:18:38Z</time></trkpt><trkpt lat="51.48860408129437" lon="21.62862319987462"><ele>151.0</ele><time>2026-05-03T13:18:39Z</time></trkpt><trkpt lat="51.488451454506496" lon="21.628853923093473"><ele>151.0</ele><time>2026-05-03T13:18:40Z</time></trkpt><trkpt lat="51.48829657558228" lon="21.629090573214025"><ele>151.0</ele><time>2026-05-03T13:18:41Z</time></trkpt><trkpt lat="51.488139359681504" lon="21.629329931527643"><ele>151.0</ele><time>2026-05-03T13:18:42Z</time></trkpt><trkpt lat="51.48798114318121" lon="21.629566296036753"><ele>151.0</ele><time>2026-05-03T13:18:43Z</time></trkpt><trkpt lat="51.48781840055403" lon="21.62980298351575"><ele>151.0</ele><time>2026-05-03T13:18:44Z</time></trkpt><trkpt lat="51.487653862676694" lon="21.63004734907584"><ele>151.0</ele><time>2026-05-03T13:18:45Z</time></trkpt><trkpt lat="51.487489815907814" lon="21.630289297303676"><ele>151.0</ele><time>2026-05-03T13:18:46Z</time></trkpt><trkpt lat="51.48732448229684" lon="21.6305349285429"><ele>151.0</ele><time>2026-05-03T13:18:47Z</time></trkpt><trkpt lat="51.48715776200198" lon="21.63078067526282"><ele>152.5</ele><time>2026-05-03T13:18:48Z</time></trkpt><trkpt lat="51.486991394402345" lon="21.631026960577067"><ele>154.0</ele><time>2026-05-03T13:18:49Z</time></trkpt><trkpt lat="51.486823554697175" lon="21.631274712627665"><ele>154.0</ele><time>2026-05-03T13:18:50Z</time></trkpt><trkpt lat="51.48665777088199" lon="21.631520814759156"><ele>154.0</ele><time>2026-05-03T13:18:51Z</time></trkpt><trkpt lat="51.48648815174911" lon="21.631763937673608"><ele>153.5</ele><time>2026-05-03T13:18:52Z</time></trkpt><trkpt lat="51.486320541786846" lon="21.632006136134596"><ele>153.0</ele><time>2026-05-03T13:18:53Z</time></trkpt><trkpt lat="51.48615117996241" lon="21.63224920053099"><ele>154.0</ele><time>2026-05-03T13:18:54Z</time></trkpt><trkpt lat="51.48598420711452" lon="21.632495810058703"><ele>155.0</ele><time>2026-05-03T13:18:55Z</time></trkpt><trkpt lat="51.48581731047709" lon="21.63274261666396"><ele>155.0</ele><time>2026-05-03T13:18:56Z</time></trkpt><trkpt lat="51.485648618928984" lon="21.6329870295068"><ele>155.0</ele><time>2026-05-03T13:18:57Z</time></trkpt><trkpt lat="51.485476936714626" lon="21.633232087064364"><ele>155.5</ele><time>2026-05-03T13:18:58Z</time></trkpt><trkpt lat="51.48530854503153" lon="21.633481159166024"><ele>156.0</ele><time>2026-05-03T13:18:59Z</time></trkpt><trkpt lat="51.48513722289622" lon="21.633724764693213"><ele>156.0</ele><time>2026-05-03T13:19:00Z</time></trkpt><trkpt lat="51.48496618905144" lon="21.6339754769111"><ele>156.0</ele><time>2026-05-03T13:19:01Z</time></trkpt><trkpt lat="51.484798397532074" lon="21.634229621585305"><ele>155.5</ele><time>2026-05-03T13:19:02Z</time></trkpt><trkpt lat="51.484628572694625" lon="21.634482661345306"><ele>155.0</ele><time>2026-05-03T13:19:03Z</time></trkpt><trkpt lat="51.48446813454574" lon="21.634733118983867"><ele>155.66666666666666</ele><time>2026-05-03T13:19:04Z</time></trkpt><trkpt lat="51.484302037867394" lon="21.634969869197317"><ele>156.33333333333334</ele><time>2026-05-03T13:19:05Z</time></trkpt><trkpt lat="51.48413776407174" lon="21.635211977771814"><ele>157.0</ele><time>2026-05-03T13:19:06Z</time></trkpt><trkpt lat="51.48397211182885" lon="21.635452820210315"><ele>157.0</ele><time>2026-05-03T13:19:07Z</time></trkpt><trkpt lat="51.48380718708714" lon="21.635694048752967"><ele>157.0</ele><time>2026-05-03T13:19:08Z</time></trkpt><trkpt lat="51.4836396862923" lon="21.635939985130953"><ele>157.0</ele><time>2026-05-03T13:19:09Z</time></trkpt><trkpt lat="51.483472897150065" lon="21.636191571668192"><ele>157.0</ele><time>2026-05-03T13:19:10Z</time></trkpt><trkpt lat="51.48329986375178" lon="21.636437753757086"><ele>157.0</ele><time>2026-05-03T13:19:11Z</time></trkpt><trkpt lat="51.48313480783242" lon="21.636684571044224"><ele>157.0</ele><time>2026-05-03T13:19:12Z</time></trkpt><trkpt lat="51.482978167184584" lon="21.636917778633414"><ele>157.0</ele><time>2026-05-03T13:19:13Z</time></trkpt><trkpt lat="51.482827506290555" lon="21.63713961458598"><ele>156.66666666666669</ele><time>2026-05-03T13:19:14Z</time></trkpt><trkpt lat="51.48268205122769" lon="21.63735569551018"><ele>156.33333333333334</ele><time>2026-05-03T13:19:15Z</time></trkpt><trkpt lat="51.48253397838792" lon="21.637569909033097"><ele>156.0</ele><time>2026-05-03T13:19:16Z</time></trkpt><trkpt lat="51.48239029000421" lon="21.637800613888526"><ele>156.0</ele><time>2026-05-03T13:19:17Z</time></trkpt><trkpt lat="51.482266148955716" lon="21.63805815327715"><ele>156.0</ele><time>2026-05-03T13:19:18Z</time></trkpt><trkpt lat="51.48216191283245" lon="21.638348944554366"><ele>156.0</ele><time>2026-05-03T13:19:19Z</time></trkpt><trkpt lat="51.48206204094686" lon="21.63864848486816"><ele>155.66666666666666</ele><time>2026-05-03T13:19:20Z</time></trkpt><trkpt lat="51.48196136953144" lon="21.6389594602808"><ele>155.33333333333331</ele><time>2026-05-03T13:19:21Z</time></trkpt><trkpt lat="51.48185311263111" lon="21.639263219640064"><ele>155.0</ele><time>2026-05-03T13:19:22Z</time></trkpt><trkpt lat="51.481742165221085" lon="21.63955814818042"><ele>155.0</ele><time>2026-05-03T13:19:23Z</time></trkpt><trkpt lat="51.48161809724273" lon="21.63981992468961"><ele>155.0</ele><time>2026-05-03T13:19:24Z</time></trkpt><trkpt lat="51.481484663010214" lon="21.64003693367574"><ele>155.0</ele><time>2026-05-03T13:19:25Z</time></trkpt><trkpt lat="51.481343662760956" lon="21.640241035787152"><ele>155.0</ele><time>2026-05-03T13:19:26Z</time></trkpt><trkpt lat="51.48118674318586" lon="21.64044179997554"><ele>155.0</ele><time>2026-05-03T13:19:27Z</time></trkpt><trkpt lat="51.48103298033854" lon="21.64066530392325"><ele>155.0</ele><time>2026-05-03T13:19:28Z</time></trkpt><trkpt lat="51.48087423498052" lon="21.640892428671684"><ele>155.0</ele><time>2026-05-03T13:19:29Z</time></trkpt><trkpt lat="51.480712329621674" lon="21.641121092711323"><ele>155.0</ele><time>2026-05-03T13:19:30Z</time></trkpt><trkpt lat="51.48055170214614" lon="21.64135984219722"><ele>155.0</ele><time>2026-05-03T13:19:31Z</time></trkpt><trkpt lat="51.48038863470924" lon="21.641602511665013"><ele>155.0</ele><time>2026-05-03T13:19:32Z</time></trkpt><trkpt lat="51.48022502398095" lon="21.64184950299658"><ele>155.0</ele><time>2026-05-03T13:19:33Z</time></trkpt><trkpt lat="51.48005851103734" lon="21.642097195575364"><ele>155.0</ele><time>2026-05-03T13:19:34Z</time></trkpt><trkpt lat="51.479889303021814" lon="21.642342098490317"><ele>155.0</ele><time>2026-05-03T13:19:35Z</time></trkpt><trkpt lat="51.479721649789305" lon="21.642589054997778"><ele>154.5</ele><time>2026-05-03T13:19:36Z</time></trkpt><trkpt lat="51.47955316602873" lon="21.642836081550804"><ele>154.0</ele><time>2026-05-03T13:19:37Z</time></trkpt><trkpt lat="51.479384886539" lon="21.643085436981387"><ele>154.0</ele><time>2026-05-03T13:19:38Z</time></trkpt><trkpt lat="51.479215185087824" lon="21.643332892352632"><ele>154.0</ele><time>2026-05-03T13:19:39Z</time></trkpt><trkpt lat="51.47904411693837" lon="21.643582399828517"><ele>154.0</ele><time>2026-05-03T13:19:40Z</time></trkpt><trkpt lat="51.4788730843842" lon="21.64383267572415"><ele>154.0</ele><time>2026-05-03T13:19:41Z</time></trkpt><trkpt lat="51.47869769341762" lon="21.644074285953327"><ele>154.0</ele><time>2026-05-03T13:19:42Z</time></trkpt><trkpt lat="51.47852272204933" lon="21.644319764675956"><ele>154.0</ele><time>2026-05-03T13:19:43Z</time></trkpt><trkpt lat="51.478349443598105" lon="21.644569197871213"><ele>154.5</ele><time>2026-05-03T13:19:44Z</time></trkpt><trkpt lat="51.478173297393596" lon="21.644814779349694"><ele>155.0</ele><time>2026-05-03T13:19:45Z</time></trkpt><trkpt lat="51.47799946273162" lon="21.645063748924695"><ele>155.0</ele><time>2026-05-03T13:19:46Z</time></trkpt><trkpt lat="51.477826126261846" lon="21.645313377419384"><ele>155.0</ele><time>2026-05-03T13:19:47Z</time></trkpt><trkpt lat="51.477658326027075" lon="21.645561354281476"><ele>155.0</ele><time>2026-05-03T13:19:48Z</time></trkpt><trkpt lat="51.47748851161692" lon="21.64581191483538"><ele>155.0</ele><time>2026-05-03T13:19:49Z</time></trkpt><trkpt lat="51.477313470452074" lon="21.64607312403533"><ele>155.5</ele><time>2026-05-03T13:19:50Z</time></trkpt><trkpt lat="51.47714283563349" lon="21.646320124602365"><ele>156.0</ele><time>2026-05-03T13:19:51Z</time></trkpt><trkpt lat="51.476972193710964" lon="21.64656851144246"><ele>156.5</ele><time>2026-05-03T13:19:52Z</time></trkpt><trkpt lat="51.47680329653155" lon="21.64681754913614"><ele>157.0</ele><time>2026-05-03T13:19:53Z</time></trkpt><trkpt lat="51.4766337604374" lon="21.647062564698338"><ele>157.0</ele><time>2026-05-03T13:19:54Z</time></trkpt><trkpt lat="51.47646277234154" lon="21.64730710772669"><ele>157.0</ele><time>2026-05-03T13:19:55Z</time></trkpt><trkpt lat="51.476292298287795" lon="21.64755355442269"><ele>157.0</ele><time>2026-05-03T13:19:56Z</time></trkpt><trkpt lat="51.47612121768402" lon="21.6478015196835"><ele>157.0</ele><time>2026-05-03T13:19:57Z</time></trkpt><trkpt lat="51.475958892072555" lon="21.64803816240204"><ele>157.0</ele><time>2026-05-03T13:19:58Z</time></trkpt><trkpt lat="51.47581134693143" lon="21.648254815089846"><ele>157.0</ele><time>2026-05-03T13:19:59Z</time></trkpt><trkpt lat="51.47567249824574" lon="21.648457356416962"><ele>157.0</ele><time>2026-05-03T13:20:00Z</time></trkpt><trkpt lat="51.47554171367759" lon="21.64864436183767"><ele>156.66666666666669</ele><time>2026-05-03T13:20:01Z</time></trkpt><trkpt lat="51.47542062725563" lon="21.648825618530545"><ele>156.33333333333334</ele><time>2026-05-03T13:20:02Z</time></trkpt><trkpt lat="51.47530627607373" lon="21.648994417164683"><ele>156.0</ele><time>2026-05-03T13:20:03Z</time></trkpt><trkpt lat="51.47519649617871" lon="21.649151397983164"><ele>156.0</ele><time>2026-05-03T13:20:04Z</time></trkpt><trkpt lat="51.47509349027534" lon="21.64929646115351"><ele>156.0</ele><time>2026-05-03T13:20:05Z</time></trkpt><trkpt lat="51.47499685350888" lon="21.64943107591487"><ele>156.0</ele><time>2026-05-03T13:20:06Z</time></trkpt><trkpt lat="51.47492305869224" lon="21.649540653906865"><ele>156.0</ele><time>2026-05-03T13:20:07Z</time></trkpt><trkpt lat="51.474868348506924" lon="21.649625934017237"><ele>156.0</ele><time>2026-05-03T13:20:08Z</time></trkpt><trkpt lat="51.474800575707555" lon="21.6497357559452"><ele>156.25</ele><time>2026-05-03T13:20:10Z</time></trkpt><trkpt lat="51.47468035650045" lon="21.649625526481937"><ele>156.5</ele><time>2026-05-03T13:20:12Z</time></trkpt><trkpt lat="51.47460855225924" lon="21.649507713399256"><ele>156.75</ele><time>2026-05-03T13:20:13Z</time></trkpt><trkpt lat="51.47451819530682" lon="21.649389643971045"><ele>157.0</ele><time>2026-05-03T13:20:14Z</time></trkpt><trkpt lat="51.47441986302028" lon="21.64925207033207"><ele>157.0</ele><time>2026-05-03T13:20:15Z</time></trkpt><trkpt lat="51.47431320102426" lon="21.649105246958616"><ele>157.0</ele><time>2026-05-03T13:20:16Z</time></trkpt><trkpt lat="51.47419107316247" lon="21.64894378845516"><ele>157.0</ele><time>2026-05-03T13:20:17Z</time></trkpt><trkpt lat="51.47406924541589" lon="21.648780050877594"><ele>157.25</ele><time>2026-05-03T13:20:18Z</time></trkpt><trkpt lat="51.47394688314868" lon="21.648615490346877"><ele>157.5</ele><time>2026-05-03T13:20:19Z</time></trkpt><trkpt lat="51.473834647054865" lon="21.64847141284476"><ele>157.75</ele><time>2026-05-03T13:20:20Z</time></trkpt><trkpt lat="51.473726505617535" lon="21.64832327422372"><ele>158.0</ele><time>2026-05-03T13:20:21Z</time></trkpt><trkpt lat="51.47363296842906" lon="21.64819635446773"><ele>158.20000000000002</ele><time>2026-05-03T13:20:22Z</time></trkpt><trkpt lat="51.47354270846917" lon="21.64807289694694"><ele>158.4</ele><time>2026-05-03T13:20:23Z</time></trkpt><trkpt lat="51.473482346087394" lon="21.64798389196983"><ele>158.60000000000002</ele><time>2026-05-03T13:20:24Z</time></trkpt><trkpt lat="51.473421193997105" lon="21.647900803581823"><ele>158.8</ele><time>2026-05-03T13:20:26Z</time></trkpt><trkpt lat="51.47337790868015" lon="21.64781137735833"><ele>159.0</ele><time>2026-05-03T13:20:29Z</time></trkpt><trkpt lat="51.47342699685731" lon="21.647647013431186"><ele>159.0</ele><time>2026-05-03T13:23:07Z</time></trkpt><trkpt lat="51.473477692591395" lon="21.6475830269044"><ele>159.0</ele><time>2026-05-03T13:23:13Z</time></trkpt><trkpt lat="51.473525478543266" lon="21.647507095127224"><ele>159.0</ele><time>2026-05-03T13:23:19Z</time></trkpt><trkpt lat="51.47340992688541" lon="21.647346612354827"><ele>159.0</ele><time>2026-05-03T13:24:11Z</time></trkpt><trkpt lat="51.473341217224885" lon="21.647388203872044"><ele>159.0</ele><time>2026-05-03T13:24:43Z</time></trkpt><trkpt lat="51.47326446568596" lon="21.64740377526527"><ele>159.0</ele><time>2026-05-03T13:24:49.019Z</time></trkpt><trkpt lat="51.473351042924904" lon="21.647511108173358"><ele>159.0</ele><time>2026-05-03T13:24:52Z</time></trkpt><trkpt lat="51.473512363482975" lon="21.64754159125638"><ele>159.0</ele><time>2026-05-03T13:24:58Z</time></trkpt><trkpt lat="51.47353556489555" lon="21.647637410079387"><ele>159.0</ele><time>2026-05-03T13:25:51Z</time></trkpt><trkpt lat="51.473492698922" lon="21.647562270080506"><ele>159.0</ele><time>2026-05-03T13:29:57Z</time></trkpt><trkpt lat="51.47356222985786" lon="21.647541479807522"><ele>159.0</ele><time>2026-05-03T13:31:28Z</time></trkpt><trkpt lat="51.47373011253237" lon="21.647546635668082"><ele>159.0</ele><time>2026-05-03T13:32:08Z</time></trkpt><trkpt lat="51.47353338639104" lon="21.64756751462715"><ele>159.0</ele><time>2026-05-03T13:34:21Z</time></trkpt><trkpt lat="51.4734653550234" lon="21.64755472900456"><ele>159.0</ele><time>2026-05-03T13:42:57Z</time></trkpt><trkpt lat="51.473425872147544" lon="21.647678956634223"><ele>159.0</ele><time>2026-05-03T13:43:03Z</time></trkpt><trkpt lat="51.47338107316774" lon="21.647753528219365"><ele>159.0</ele><time>2026-05-03T13:43:06Z</time></trkpt><trkpt lat="51.47342163681418" lon="21.647854654768473"><ele>159.0</ele><time>2026-05-03T13:43:55Z</time></trkpt><trkpt lat="51.47335718123196" lon="21.647798843443095"><ele>159.0</ele><time>2026-05-03T13:44:52Z</time></trkpt><trkpt lat="51.47330432457727" lon="21.647732926968995"><ele>159.0</ele><time>2026-05-03T13:44:54Z</time></trkpt><trkpt lat="51.473211418085015" lon="21.647610954627538"><ele>159.0</ele><time>2026-05-03T13:44:56Z</time></trkpt><trkpt lat="51.473148605970295" lon="21.647532288742745"><ele>159.0</ele><time>2026-05-03T13:44:57Z</time></trkpt><trkpt lat="51.47308911351973" lon="21.647450236315496"><ele>159.0</ele><time>2026-05-03T13:44:58Z</time></trkpt><trkpt lat="51.47301908458744" lon="21.647359960940555"><ele>159.0</ele><time>2026-05-03T13:44:59Z</time></trkpt><trkpt lat="51.472955685898704" lon="21.647268471006747"><ele>159.0</ele><time>2026-05-03T13:45:00Z</time></trkpt><trkpt lat="51.472879465052756" lon="21.647171552636518"><ele>159.0</ele><time>2026-05-03T13:45:01Z</time></trkpt><trkpt lat="51.47279315098818" lon="21.6470730261052"><ele>159.0</ele><time>2026-05-03T13:45:02Z</time></trkpt><trkpt lat="51.47270483940081" lon="21.646952514662654"><ele>159.0</ele><time>2026-05-03T13:45:03Z</time></trkpt><trkpt lat="51.472607199255776" lon="21.646828218837687"><ele>158.5</ele><time>2026-05-03T13:45:04Z</time></trkpt><trkpt lat="51.472509231985214" lon="21.646701661505904"><ele>158.0</ele><time>2026-05-03T13:45:05Z</time></trkpt><trkpt lat="51.47241265304194" lon="21.64657061984738"><ele>157.5</ele><time>2026-05-03T13:45:06Z</time></trkpt><trkpt lat="51.472309686388655" lon="21.646434645359275"><ele>157.0</ele><time>2026-05-03T13:45:07Z</time></trkpt><trkpt lat="51.47221315469454" lon="21.646307820709072"><ele>157.0</ele><time>2026-05-03T13:45:08Z</time></trkpt><trkpt lat="51.47212375592509" lon="21.646192410698344"><ele>157.0</ele><time>2026-05-03T13:45:09Z</time></trkpt><trkpt lat="51.472046924644154" lon="21.64609156581151"><ele>157.0</ele><time>2026-05-03T13:45:10Z</time></trkpt><trkpt lat="51.471974726275896" lon="21.645997052264043"><ele>157.0</ele><time>2026-05-03T13:45:11Z</time></trkpt><trkpt lat="51.471902005222596" lon="21.645898892736906"><ele>157.0</ele><time>2026-05-03T13:45:12Z</time></trkpt><trkpt lat="51.47183090690218" lon="21.64580038713186"><ele>156.6</ele><time>2026-05-03T13:45:13Z</time></trkpt><trkpt lat="51.47175836168377" lon="21.645704076346718"><ele>156.2</ele><time>2026-05-03T13:45:14Z</time></trkpt><trkpt lat="51.47168312944113" lon="21.64559875749966"><ele>155.8</ele><time>2026-05-03T13:45:15Z</time></trkpt><trkpt lat="51.471608613033865" lon="21.645490680086628"><ele>155.4</ele><time>2026-05-03T13:45:16Z</time></trkpt><trkpt lat="51.47152226975231" lon="21.645374330259408"><ele>155.0</ele><time>2026-05-03T13:45:17Z</time></trkpt><trkpt lat="51.471426391737715" lon="21.64524882686531"><ele>155.0</ele><time>2026-05-03T13:45:18Z</time></trkpt><trkpt lat="51.47132509665817" lon="21.645114785208303"><ele>155.0</ele><time>2026-05-03T13:45:19Z</time></trkpt><trkpt lat="51.47122068512514" lon="21.644973296646974"><ele>155.0</ele><time>2026-05-03T13:45:20Z</time></trkpt><trkpt lat="51.47111519122522" lon="21.644825760441208"><ele>155.0</ele><time>2026-05-03T13:45:21Z</time></trkpt><trkpt lat="51.471008396780306" lon="21.644679643000824"><ele>155.25</ele><time>2026-05-03T13:45:22Z</time></trkpt><trkpt lat="51.47090446406969" lon="21.644539799730897"><ele>155.5</ele><time>2026-05-03T13:45:23Z</time></trkpt><trkpt lat="51.47080375220862" lon="21.644405840411597"><ele>155.75</ele><time>2026-05-03T13:45:24Z</time></trkpt><trkpt lat="51.47070155169755" lon="21.64428349614007"><ele>156.0</ele><time>2026-05-03T13:45:25Z</time></trkpt><trkpt lat="51.47061165995952" lon="21.644175853680576"><ele>156.0</ele><time>2026-05-03T13:45:26Z</time></trkpt><trkpt lat="51.470511285219274" lon="21.64410167901713"><ele>156.0</ele><time>2026-05-03T13:45:27Z</time></trkpt><trkpt lat="51.47040409782348" lon="21.644047819037347"><ele>156.0</ele><time>2026-05-03T13:45:28Z</time></trkpt><trkpt lat="51.47029744730404" lon="21.644010070346607"><ele>156.0</ele><time>2026-05-03T13:45:29Z</time></trkpt><trkpt lat="51.470184721133755" lon="21.6439811598989"><ele>156.0</ele><time>2026-05-03T13:45:30Z</time></trkpt><trkpt lat="51.47006397724507" lon="21.643954650289864"><ele>156.0</ele><time>2026-05-03T13:45:31Z</time></trkpt><trkpt lat="51.469941146371724" lon="21.643922439483834"><ele>156.0</ele><time>2026-05-03T13:45:32Z</time></trkpt><trkpt lat="51.469810445160306" lon="21.643886961299053"><ele>156.0</ele><time>2026-05-03T13:45:33Z</time></trkpt><trkpt lat="51.46967686213397" lon="21.643852094596614"><ele>156.0</ele><time>2026-05-03T13:45:34Z</time></trkpt><trkpt lat="51.469538637116884" lon="21.64381905902928"><ele>156.0</ele><time>2026-05-03T13:45:35Z</time></trkpt><trkpt lat="51.46939357174208" lon="21.64378910473701"><ele>156.0</ele><time>2026-05-03T13:45:36Z</time></trkpt><trkpt lat="51.46924064207102" lon="21.643756380532313"><ele>156.0</ele><time>2026-05-03T13:45:37Z</time></trkpt><trkpt lat="51.46908044117359" lon="21.643721338843076"><ele>156.0</ele><time>2026-05-03T13:45:38Z</time></trkpt><trkpt lat="51.46892024885225" lon="21.643690400718466"><ele>156.0</ele><time>2026-05-03T13:45:39Z</time></trkpt><trkpt lat="51.46875862350362" lon="21.64365447146961"><ele>156.0</ele><time>2026-05-03T13:45:40Z</time></trkpt><trkpt lat="51.46859629966813" lon="21.6436231394253"><ele>155.33333333333334</ele><time>2026-05-03T13:45:41Z</time></trkpt><trkpt lat="51.468435728044966" lon="21.643593270242707"><ele>154.66666666666669</ele><time>2026-05-03T13:45:42Z</time></trkpt><trkpt lat="51.46827347330952" lon="21.643560161448956"><ele>154.0</ele><time>2026-05-03T13:45:43Z</time></trkpt><trkpt lat="51.46810824775329" lon="21.64352469450081"><ele>154.0</ele><time>2026-05-03T13:45:44Z</time></trkpt><trkpt lat="51.46794124439366" lon="21.643489983497894"><ele>154.0</ele><time>2026-05-03T13:45:45Z</time></trkpt><trkpt lat="51.46777867446871" lon="21.643453905433407"><ele>154.0</ele><time>2026-05-03T13:45:46Z</time></trkpt><trkpt lat="51.46761495475016" lon="21.643418957713585"><ele>154.0</ele><time>2026-05-03T13:45:47Z</time></trkpt><trkpt lat="51.46745477323464" lon="21.643378182004568"><ele>154.0</ele><time>2026-05-03T13:45:48Z</time></trkpt><trkpt lat="51.467289026678074" lon="21.64333766846225"><ele>154.0</ele><time>2026-05-03T13:45:49Z</time></trkpt><trkpt lat="51.46712341467831" lon="21.64330171894009"><ele>154.66666666666669</ele><time>2026-05-03T13:45:50Z</time></trkpt><trkpt lat="51.466952733549384" lon="21.643263015394506"><ele>155.33333333333334</ele><time>2026-05-03T13:45:51Z</time></trkpt><trkpt lat="51.4667845706292" lon="21.64322535335767"><ele>156.0</ele><time>2026-05-03T13:45:52Z</time></trkpt><trkpt lat="51.46661711575055" lon="21.64319059876966"><ele>156.0</ele><time>2026-05-03T13:45:53Z</time></trkpt><trkpt lat="51.46645245724065" lon="21.643154280854635"><ele>156.0</ele><time>2026-05-03T13:45:54Z</time></trkpt><trkpt lat="51.466284049801686" lon="21.643114385435524"><ele>156.0</ele><time>2026-05-03T13:45:55Z</time></trkpt><trkpt lat="51.46612104242118" lon="21.64304729994146"><ele>156.33333333333334</ele><time>2026-05-03T13:45:56Z</time></trkpt><trkpt lat="51.46595024295484" lon="21.64303571992379"><ele>156.66666666666669</ele><time>2026-05-03T13:45:57Z</time></trkpt><trkpt lat="51.46578756588998" lon="21.64300351201131"><ele>157.0</ele><time>2026-05-03T13:45:58Z</time></trkpt><trkpt lat="51.46562701689946" lon="21.642973948547407"><ele>157.0</ele><time>2026-05-03T13:45:59Z</time></trkpt><trkpt lat="51.465470367518975" lon="21.64294895637374"><ele>157.0</ele><time>2026-05-03T13:46:00Z</time></trkpt><trkpt lat="51.46531835966053" lon="21.642923728835534"><ele>157.0</ele><time>2026-05-03T13:46:01Z</time></trkpt><trkpt lat="51.46517160640409" lon="21.642896187155184"><ele>157.5</ele><time>2026-05-03T13:46:02Z</time></trkpt><trkpt lat="51.46502696087857" lon="21.642870073427307"><ele>158.0</ele><time>2026-05-03T13:46:03Z</time></trkpt><trkpt lat="51.464889134349185" lon="21.64284947479532"><ele>158.5</ele><time>2026-05-03T13:46:04Z</time></trkpt><trkpt lat="51.46475144730978" lon="21.642828032961454"><ele>159.0</ele><time>2026-05-03T13:46:05Z</time></trkpt><trkpt lat="51.46462517073863" lon="21.642796596590593"><ele>159.0</ele><time>2026-05-03T13:46:06Z</time></trkpt><trkpt lat="51.46449918964718" lon="21.642770261691744"><ele>159.0</ele><time>2026-05-03T13:46:07Z</time></trkpt><trkpt lat="51.46437538949115" lon="21.64274267519151"><ele>159.0</ele><time>2026-05-03T13:46:08Z</time></trkpt><trkpt lat="51.464254022197345" lon="21.642706188279785"><ele>159.0</ele><time>2026-05-03T13:46:09Z</time></trkpt><trkpt lat="51.464131375189844" lon="21.642675746785226"><ele>159.0</ele><time>2026-05-03T13:46:10Z</time></trkpt><trkpt lat="51.46399576638564" lon="21.642625325825428"><ele>159.0</ele><time>2026-05-03T13:46:11Z</time></trkpt><trkpt lat="51.46384253454278" lon="21.64259646927607"><ele>159.0</ele><time>2026-05-03T13:46:12Z</time></trkpt><trkpt lat="51.46368595073334" lon="21.64257218029853"><ele>159.25</ele><time>2026-05-03T13:46:13Z</time></trkpt><trkpt lat="51.463537384261194" lon="21.642544525960695"><ele>159.5</ele><time>2026-05-03T13:46:14Z</time></trkpt><trkpt lat="51.46339228717246" lon="21.642517884895636"><ele>159.75</ele><time>2026-05-03T13:46:15Z</time></trkpt><trkpt lat="51.46325436396762" lon="21.642481459377326"><ele>160.0</ele><time>2026-05-03T13:46:16Z</time></trkpt><trkpt lat="51.463120901398135" lon="21.642451941906096"><ele>160.0</ele><time>2026-05-03T13:46:17Z</time></trkpt><trkpt lat="51.46299418507092" lon="21.642419855170544"><ele>160.0</ele><time>2026-05-03T13:46:18Z</time></trkpt><trkpt lat="51.462875873168194" lon="21.642388984180016"><ele>160.0</ele><time>2026-05-03T13:46:19Z</time></trkpt><trkpt lat="51.46276873331276" lon="21.642360729008956"><ele>160.0</ele><time>2026-05-03T13:46:20Z</time></trkpt><trkpt lat="51.46266886752614" lon="21.642337135333104"><ele>160.0</ele><time>2026-05-03T13:46:21Z</time></trkpt><trkpt lat="51.462581805410906" lon="21.64231630773534"><ele>160.0</ele><time>2026-05-03T13:46:22Z</time></trkpt><trkpt lat="51.46250460975834" lon="21.64229732596347"><ele>160.0</ele><time>2026-05-03T13:46:23Z</time></trkpt><trkpt lat="51.46243687939518" lon="21.64228368461877"><ele>160.0</ele><time>2026-05-03T13:46:24Z</time></trkpt><trkpt lat="51.46237330183773" lon="21.642269455448655"><ele>160.0</ele><time>2026-05-03T13:46:25Z</time></trkpt><trkpt lat="51.462257087152416" lon="21.642238940160745"><ele>160.0</ele><time>2026-05-03T13:46:27Z</time></trkpt><trkpt lat="51.46217059061042" lon="21.642216351873333"><ele>160.0</ele><time>2026-05-03T13:46:29Z</time></trkpt><trkpt lat="51.462215774146365" lon="21.64185882313383"><ele>160.0</ele><time>2026-05-03T13:46:33Z</time></trkpt><trkpt lat="51.462254399862616" lon="21.641698057450984"><ele>160.0</ele><time>2026-05-03T13:46:34Z</time></trkpt><trkpt lat="51.46228598002192" lon="21.641518799050264"><ele>160.0</ele><time>2026-05-03T13:46:35Z</time></trkpt><trkpt lat="51.462325929957096" lon="21.641350338997476"><ele>160.0</ele><time>2026-05-03T13:46:36Z</time></trkpt><trkpt lat="51.46236635019468" lon="21.641188132785587"><ele>160.0</ele><time>2026-05-03T13:46:37Z</time></trkpt><trkpt lat="51.46241405132459" lon="21.64102836190626"><ele>160.0</ele><time>2026-05-03T13:46:38Z</time></trkpt><trkpt lat="51.462459918232646" lon="21.640857731127223"><ele>160.0</ele><time>2026-05-03T13:46:39Z</time></trkpt><trkpt lat="51.462505624496266" lon="21.640694032599164"><ele>159.8</ele><time>2026-05-03T13:46:40Z</time></trkpt><trkpt lat="51.46253978855741" lon="21.640525236705265"><ele>159.6</ele><time>2026-05-03T13:46:41Z</time></trkpt><trkpt lat="51.46257906562212" lon="21.64035847415424"><ele>159.4</ele><time>2026-05-03T13:46:42Z</time></trkpt><trkpt lat="51.46261410779555" lon="21.640190637650196"><ele>159.2</ele><time>2026-05-03T13:46:43Z</time></trkpt><trkpt lat="51.462646904590436" lon="21.6400242705801"><ele>159.0</ele><time>2026-05-03T13:46:44Z</time></trkpt><trkpt lat="51.462674281059" lon="21.63985577320123"><ele>159.0</ele><time>2026-05-03T13:46:45Z</time></trkpt><trkpt lat="51.462703705385486" lon="21.63968697854186"><ele>159.0</ele><time>2026-05-03T13:46:46Z</time></trkpt><trkpt lat="51.46274596483459" lon="21.63952331307345"><ele>159.0</ele><time>2026-05-03T13:46:47Z</time></trkpt><trkpt lat="51.46278296407936" lon="21.639361559050514"><ele>159.0</ele><time>2026-05-03T13:46:48Z</time></trkpt><trkpt lat="51.46282265506845" lon="21.6391958719825"><ele>159.0</ele><time>2026-05-03T13:46:49Z</time></trkpt><trkpt lat="51.46286939612838" lon="21.63903260438607"><ele>159.0</ele><time>2026-05-03T13:46:50Z</time></trkpt><trkpt lat="51.462911897524265" lon="21.63888172403797"><ele>159.0</ele><time>2026-05-03T13:46:51Z</time></trkpt><trkpt lat="51.46295054828871" lon="21.638748231456233"><ele>159.0</ele><time>2026-05-03T13:46:52Z</time></trkpt><trkpt lat="51.462994956855844" lon="21.638617886005743"><ele>159.0</ele><time>2026-05-03T13:46:53Z</time></trkpt><trkpt lat="51.46303030040604" lon="21.638468865780872"><ele>159.0</ele><time>2026-05-03T13:46:54Z</time></trkpt><trkpt lat="51.46305553904429" lon="21.638299863973796"><ele>159.0</ele><time>2026-05-03T13:46:55Z</time></trkpt><trkpt lat="51.463081693298975" lon="21.638134175462348"><ele>159.0</ele><time>2026-05-03T13:46:56Z</time></trkpt><trkpt lat="51.463117576752595" lon="21.63796653797392"><ele>159.0</ele><time>2026-05-03T13:46:57Z</time></trkpt><trkpt lat="51.463154550337315" lon="21.63780456757972"><ele>159.0</ele><time>2026-05-03T13:46:58Z</time></trkpt><trkpt lat="51.46319726748981" lon="21.637651967355946"><ele>159.0</ele><time>2026-05-03T13:46:59Z</time></trkpt><trkpt lat="51.46324414783389" lon="21.637513319146915"><ele>159.0</ele><time>2026-05-03T13:47:00Z</time></trkpt><trkpt lat="51.463292894662075" lon="21.63740002482041"><ele>159.0</ele><time>2026-05-03T13:47:01Z</time></trkpt><trkpt lat="51.46332961087039" lon="21.637298084898084"><ele>159.0</ele><time>2026-05-03T13:47:02Z</time></trkpt><trkpt lat="51.46335327255115" lon="21.63719205751379"><ele>159.0</ele><time>2026-05-03T13:47:03Z</time></trkpt><trkpt lat="51.463371429940715" lon="21.6370742172485"><ele>159.0</ele><time>2026-05-03T13:47:04Z</time></trkpt><trkpt lat="51.46339663170348" lon="21.636969134006947"><ele>159.0</ele><time>2026-05-03T13:47:05Z</time></trkpt><trkpt lat="51.46343954178118" lon="21.63684649757111"><ele>159.16666666666666</ele><time>2026-05-03T13:47:06Z</time></trkpt><trkpt lat="51.46347851138401" lon="21.636724454012796"><ele>159.33333333333334</ele><time>2026-05-03T13:47:07Z</time></trkpt><trkpt lat="51.46349609959919" lon="21.63659404675423"><ele>159.5</ele><time>2026-05-03T13:47:08Z</time></trkpt><trkpt lat="51.463517563764626" lon="21.636462512226572"><ele>159.66666666666669</ele><time>2026-05-03T13:47:09Z</time></trkpt><trkpt lat="51.46354872066455" lon="21.636346120836762"><ele>159.83333333333334</ele><time>2026-05-03T13:47:10Z</time></trkpt><trkpt lat="51.463579688536974" lon="21.63625285222141"><ele>160.0</ele><time>2026-05-03T13:47:11Z</time></trkpt><trkpt lat="51.46361038503723" lon="21.636075604733897"><ele>160.14285714285714</ele><time>2026-05-03T13:47:13Z</time></trkpt><trkpt lat="51.46364136438247" lon="21.635982199999383"><ele>160.28571428571428</ele><time>2026-05-03T13:47:14Z</time></trkpt><trkpt lat="51.46366499312722" lon="21.63587166352012"><ele>160.42857142857144</ele><time>2026-05-03T13:47:15Z</time></trkpt><trkpt lat="51.46368782608553" lon="21.635765749942987"><ele>160.57142857142856</ele><time>2026-05-03T13:47:16Z</time></trkpt><trkpt lat="51.463709337152395" lon="21.63565777899083"><ele>160.71428571428572</ele><time>2026-05-03T13:47:17Z</time></trkpt><trkpt lat="51.463736601517" lon="21.635548284432222"><ele>160.85714285714286</ele><time>2026-05-03T13:47:18Z</time></trkpt><trkpt lat="51.46376496768354" lon="21.635427220880402"><ele>161.0</ele><time>2026-05-03T13:47:19Z</time></trkpt><trkpt lat="51.463794355489235" lon="21.63529935996132"><ele>161.0</ele><time>2026-05-03T13:47:20Z</time></trkpt><trkpt lat="51.46382515789284" lon="21.63517070413403"><ele>161.0</ele><time>2026-05-03T13:47:21Z</time></trkpt><trkpt lat="51.463849447336386" lon="21.635049232757897"><ele>161.0</ele><time>2026-05-03T13:47:22Z</time></trkpt><trkpt lat="51.463882883745704" lon="21.63492778023313"><ele>161.0</ele><time>2026-05-03T13:47:23Z</time></trkpt><trkpt lat="51.46392436058139" lon="21.634805855411543"><ele>161.0</ele><time>2026-05-03T13:47:24Z</time></trkpt><trkpt lat="51.46396583658715" lon="21.634671470440804"><ele>161.0</ele><time>2026-05-03T13:47:25Z</time></trkpt><trkpt lat="51.464002895065704" lon="21.63455163436121"><ele>161.0</ele><time>2026-05-03T13:47:26Z</time></trkpt><trkpt lat="51.46402921635293" lon="21.63443501942069"><ele>161.0</ele><time>2026-05-03T13:47:27Z</time></trkpt><trkpt lat="51.464051385089064" lon="21.63430430863932"><ele>161.0</ele><time>2026-05-03T13:47:28Z</time></trkpt><trkpt lat="51.464079738921086" lon="21.63418526253223"><ele>161.0</ele><time>2026-05-03T13:47:29Z</time></trkpt><trkpt lat="51.46411089829387" lon="21.63405961392044"><ele>161.0</ele><time>2026-05-03T13:47:30Z</time></trkpt><trkpt lat="51.464138734870495" lon="21.633937683737805"><ele>161.0</ele><time>2026-05-03T13:47:31Z</time></trkpt><trkpt lat="51.46416760318403" lon="21.633814196881698"><ele>161.0</ele><time>2026-05-03T13:47:32Z</time></trkpt><trkpt lat="51.464190525972086" lon="21.633699479091554"><ele>161.0</ele><time>2026-05-03T13:47:33Z</time></trkpt><trkpt lat="51.46421245314651" lon="21.633604595866895"><ele>161.0</ele><time>2026-05-03T13:47:34Z</time></trkpt><trkpt lat="51.464227110238404" lon="21.633501271338506"><ele>161.0</ele><time>2026-05-03T13:47:35Z</time></trkpt><trkpt lat="51.4642454085317" lon="21.633385535576878"><ele>161.0</ele><time>2026-05-03T13:47:36Z</time></trkpt><trkpt lat="51.46426752175524" lon="21.63327331314103"><ele>161.0</ele><time>2026-05-03T13:47:37Z</time></trkpt><trkpt lat="51.464281761514634" lon="21.633151784377162"><ele>161.0</ele><time>2026-05-03T13:47:38Z</time></trkpt><trkpt lat="51.464311415378035" lon="21.633028457274374"><ele>161.16666666666666</ele><time>2026-05-03T13:47:39Z</time></trkpt><trkpt lat="51.464337276311596" lon="21.63291374924476"><ele>161.33333333333331</ele><time>2026-05-03T13:47:40Z</time></trkpt><trkpt lat="51.46435880591452" lon="21.632798490309984"><ele>161.5</ele><time>2026-05-03T13:47:41Z</time></trkpt><trkpt lat="51.46441988209682" lon="21.63259232435853"><ele>161.66666666666666</ele><time>2026-05-03T13:47:43Z</time></trkpt><trkpt lat="51.464443047146524" lon="21.632495888794786"><ele>161.83333333333334</ele><time>2026-05-03T13:47:44Z</time></trkpt><trkpt lat="51.464469867037735" lon="21.632403133524924"><ele>162.0</ele><time>2026-05-03T13:47:45Z</time></trkpt><trkpt lat="51.46447924352702" lon="21.63229249948786"><ele>162.0</ele><time>2026-05-03T13:47:46Z</time></trkpt><trkpt lat="51.46453638431559" lon="21.632100060468026"><ele>162.0</ele><time>2026-05-03T13:47:47Z</time></trkpt><trkpt lat="51.46458275192163" lon="21.6319732160623"><ele>162.0</ele><time>2026-05-03T13:47:48Z</time></trkpt><trkpt lat="51.46462130804566" lon="21.631867700522115"><ele>162.0</ele><time>2026-05-03T13:47:49Z</time></trkpt><trkpt lat="51.46466533459948" lon="21.631745864914272"><ele>162.0</ele><time>2026-05-03T13:47:50Z</time></trkpt><trkpt lat="51.464706987123805" lon="21.63163504193761"><ele>161.83333333333334</ele><time>2026-05-03T13:47:51Z</time></trkpt><trkpt lat="51.46474862882723" lon="21.631506689977364"><ele>161.66666666666666</ele><time>2026-05-03T13:47:52Z</time></trkpt><trkpt lat="51.46477170252818" lon="21.631378938368307"><ele>161.5</ele><time>2026-05-03T13:47:53Z</time></trkpt><trkpt lat="51.46480235238429" lon="21.63125754585822"><ele>161.33333333333331</ele><time>2026-05-03T13:47:54Z</time></trkpt><trkpt lat="51.46483201418184" lon="21.631143509797543"><ele>161.16666666666666</ele><time>2026-05-03T13:47:55Z</time></trkpt><trkpt lat="51.4648490172584" lon="21.63101383322346"><ele>161.0</ele><time>2026-05-03T13:47:56Z</time></trkpt><trkpt lat="51.464868698965134" lon="21.630895405697924"><ele>160.83333333333331</ele><time>2026-05-03T13:47:57Z</time></trkpt><trkpt lat="51.464888696092345" lon="21.630772687139814"><ele>160.66666666666666</ele><time>2026-05-03T13:47:58Z</time></trkpt><trkpt lat="51.464910586432055" lon="21.63065494148907"><ele>160.5</ele><time>2026-05-03T13:47:59Z</time></trkpt><trkpt lat="51.4649202817018" lon="21.630528616731773"><ele>160.33333333333334</ele><time>2026-05-03T13:48:00Z</time></trkpt><trkpt lat="51.46493107383166" lon="21.630407067825757"><ele>160.16666666666669</ele><time>2026-05-03T13:48:01Z</time></trkpt><trkpt lat="51.46494325371902" lon="21.630294335061677"><ele>160.0</ele><time>2026-05-03T13:48:02Z</time></trkpt><trkpt lat="51.4649725445773" lon="21.630183060637084"><ele>160.0</ele><time>2026-05-03T13:48:03Z</time></trkpt><trkpt lat="51.46500661855139" lon="21.63007685727599"><ele>160.0</ele><time>2026-05-03T13:48:04Z</time></trkpt><trkpt lat="51.4650404824399" lon="21.629971131025012"><ele>160.0</ele><time>2026-05-03T13:48:05Z</time></trkpt><trkpt lat="51.46506931718126" lon="21.629863546940943"><ele>160.0</ele><time>2026-05-03T13:48:06Z</time></trkpt><trkpt lat="51.46509254913764" lon="21.629760699553486"><ele>160.0</ele><time>2026-05-03T13:48:07Z</time></trkpt><trkpt lat="51.46512605587581" lon="21.629586581005043"><ele>160.0</ele><time>2026-05-03T13:48:09Z</time></trkpt><trkpt lat="51.46514364362634" lon="21.62941262325484"><ele>160.0</ele><time>2026-05-03T13:48:11Z</time></trkpt><trkpt lat="51.46515268143844" lon="21.629302066521205"><ele>160.0</ele><time>2026-05-03T13:48:31Z</time></trkpt><trkpt lat="51.46521087257383" lon="21.629263045533555"><ele>160.0</ele><time>2026-05-03T13:48:33.001Z</time></trkpt><trkpt lat="51.46533129442864" lon="21.629196602504827"><ele>160.0</ele><time>2026-05-03T13:48:35.001Z</time></trkpt><trkpt lat="51.46542773807267" lon="21.629136905707348"><ele>160.0</ele><time>2026-05-03T13:48:36.001Z</time></trkpt><trkpt lat="51.46552956101356" lon="21.629063144458343"><ele>159.75</ele><time>2026-05-03T13:48:37.001Z</time></trkpt><trkpt lat="51.46564782236719" lon="21.629030844261703"><ele>159.5</ele><time>2026-05-03T13:48:38.001Z</time></trkpt><trkpt lat="51.46577492409626" lon="21.628951024439758"><ele>159.25</ele><time>2026-05-03T13:48:39.001Z</time></trkpt><trkpt lat="51.465911718569615" lon="21.628880163272157"><ele>159.0</ele><time>2026-05-03T13:48:40.001Z</time></trkpt><trkpt lat="51.46604166605776" lon="21.62878407148439"><ele>159.0</ele><time>2026-05-03T13:48:41.001Z</time></trkpt><trkpt lat="51.46619110071844" lon="21.628731677700177"><ele>159.0</ele><time>2026-05-03T13:48:42.001Z</time></trkpt><trkpt lat="51.466339182371804" lon="21.628672334283433"><ele>159.0</ele><time>2026-05-03T13:48:43.001Z</time></trkpt><trkpt lat="51.466486340575486" lon="21.62859678606063"><ele>159.33333333333334</ele><time>2026-05-03T13:48:44.001Z</time></trkpt><trkpt lat="51.466633780713344" lon="21.6284929637273"><ele>159.66666666666669</ele><time>2026-05-03T13:48:45.001Z</time></trkpt><trkpt lat="51.46678823343338" lon="21.628385114337508"><ele>160.0</ele><time>2026-05-03T13:48:46.001Z</time></trkpt><trkpt lat="51.4669372648025" lon="21.628292443834784"><ele>160.0</ele><time>2026-05-03T13:48:47Z</time></trkpt><trkpt lat="51.46707419494354" lon="21.628210409388295"><ele>160.0</ele><time>2026-05-03T13:48:48Z</time></trkpt><trkpt lat="51.46719489019984" lon="21.628139516179925"><ele>160.0</ele><time>2026-05-03T13:48:49Z</time></trkpt><trkpt lat="51.467301705112504" lon="21.628071532453788"><ele>160.0</ele><time>2026-05-03T13:48:50Z</time></trkpt><trkpt lat="51.467400729546576" lon="21.62800784473037"><ele>160.16666666666669</ele><time>2026-05-03T13:48:51Z</time></trkpt><trkpt lat="51.46747907450602" lon="21.627944221690544"><ele>160.33333333333334</ele><time>2026-05-03T13:48:52Z</time></trkpt><trkpt lat="51.467551449671404" lon="21.627890669943508"><ele>160.5</ele><time>2026-05-03T13:48:53Z</time></trkpt><trkpt lat="51.46762237254194" lon="21.62783396094964"><ele>160.66666666666666</ele><time>2026-05-03T13:48:54Z</time></trkpt><trkpt lat="51.467707550786386" lon="21.627779632485325"><ele>160.83333333333331</ele><time>2026-05-03T13:48:55Z</time></trkpt><trkpt lat="51.46778100965438" lon="21.627725644368613"><ele>161.0</ele><time>2026-05-03T13:48:56Z</time></trkpt><trkpt lat="51.46785052448008" lon="21.627708384759806"><ele>161.20000000000002</ele><time>2026-05-03T13:48:57Z</time></trkpt><trkpt lat="51.46792905943955" lon="21.62763428399767"><ele>161.4</ele><time>2026-05-03T13:48:59Z</time></trkpt><trkpt lat="51.46801126914855" lon="21.627583628840306"><ele>161.6</ele><time>2026-05-03T13:49:04Z</time></trkpt><trkpt lat="51.46809943968417" lon="21.627494305750297"><ele>161.8</ele><time>2026-05-03T13:49:06Z</time></trkpt><trkpt lat="51.46821302515331" lon="21.627461071959544"><ele>162.0</ele><time>2026-05-03T13:49:07Z</time></trkpt><trkpt lat="51.46833299010956" lon="21.627393012839896"><ele>162.0</ele><time>2026-05-03T13:49:08Z</time></trkpt><trkpt lat="51.468470125509654" lon="21.627340912428973"><ele>162.0</ele><time>2026-05-03T13:49:09Z</time></trkpt><trkpt lat="51.46860268262171" lon="21.627237587729546"><ele>162.0</ele><time>2026-05-03T13:49:10Z</time></trkpt><trkpt lat="51.468745544827975" lon="21.627154257040495"><ele>162.0</ele><time>2026-05-03T13:49:11Z</time></trkpt><trkpt lat="51.468888072291506" lon="21.62707054773669"><ele>162.33333333333334</ele><time>2026-05-03T13:49:12Z</time></trkpt><trkpt lat="51.46903275384926" lon="21.626986159803575"><ele>162.66666666666669</ele><time>2026-05-03T13:49:13Z</time></trkpt><trkpt lat="51.46917849758902" lon="21.62690406126325"><ele>163.0</ele><time>2026-05-03T13:49:14Z</time></trkpt><trkpt lat="51.46932421498523" lon="21.626829221584977"><ele>163.0</ele><time>2026-05-03T13:49:15Z</time></trkpt><trkpt lat="51.469474075986305" lon="21.626743443499386"><ele>163.0</ele><time>2026-05-03T13:49:16Z</time></trkpt><trkpt lat="51.46962509960099" lon="21.626657013508265"><ele>163.0</ele><time>2026-05-03T13:49:17Z</time></trkpt><trkpt lat="51.469774182894334" lon="21.62656614492849"><ele>162.66666666666669</ele><time>2026-05-03T13:49:18Z</time></trkpt><trkpt lat="51.46992760493515" lon="21.626474804072906"><ele>162.33333333333334</ele><time>2026-05-03T13:49:19Z</time></trkpt><trkpt lat="51.47008027488433" lon="21.62637993166978"><ele>162.0</ele><time>2026-05-03T13:49:20Z</time></trkpt><trkpt lat="51.470237855767536" lon="21.62628552231365"><ele>162.0</ele><time>2026-05-03T13:49:21Z</time></trkpt><trkpt lat="51.47039685724547" lon="21.626186178208826"><ele>162.0</ele><time>2026-05-03T13:49:22Z</time></trkpt><trkpt lat="51.4705556259186" lon="21.62609181354568"><ele>162.0</ele><time>2026-05-03T13:49:23Z</time></trkpt><trkpt lat="51.47071610194403" lon="21.6259943028801"><ele>161.33333333333334</ele><time>2026-05-03T13:49:24Z</time></trkpt><trkpt lat="51.470879159971446" lon="21.6258904724929"><ele>160.66666666666669</ele><time>2026-05-03T13:49:25Z</time></trkpt><trkpt lat="51.471038623355724" lon="21.62579327583891"><ele>160.0</ele><time>2026-05-03T13:49:26Z</time></trkpt><trkpt lat="51.47119041444861" lon="21.62570195430686"><ele>160.0</ele><time>2026-05-03T13:49:27Z</time></trkpt><trkpt lat="51.47133341048419" lon="21.625613674279325"><ele>160.0</ele><time>2026-05-03T13:49:28Z</time></trkpt><trkpt lat="51.47147419636602" lon="21.625532951212364"><ele>160.0</ele><time>2026-05-03T13:49:29Z</time></trkpt><trkpt lat="51.471605829235166" lon="21.625452799505165"><ele>160.0</ele><time>2026-05-03T13:49:30Z</time></trkpt><trkpt lat="51.471731365667914" lon="21.62537181765323"><ele>160.0</ele><time>2026-05-03T13:49:31Z</time></trkpt><trkpt lat="51.47185360215454" lon="21.625292606912524"><ele>160.0</ele><time>2026-05-03T13:49:32Z</time></trkpt><trkpt lat="51.47197320536078" lon="21.625220691114226"><ele>160.0</ele><time>2026-05-03T13:49:33Z</time></trkpt><trkpt lat="51.47208599367802" lon="21.625143087804986"><ele>160.0</ele><time>2026-05-03T13:49:34Z</time></trkpt><trkpt lat="51.47220071409247" lon="21.62507039697909"><ele>160.0</ele><time>2026-05-03T13:49:35Z</time></trkpt><trkpt lat="51.472307878998386" lon="21.62500196067791"><ele>160.0</ele><time>2026-05-03T13:49:36Z</time></trkpt><trkpt lat="51.472414510416414" lon="21.62493220646464"><ele>160.0</ele><time>2026-05-03T13:49:37Z</time></trkpt><trkpt lat="51.47252220030373" lon="21.624861312009628"><ele>160.0</ele><time>2026-05-03T13:49:38Z</time></trkpt><trkpt lat="51.47262879996237" lon="21.624789494819456"><ele>160.0</ele><time>2026-05-03T13:49:39Z</time></trkpt><trkpt lat="51.47274887171306" lon="21.62470246604844"><ele>160.0</ele><time>2026-05-03T13:49:40Z</time></trkpt><trkpt lat="51.472884439954505" lon="21.62462338469704"><ele>160.0</ele><time>2026-05-03T13:49:41Z</time></trkpt><trkpt lat="51.47303388612455" lon="21.62453907736526"><ele>160.0</ele><time>2026-05-03T13:49:42Z</time></trkpt><trkpt lat="51.473184357289014" lon="21.62446334176571"><ele>160.0</ele><time>2026-05-03T13:49:43Z</time></trkpt><trkpt lat="51.47333065341856" lon="21.62441765802659"><ele>160.0</ele><time>2026-05-03T13:49:44Z</time></trkpt><trkpt lat="51.47347378796453" lon="21.624379299463467"><ele>160.0</ele><time>2026-05-03T13:49:45Z</time></trkpt><trkpt lat="51.473602018573935" lon="21.62434789497682"><ele>160.0</ele><time>2026-05-03T13:49:46Z</time></trkpt><trkpt lat="51.473720260945484" lon="21.624336724041978"><ele>160.2</ele><time>2026-05-03T13:49:47Z</time></trkpt><trkpt lat="51.473830537080524" lon="21.62435506753105"><ele>160.4</ele><time>2026-05-03T13:49:48Z</time></trkpt><trkpt lat="51.47392402290539" lon="21.62440515764596"><ele>160.60000000000002</ele><time>2026-05-03T13:49:49Z</time></trkpt><trkpt lat="51.47399347515702" lon="21.62446855740513"><ele>160.8</ele><time>2026-05-03T13:49:50Z</time></trkpt><trkpt lat="51.4740686762418" lon="21.62458013907234"><ele>161.0</ele><time>2026-05-03T13:49:51Z</time></trkpt><trkpt lat="51.474138834449825" lon="21.62470226203055"><ele>161.0</ele><time>2026-05-03T13:49:52Z</time></trkpt><trkpt lat="51.47422702334447" lon="21.62483529301141"><ele>161.0</ele><time>2026-05-03T13:49:53Z</time></trkpt><trkpt lat="51.474329738270995" lon="21.624946758366235"><ele>161.0</ele><time>2026-05-03T13:49:54Z</time></trkpt><trkpt lat="51.4744459509571" lon="21.625028612018035"><ele>161.0</ele><time>2026-05-03T13:49:55Z</time></trkpt><trkpt lat="51.4745815586755" lon="21.625093561960846"><ele>160.33333333333331</ele><time>2026-05-03T13:49:56Z</time></trkpt><trkpt lat="51.47472475115777" lon="21.625133829018566"><ele>159.66666666666666</ele><time>2026-05-03T13:49:57Z</time></trkpt><trkpt lat="51.474875006910274" lon="21.625175488450047"><ele>159.0</ele><time>2026-05-03T13:49:58Z</time></trkpt><trkpt lat="51.47502744027919" lon="21.62522535905694"><ele>159.0</ele><time>2026-05-03T13:49:59Z</time></trkpt><trkpt lat="51.47516532442644" lon="21.625290939294523"><ele>159.0</ele><time>2026-05-03T13:50:00Z</time></trkpt><trkpt lat="51.47528590854477" lon="21.625377315832722"><ele>159.0</ele><time>2026-05-03T13:50:01Z</time></trkpt><trkpt lat="51.4753959184958" lon="21.625458868995732"><ele>159.0</ele><time>2026-05-03T13:50:02Z</time></trkpt><trkpt lat="51.47549266395681" lon="21.62553605847449"><ele>159.5</ele><time>2026-05-03T13:50:03Z</time></trkpt><trkpt lat="51.47558164346567" lon="21.62560058947204"><ele>160.0</ele><time>2026-05-03T13:50:04Z</time></trkpt><trkpt lat="51.47565508857187" lon="21.625661088944987"><ele>160.5</ele><time>2026-05-03T13:50:05Z</time></trkpt><trkpt lat="51.47571710621819" lon="21.62571048356746"><ele>161.0</ele><time>2026-05-03T13:50:06Z</time></trkpt><trkpt lat="51.47578232057079" lon="21.625797691956702"><ele>161.5</ele><time>2026-05-03T13:50:08Z</time></trkpt><trkpt lat="51.47573645770372" lon="21.625964518897973"><ele>162.0</ele><time>2026-05-03T13:50:10Z</time></trkpt><trkpt lat="51.47565741072837" lon="21.62606965273802"><ele>162.0</ele><time>2026-05-03T13:50:11Z</time></trkpt><trkpt lat="51.47558267585479" lon="21.62620037386242"><ele>162.0</ele><time>2026-05-03T13:50:12Z</time></trkpt><trkpt lat="51.47551194216049" lon="21.626370707838017"><ele>162.0</ele><time>2026-05-03T13:50:13Z</time></trkpt><trkpt lat="51.47541067936214" lon="21.62651985988849"><ele>162.0</ele><time>2026-05-03T13:50:14Z</time></trkpt><trkpt lat="51.475309958934616" lon="21.62668939916345"><ele>162.0</ele><time>2026-05-03T13:50:15Z</time></trkpt><trkpt lat="51.47519960475836" lon="21.62687189876127"><ele>162.0</ele><time>2026-05-03T13:50:16Z</time></trkpt><trkpt lat="51.47509584599612" lon="21.62707255425998"><ele>162.0</ele><time>2026-05-03T13:50:17Z</time></trkpt><trkpt lat="51.47497303156823" lon="21.627258584767198"><ele>161.66666666666666</ele><time>2026-05-03T13:50:18Z</time></trkpt><trkpt lat="51.474855199182365" lon="21.62745914019028"><ele>161.33333333333331</ele><time>2026-05-03T13:50:19Z</time></trkpt><trkpt lat="51.47473115566118" lon="21.62767485365876"><ele>161.0</ele><time>2026-05-03T13:50:20Z</time></trkpt><trkpt lat="51.47460555830377" lon="21.627896162900694"><ele>161.0</ele><time>2026-05-03T13:50:21Z</time></trkpt><trkpt lat="51.474481769556405" lon="21.628121621382338"><ele>161.0</ele><time>2026-05-03T13:50:22Z</time></trkpt><trkpt lat="51.4743616428746" lon="21.628330384493335"><ele>161.0</ele><time>2026-05-03T13:50:23Z</time></trkpt><trkpt lat="51.474257702697514" lon="21.62852418719983"><ele>161.0</ele><time>2026-05-03T13:50:24Z</time></trkpt><trkpt lat="51.47416480073873" lon="21.62876774387585"><ele>161.0</ele><time>2026-05-03T13:50:25Z</time></trkpt><trkpt lat="51.474084122833965" lon="21.629027925267522"><ele>161.0</ele><time>2026-05-03T13:50:26Z</time></trkpt><trkpt lat="51.47398632007866" lon="21.629283919011225"><ele>160.66666666666666</ele><time>2026-05-03T13:50:27Z</time></trkpt><trkpt lat="51.47389851597521" lon="21.629554707452943"><ele>160.33333333333334</ele><time>2026-05-03T13:50:28Z</time></trkpt><trkpt lat="51.47380699384761" lon="21.62983652133635"><ele>160.0</ele><time>2026-05-03T13:50:29Z</time></trkpt><trkpt lat="51.47370620254497" lon="21.630115135080562"><ele>160.33333333333334</ele><time>2026-05-03T13:50:30Z</time></trkpt><trkpt lat="51.473610431545076" lon="21.630370594995366"><ele>160.66666666666666</ele><time>2026-05-03T13:50:31Z</time></trkpt><trkpt lat="51.47353259748877" lon="21.63064194168546"><ele>161.0</ele><time>2026-05-03T13:50:32Z</time></trkpt><trkpt lat="51.473465944243785" lon="21.63093277328315"><ele>161.0</ele><time>2026-05-03T13:50:33Z</time></trkpt><trkpt lat="51.473409649611234" lon="21.631224913159993"><ele>161.0</ele><time>2026-05-03T13:50:34Z</time></trkpt><trkpt lat="51.47333932671033" lon="21.631512630207165"><ele>161.0</ele><time>2026-05-03T13:50:35Z</time></trkpt><trkpt lat="51.473269473004336" lon="21.631812140051526"><ele>161.0</ele><time>2026-05-03T13:50:36Z</time></trkpt><trkpt lat="51.47319789620214" lon="21.632117106602934"><ele>161.0</ele><time>2026-05-03T13:50:37Z</time></trkpt><trkpt lat="51.47313218629635" lon="21.63243129962176"><ele>161.0</ele><time>2026-05-03T13:50:38Z</time></trkpt><trkpt lat="51.473068080436164" lon="21.63273970417841"><ele>161.0</ele><time>2026-05-03T13:50:39Z</time></trkpt><trkpt lat="51.4730046250768" lon="21.633040025911928"><ele>161.0</ele><time>2026-05-03T13:50:40Z</time></trkpt><trkpt lat="51.47293824404643" lon="21.63333257333977"><ele>161.0</ele><time>2026-05-03T13:50:41Z</time></trkpt><trkpt lat="51.47286962085202" lon="21.63363333709793"><ele>161.33333333333331</ele><time>2026-05-03T13:50:42Z</time></trkpt><trkpt lat="51.47280396382791" lon="21.633940385136214"><ele>161.66666666666666</ele><time>2026-05-03T13:50:43Z</time></trkpt><trkpt lat="51.47273819738614" lon="21.634245396854162"><ele>162.0</ele><time>2026-05-03T13:50:44Z</time></trkpt><trkpt lat="51.47266778426567" lon="21.634530753797776"><ele>162.0</ele><time>2026-05-03T13:50:45Z</time></trkpt><trkpt lat="51.472595392131986" lon="21.6348263230503"><ele>162.0</ele><time>2026-05-03T13:50:46Z</time></trkpt><trkpt lat="51.472519115804495" lon="21.635139068286176"><ele>162.0</ele><time>2026-05-03T13:50:47Z</time></trkpt><trkpt lat="51.47244737611654" lon="21.63543584039891"><ele>161.66666666666666</ele><time>2026-05-03T13:50:48Z</time></trkpt><trkpt lat="51.47238829841241" lon="21.635707958757695"><ele>161.33333333333331</ele><time>2026-05-03T13:50:49Z</time></trkpt><trkpt lat="51.472345524393056" lon="21.635967934843197"><ele>161.0</ele><time>2026-05-03T13:50:50Z</time></trkpt><trkpt lat="51.47227725085147" lon="21.636222352925433"><ele>161.0</ele><time>2026-05-03T13:50:51Z</time></trkpt><trkpt lat="51.47221898001671" lon="21.63646706355475"><ele>161.0</ele><time>2026-05-03T13:50:52Z</time></trkpt><trkpt lat="51.472165127127035" lon="21.63669213676475"><ele>161.0</ele><time>2026-05-03T13:50:53Z</time></trkpt><trkpt lat="51.47210406645177" lon="21.636943993431654"><ele>161.0</ele><time>2026-05-03T13:50:54Z</time></trkpt><trkpt lat="51.472045957793036" lon="21.637184763885617"><ele>161.0</ele><time>2026-05-03T13:50:55Z</time></trkpt><trkpt lat="51.471977313149615" lon="21.637474889103903"><ele>161.0</ele><time>2026-05-03T13:50:56Z</time></trkpt><trkpt lat="51.471903227405306" lon="21.637792602545154"><ele>160.5</ele><time>2026-05-03T13:50:57Z</time></trkpt><trkpt lat="51.4718281911015" lon="21.638120581337944"><ele>160.0</ele><time>2026-05-03T13:50:58Z</time></trkpt><trkpt lat="51.47175065047309" lon="21.63848757211613"><ele>159.66666666666669</ele><time>2026-05-03T13:50:59Z</time></trkpt><trkpt lat="51.47170809109665" lon="21.638785740224183"><ele>159.33333333333334</ele><time>2026-05-03T13:51:00Z</time></trkpt><trkpt lat="51.47165106532189" lon="21.639051598824842"><ele>159.0</ele><time>2026-05-03T13:51:01Z</time></trkpt><trkpt lat="51.47159899589413" lon="21.63929741163087"><ele>159.0</ele><time>2026-05-03T13:51:02Z</time></trkpt><trkpt lat="51.47155189792517" lon="21.639527977579853"><ele>159.0</ele><time>2026-05-03T13:51:03Z</time></trkpt><trkpt lat="51.47149758334856" lon="21.639759628990788"><ele>159.0</ele><time>2026-05-03T13:51:04Z</time></trkpt><trkpt lat="51.47143132829911" lon="21.639990564105815"><ele>159.0</ele><time>2026-05-03T13:51:05Z</time></trkpt><trkpt lat="51.47137217925203" lon="21.64024085819571"><ele>159.0</ele><time>2026-05-03T13:51:06Z</time></trkpt><trkpt lat="51.4713025539802" lon="21.640498526348487"><ele>159.0</ele><time>2026-05-03T13:51:07Z</time></trkpt><trkpt lat="51.47123382416937" lon="21.64076395722743"><ele>158.66666666666666</ele><time>2026-05-03T13:51:08Z</time></trkpt><trkpt lat="51.471162756253804" lon="21.64104749659448"><ele>158.33333333333331</ele><time>2026-05-03T13:51:09Z</time></trkpt><trkpt lat="51.47109713539035" lon="21.641332639081455"><ele>158.0</ele><time>2026-05-03T13:51:10Z</time></trkpt><trkpt lat="51.47102739448365" lon="21.64162128782379"><ele>158.0</ele><time>2026-05-03T13:51:11Z</time></trkpt><trkpt lat="51.4709623733536" lon="21.641913040959057"><ele>158.0</ele><time>2026-05-03T13:51:12Z</time></trkpt><trkpt lat="51.470898621975984" lon="21.6421972575003"><ele>158.0</ele><time>2026-05-03T13:51:13Z</time></trkpt><trkpt lat="51.47083701982723" lon="21.642465296844332"><ele>157.66666666666666</ele><time>2026-05-03T13:51:14Z</time></trkpt><trkpt lat="51.470779246453056" lon="21.64272934253526"><ele>157.33333333333334</ele><time>2026-05-03T13:51:15Z</time></trkpt><trkpt lat="51.47072236945084" lon="21.64298198920909"><ele>157.0</ele><time>2026-05-03T13:51:16Z</time></trkpt><trkpt lat="51.47067280487124" lon="21.643214577783645"><ele>157.0</ele><time>2026-05-03T13:51:17Z</time></trkpt><trkpt lat="51.47062582510824" lon="21.643422161474273"><ele>157.0</ele><time>2026-05-03T13:51:18Z</time></trkpt><trkpt lat="51.47061043558477" lon="21.643637172096756"><ele>157.0</ele><time>2026-05-03T13:51:19Z</time></trkpt><trkpt lat="51.4705726865153" lon="21.64379649928475"><ele>157.0</ele><time>2026-05-03T13:51:20Z</time></trkpt><trkpt lat="51.470543013714" lon="21.643939183500354"><ele>156.79999999999998</ele><time>2026-05-03T13:51:21Z</time></trkpt><trkpt lat="51.470522448672185" lon="21.644039127094914"><ele>156.6</ele><time>2026-05-03T13:51:22Z</time></trkpt><trkpt lat="51.470490726955596" lon="21.644128929916747"><ele>156.39999999999998</ele><time>2026-05-03T13:51:24Z</time></trkpt><trkpt lat="51.47064821597208" lon="21.644262849618524"><ele>156.2</ele><time>2026-05-03T13:51:25Z</time></trkpt><trkpt lat="51.47074596150433" lon="21.644377466402958"><ele>156.0</ele><time>2026-05-03T13:51:26Z</time></trkpt><trkpt lat="51.470853510623286" lon="21.644523564371216"><ele>156.0</ele><time>2026-05-03T13:51:27Z</time></trkpt><trkpt lat="51.4709720788804" lon="21.644685479511057"><ele>156.0</ele><time>2026-05-03T13:51:28Z</time></trkpt><trkpt lat="51.47110657662689" lon="21.644860508883728"><ele>156.0</ele><time>2026-05-03T13:51:29Z</time></trkpt><trkpt lat="51.47124660849342" lon="21.64504361616435"><ele>155.66666666666666</ele><time>2026-05-03T13:51:30Z</time></trkpt><trkpt lat="51.47138640881298" lon="21.64523605658998"><ele>155.33333333333331</ele><time>2026-05-03T13:51:31Z</time></trkpt><trkpt lat="51.471525148842794" lon="21.645431586707105"><ele>155.0</ele><time>2026-05-03T13:51:32Z</time></trkpt><trkpt lat="51.47166747468686" lon="21.64565504361055"><ele>155.0</ele><time>2026-05-03T13:51:33Z</time></trkpt><trkpt lat="51.47180864792599" lon="21.64585542239526"><ele>155.0</ele><time>2026-05-03T13:51:34Z</time></trkpt><trkpt lat="51.471950758701595" lon="21.6460488440401"><ele>155.0</ele><time>2026-05-03T13:51:35Z</time></trkpt><trkpt lat="51.47208696249201" lon="21.646248879380202"><ele>155.66666666666666</ele><time>2026-05-03T13:51:36Z</time></trkpt><trkpt lat="51.47222413631717" lon="21.646432480630413"><ele>156.33333333333334</ele><time>2026-05-03T13:51:37Z</time></trkpt><trkpt lat="51.472365903600654" lon="21.646616312956642"><ele>157.0</ele><time>2026-05-03T13:51:38Z</time></trkpt><trkpt lat="51.472501745775794" lon="21.646799043659282"><ele>157.0</ele><time>2026-05-03T13:51:39Z</time></trkpt><trkpt lat="51.472640239910774" lon="21.646977592936818"><ele>157.0</ele><time>2026-05-03T13:51:40Z</time></trkpt><trkpt lat="51.4727721974859" lon="21.647151458939355"><ele>157.0</ele><time>2026-05-03T13:51:41Z</time></trkpt><trkpt lat="51.47289706308282" lon="21.647318617183522"><ele>157.66666666666669</ele><time>2026-05-03T13:51:42Z</time></trkpt><trkpt lat="51.47301823253958" lon="21.647478621826703"><ele>158.33333333333334</ele><time>2026-05-03T13:51:43Z</time></trkpt><trkpt lat="51.473136610993784" lon="21.6476309334859"><ele>159.0</ele><time>2026-05-03T13:51:44Z</time></trkpt><trkpt lat="51.473252384842134" lon="21.64778192918321"><ele>159.0</ele><time>2026-05-03T13:51:45Z</time></trkpt><trkpt lat="51.47336545479159" lon="21.647931157529165"><ele>159.0</ele><time>2026-05-03T13:51:46Z</time></trkpt><trkpt lat="51.4734755655768" lon="21.648077810667765"><ele>159.0</ele><time>2026-05-03T13:51:47Z</time></trkpt><trkpt lat="51.47358454977195" lon="21.648221494727785"><ele>159.0</ele><time>2026-05-03T13:51:48Z</time></trkpt><trkpt lat="51.47368810818925" lon="21.648363577528944"><ele>158.75</ele><time>2026-05-03T13:51:49Z</time></trkpt><trkpt lat="51.47378809707869" lon="21.648507421244098"><ele>158.5</ele><time>2026-05-03T13:51:50Z</time></trkpt><trkpt lat="51.47388986552627" lon="21.648648454920185"><ele>158.25</ele><time>2026-05-03T13:51:51Z</time></trkpt><trkpt lat="51.473991533848334" lon="21.648780955869817"><ele>158.0</ele><time>2026-05-03T13:51:52Z</time></trkpt><trkpt lat="51.47409197431021" lon="21.648909687528345"><ele>157.8</ele><time>2026-05-03T13:51:53Z</time></trkpt><trkpt lat="51.47418675392131" lon="21.649035463605397"><ele>157.60000000000002</ele><time>2026-05-03T13:51:54Z</time></trkpt><trkpt lat="51.47427494641856" lon="21.649152531553728"><ele>157.39999999999998</ele><time>2026-05-03T13:51:55Z</time></trkpt><trkpt lat="51.474350769736304" lon="21.649268842058795"><ele>157.2</ele><time>2026-05-03T13:51:56Z</time></trkpt><trkpt lat="51.474423166491796" lon="21.64935832891243"><ele>157.0</ele><time>2026-05-03T13:51:57Z</time></trkpt><trkpt lat="51.47449539059198" lon="21.649452324077217"><ele>157.16666666666669</ele><time>2026-05-03T13:51:58Z</time></trkpt><trkpt lat="51.47456062792042" lon="21.64954926944653"><ele>157.33333333333334</ele><time>2026-05-03T13:51:59Z</time></trkpt><trkpt lat="51.47461738606459" lon="21.649625716189785"><ele>157.5</ele><time>2026-05-03T13:52:00Z</time></trkpt><trkpt lat="51.47469600801766" lon="21.649733542819607"><ele>157.66666666666666</ele><time>2026-05-03T13:52:02Z</time></trkpt><trkpt lat="51.47474525041773" lon="21.64981312292263"><ele>157.83333333333331</ele><time>2026-05-03T13:52:05Z</time></trkpt><trkpt lat="51.47480836829844" lon="21.649880972649328"><ele>158.0</ele><time>2026-05-03T13:52:08Z</time></trkpt><trkpt lat="51.47487569648683" lon="21.649968158038835"><ele>158.0</ele><time>2026-05-03T13:52:09Z</time></trkpt><trkpt lat="51.474952665604654" lon="21.65009498451681"><ele>158.0</ele><time>2026-05-03T13:52:10Z</time></trkpt><trkpt lat="51.475045272592524" lon="21.650216245096914"><ele>158.0</ele><time>2026-05-03T13:52:11Z</time></trkpt><trkpt lat="51.475143063281955" lon="21.650342013619483"><ele>158.0</ele><time>2026-05-03T13:52:12Z</time></trkpt><trkpt lat="51.475240629413406" lon="21.65045701593496"><ele>158.0</ele><time>2026-05-03T13:52:13Z</time></trkpt><trkpt lat="51.47533615052751" lon="21.650568481244786"><ele>158.0</ele><time>2026-05-03T13:52:14Z</time></trkpt><trkpt lat="51.47544145938368" lon="21.65070967317676"><ele>158.0</ele><time>2026-05-03T13:52:15Z</time></trkpt><trkpt lat="51.475551361813" lon="21.65086155135319"><ele>158.0</ele><time>2026-05-03T13:52:16Z</time></trkpt><trkpt lat="51.47567204452439" lon="21.65101442624325"><ele>158.0</ele><time>2026-05-03T13:52:17Z</time></trkpt><trkpt lat="51.47579885144735" lon="21.651162574456478"><ele>158.0</ele><time>2026-05-03T13:52:18Z</time></trkpt><trkpt lat="51.475924316977924" lon="21.651325665081796"><ele>158.0</ele><time>2026-05-03T13:52:19Z</time></trkpt><trkpt lat="51.476055701321464" lon="21.651495642240974"><ele>158.0</ele><time>2026-05-03T13:52:20Z</time></trkpt><trkpt lat="51.476174523643216" lon="21.651660172215802"><ele>158.0</ele><time>2026-05-03T13:52:21Z</time></trkpt><trkpt lat="51.47628614574944" lon="21.651817489287076"><ele>158.0</ele><time>2026-05-03T13:52:22Z</time></trkpt><trkpt lat="51.47639695777766" lon="21.651971734552518"><ele>157.5</ele><time>2026-05-03T13:52:23Z</time></trkpt><trkpt lat="51.476508987482156" lon="21.652127596185455"><ele>157.0</ele><time>2026-05-03T13:52:24Z</time></trkpt><trkpt lat="51.47661537856449" lon="21.652276024328547"><ele>156.5</ele><time>2026-05-03T13:52:25Z</time></trkpt><trkpt lat="51.47672372385715" lon="21.652419673363138"><ele>156.0</ele><time>2026-05-03T13:52:26Z</time></trkpt><trkpt lat="51.47682719529679" lon="21.65255996920191"><ele>156.0</ele><time>2026-05-03T13:52:27Z</time></trkpt><trkpt lat="51.476936519859514" lon="21.652701974079434"><ele>156.0</ele><time>2026-05-03T13:52:28Z</time></trkpt><trkpt lat="51.47704360200214" lon="21.652838772154094"><ele>156.0</ele><time>2026-05-03T13:52:29Z</time></trkpt><trkpt lat="51.47714600768193" lon="21.652980446690457"><ele>156.0</ele><time>2026-05-03T13:52:30Z</time></trkpt><trkpt lat="51.47724751626729" lon="21.65312995339167"><ele>156.25</ele><time>2026-05-03T13:52:31Z</time></trkpt><trkpt lat="51.47735437065242" lon="21.653279067128853"><ele>156.5</ele><time>2026-05-03T13:52:32Z</time></trkpt><trkpt lat="51.47745700045752" lon="21.65342153973893"><ele>156.75</ele><time>2026-05-03T13:52:33Z</time></trkpt><trkpt lat="51.47756301004033" lon="21.653560995357154"><ele>157.0</ele><time>2026-05-03T13:52:34Z</time></trkpt><trkpt lat="51.477675225539976" lon="21.65368020037108"><ele>156.5</ele><time>2026-05-03T13:52:35Z</time></trkpt><trkpt lat="51.47778092326277" lon="21.65381141157933"><ele>156.0</ele><time>2026-05-03T13:52:36Z</time></trkpt><trkpt lat="51.477885423498684" lon="21.65395329510789"><ele>155.5</ele><time>2026-05-03T13:52:37Z</time></trkpt><trkpt lat="51.477994847533736" lon="21.654108203819284"><ele>155.0</ele><time>2026-05-03T13:52:38Z</time></trkpt><trkpt lat="51.47812095439308" lon="21.654274137898"><ele>155.0</ele><time>2026-05-03T13:52:39Z</time></trkpt><trkpt lat="51.478247813261554" lon="21.65445126047572"><ele>155.0</ele><time>2026-05-03T13:52:40Z</time></trkpt><trkpt lat="51.47839039984522" lon="21.65464041599468"><ele>155.0</ele><time>2026-05-03T13:52:41Z</time></trkpt><trkpt lat="51.4785389187439" lon="21.654831347928926"><ele>154.66666666666666</ele><time>2026-05-03T13:52:42Z</time></trkpt><trkpt lat="51.47868592477559" lon="21.65502426657294"><ele>154.33333333333334</ele><time>2026-05-03T13:52:43Z</time></trkpt><trkpt lat="51.47882910690648" lon="21.65521932810041"><ele>154.0</ele><time>2026-05-03T13:52:44Z</time></trkpt><trkpt lat="51.47897377502442" lon="21.655408325988247"><ele>153.33333333333334</ele><time>2026-05-03T13:52:45Z</time></trkpt><trkpt lat="51.47911332731899" lon="21.655599214706307"><ele>152.66666666666666</ele><time>2026-05-03T13:52:46Z</time></trkpt><trkpt lat="51.479253892094505" lon="21.655784014730827"><ele>152.0</ele><time>2026-05-03T13:52:47Z</time></trkpt><trkpt lat="51.47939348407479" lon="21.655967087222876"><ele>151.33333333333331</ele><time>2026-05-03T13:52:48Z</time></trkpt><trkpt lat="51.47952885489912" lon="21.656152811133083"><ele>150.66666666666666</ele><time>2026-05-03T13:52:49Z</time></trkpt><trkpt lat="51.479662038892414" lon="21.65633911563203"><ele>150.0</ele><time>2026-05-03T13:52:50Z</time></trkpt><trkpt lat="51.479794340575516" lon="21.656525100268553"><ele>150.0</ele><time>2026-05-03T13:52:51Z</time></trkpt><trkpt lat="51.47993068633191" lon="21.656717115982133"><ele>150.0</ele><time>2026-05-03T13:52:52Z</time></trkpt><trkpt lat="51.48007670652221" lon="21.656921355425865"><ele>150.0</ele><time>2026-05-03T13:52:53Z</time></trkpt><trkpt lat="51.48023045557879" lon="21.657133691605956"><ele>149.33333333333334</ele><time>2026-05-03T13:52:54Z</time></trkpt><trkpt lat="51.48038688532142" lon="21.657350286278483"><ele>148.66666666666669</ele><time>2026-05-03T13:52:55Z</time></trkpt><trkpt lat="51.48054634228657" lon="21.65755936572173"><ele>148.0</ele><time>2026-05-03T13:52:56Z</time></trkpt><trkpt lat="51.48069875884228" lon="21.657759277294502"><ele>146.66666666666669</ele><time>2026-05-03T13:52:57Z</time></trkpt><trkpt lat="51.480856612116796" lon="21.657959802407305"><ele>145.33333333333334</ele><time>2026-05-03T13:52:58Z</time></trkpt><trkpt lat="51.48101140169583" lon="21.658163161674644"><ele>144.0</ele><time>2026-05-03T13:52:59Z</time></trkpt><trkpt lat="51.481162232700235" lon="21.658360305021972"><ele>144.0</ele><time>2026-05-03T13:53:00Z</time></trkpt><trkpt lat="51.48131305427228" lon="21.658551991625615"><ele>144.0</ele><time>2026-05-03T13:53:01Z</time></trkpt><trkpt lat="51.48146028438251" lon="21.658733834509025"><ele>144.0</ele><time>2026-05-03T13:53:02Z</time></trkpt><trkpt lat="51.48159735723585" lon="21.658905441403984"><ele>143.33333333333334</ele><time>2026-05-03T13:53:03Z</time></trkpt><trkpt lat="51.48173056945733" lon="21.65907828060823"><ele>142.66666666666669</ele><time>2026-05-03T13:53:04Z</time></trkpt><trkpt lat="51.481859815323006" lon="21.659254490121107"><ele>142.0</ele><time>2026-05-03T13:53:05Z</time></trkpt><trkpt lat="51.481983973705624" lon="21.659428761704653"><ele>142.0</ele><time>2026-05-03T13:53:06Z</time></trkpt><trkpt lat="51.48210417766793" lon="21.659595116857865"><ele>142.0</ele><time>2026-05-03T13:53:07Z</time></trkpt><trkpt lat="51.48222106830642" lon="21.65974914890574"><ele>142.0</ele><time>2026-05-03T13:53:08Z</time></trkpt><trkpt lat="51.482336708316026" lon="21.659896331915796"><ele>142.0</ele><time>2026-05-03T13:53:09Z</time></trkpt><trkpt lat="51.48244957664002" lon="21.66004091431357"><ele>142.0</ele><time>2026-05-03T13:53:10Z</time></trkpt><trkpt lat="51.48255450115872" lon="21.660177735400783"><ele>142.0</ele><time>2026-05-03T13:53:11Z</time></trkpt><trkpt lat="51.48265760885807" lon="21.660315280229327"><ele>142.0</ele><time>2026-05-03T13:53:12Z</time></trkpt><trkpt lat="51.482754891870314" lon="21.660438661828753"><ele>142.2</ele><time>2026-05-03T13:53:13Z</time></trkpt><trkpt lat="51.48284268580851" lon="21.660548334252788"><ele>142.39999999999998</ele><time>2026-05-03T13:53:14Z</time></trkpt><trkpt lat="51.482916346072706" lon="21.660636493210777"><ele>142.60000000000002</ele><time>2026-05-03T13:53:15Z</time></trkpt><trkpt lat="51.482976971486586" lon="21.660712812435893"><ele>142.8</ele><time>2026-05-03T13:53:16Z</time></trkpt><trkpt lat="51.48304627956034" lon="21.660838892282047"><ele>143.0</ele><time>2026-05-03T13:53:18Z</time></trkpt><trkpt lat="51.48297955021502" lon="21.660929548308456"><ele>141.75</ele><time>2026-05-03T13:53:20Z</time></trkpt><trkpt lat="51.48290364567968" lon="21.66102976124439"><ele>140.5</ele><time>2026-05-03T13:53:21Z</time></trkpt><trkpt lat="51.482816705738806" lon="21.66114455648996"><ele>139.25</ele><time>2026-05-03T13:53:22Z</time></trkpt><trkpt lat="51.48272464432129" lon="21.661283015966085"><ele>138.0</ele><time>2026-05-03T13:53:23Z</time></trkpt><trkpt lat="51.48261424583132" lon="21.6614224941273"><ele>137.66666666666666</ele><time>2026-05-03T13:53:24Z</time></trkpt><trkpt lat="51.4824997662257" lon="21.661576343905246"><ele>137.33333333333331</ele><time>2026-05-03T13:53:25Z</time></trkpt><trkpt lat="51.482377832739104" lon="21.661743221431305"><ele>137.0</ele><time>2026-05-03T13:53:26Z</time></trkpt><trkpt lat="51.482252388316745" lon="21.661934291959774"><ele>136.33333333333331</ele><time>2026-05-03T13:53:27Z</time></trkpt><trkpt lat="51.482126848184144" lon="21.662146662117053"><ele>135.66666666666666</ele><time>2026-05-03T13:53:28Z</time></trkpt><trkpt lat="51.48199613877009" lon="21.662371015744075"><ele>135.0</ele><time>2026-05-03T13:53:29Z</time></trkpt><trkpt lat="51.48185567565064" lon="21.662596232997913"><ele>135.0</ele><time>2026-05-03T13:53:30Z</time></trkpt><trkpt lat="51.481703911771895" lon="21.662808643478506"><ele>135.0</ele><time>2026-05-03T13:53:31Z</time></trkpt><trkpt lat="51.481546060912855" lon="21.663005153114135"><ele>135.0</ele><time>2026-05-03T13:53:32Z</time></trkpt><trkpt lat="51.481389792886475" lon="21.663195903424775"><ele>135.66666666666666</ele><time>2026-05-03T13:53:33Z</time></trkpt><trkpt lat="51.4812448656003" lon="21.663373002342396"><ele>136.33333333333331</ele><time>2026-05-03T13:53:34Z</time></trkpt><trkpt lat="51.481108628892514" lon="21.663520206739452"><ele>137.0</ele><time>2026-05-03T13:53:35Z</time></trkpt><trkpt lat="51.4809879529018" lon="21.663642147163394"><ele>137.0</ele><time>2026-05-03T13:53:36Z</time></trkpt><trkpt lat="51.48087557552658" lon="21.66374172091027"><ele>137.0</ele><time>2026-05-03T13:53:37Z</time></trkpt><trkpt lat="51.48077589552616" lon="21.66381020714629"><ele>137.0</ele><time>2026-05-03T13:53:38Z</time></trkpt><trkpt lat="51.48068548233566" lon="21.663867572833645"><ele>137.0</ele><time>2026-05-03T13:53:39Z</time></trkpt><trkpt lat="51.48059116698564" lon="21.663922478411173"><ele>137.0</ele><time>2026-05-03T13:53:40Z</time></trkpt><trkpt lat="51.480522865403174" lon="21.664110013752854"><ele>137.0</ele><time>2026-05-03T13:53:41Z</time></trkpt><trkpt lat="51.48043369336226" lon="21.66426389206768"><ele>137.0</ele><time>2026-05-03T13:53:42Z</time></trkpt><trkpt lat="51.48035622661027" lon="21.664409413870576"><ele>137.0</ele><time>2026-05-03T13:53:43Z</time></trkpt><trkpt lat="51.48027883329475" lon="21.66454194971411"><ele>137.0</ele><time>2026-05-03T13:53:44Z</time></trkpt><trkpt lat="51.48020661274692" lon="21.66468446258931"><ele>137.75</ele><time>2026-05-03T13:53:45Z</time></trkpt><trkpt lat="51.4801163327521" lon="21.66479663718173"><ele>138.5</ele><time>2026-05-03T13:53:46Z</time></trkpt><trkpt lat="51.480037589891914" lon="21.664927199820813"><ele>139.25</ele><time>2026-05-03T13:53:47Z</time></trkpt><trkpt lat="51.47995881059008" lon="21.66506145514429"><ele>140.0</ele><time>2026-05-03T13:53:48Z</time></trkpt><trkpt lat="51.47986184933325" lon="21.665195436108416"><ele>140.0</ele><time>2026-05-03T13:53:49Z</time></trkpt><trkpt lat="51.47977040993298" lon="21.66534100585789"><ele>140.0</ele><time>2026-05-03T13:53:50Z</time></trkpt><trkpt lat="51.47967624437916" lon="21.665497374142234"><ele>140.0</ele><time>2026-05-03T13:53:51Z</time></trkpt><trkpt lat="51.47957839846655" lon="21.66567033105884"><ele>140.0</ele><time>2026-05-03T13:53:52Z</time></trkpt><trkpt lat="51.47948381064257" lon="21.665809094777853"><ele>140.0</ele><time>2026-05-03T13:53:53Z</time></trkpt><trkpt lat="51.47941120763515" lon="21.665946741386946"><ele>140.0</ele><time>2026-05-03T13:53:54Z</time></trkpt><trkpt lat="51.479341680959536" lon="21.666048798571524"><ele>140.0</ele><time>2026-05-03T13:53:55Z</time></trkpt><trkpt lat="51.47927681089728" lon="21.666138264890694"><ele>140.0</ele><time>2026-05-03T13:53:56Z</time></trkpt><trkpt lat="51.479227048676556" lon="21.666234068835667"><ele>140.0</ele><time>2026-05-03T13:53:57Z</time></trkpt><trkpt lat="51.47918946832772" lon="21.666351409567962"><ele>139.83333333333331</ele><time>2026-05-03T13:53:58Z</time></trkpt><trkpt lat="51.47916322473557" lon="21.666461560401228"><ele>139.66666666666666</ele><time>2026-05-03T13:53:59Z</time></trkpt><trkpt lat="51.479144721234825" lon="21.666592124257374"><ele>139.5</ele><time>2026-05-03T13:54:00Z</time></trkpt><trkpt lat="51.4791220809505" lon="21.6667211954129"><ele>139.33333333333334</ele><time>2026-05-03T13:54:01Z</time></trkpt><trkpt lat="51.47909383026972" lon="21.666859066789762"><ele>139.16666666666669</ele><time>2026-05-03T13:54:02Z</time></trkpt><trkpt lat="51.47905348432479" lon="21.667002389856457"><ele>139.0</ele><time>2026-05-03T13:54:03Z</time></trkpt><trkpt lat="51.47901228217428" lon="21.667138952593753"><ele>138.5</ele><time>2026-05-03T13:54:04Z</time></trkpt><trkpt lat="51.47896090944185" lon="21.6672710115076"><ele>138.0</ele><time>2026-05-03T13:54:05Z</time></trkpt><trkpt lat="51.4789145019938" lon="21.667406835343"><ele>137.5</ele><time>2026-05-03T13:54:06Z</time></trkpt><trkpt lat="51.4788733304905" lon="21.667534414042073"><ele>137.0</ele><time>2026-05-03T13:54:07Z</time></trkpt><trkpt lat="51.478840931552114" lon="21.667656161996543"><ele>136.5</ele><time>2026-05-03T13:54:08Z</time></trkpt><trkpt lat="51.47883224774504" lon="21.667774949610006"><ele>136.0</ele><time>2026-05-03T13:54:09Z</time></trkpt><trkpt lat="51.47880768670352" lon="21.667874008139563"><ele>136.0</ele><time>2026-05-03T13:54:10Z</time></trkpt><trkpt lat="51.47879443853104" lon="21.668013407910955"><ele>136.0</ele><time>2026-05-03T13:54:11Z</time></trkpt><trkpt lat="51.47879522849962" lon="21.668161041898045"><ele>136.0</ele><time>2026-05-03T13:54:12Z</time></trkpt><trkpt lat="51.47877143880132" lon="21.668332471529332"><ele>136.0</ele><time>2026-05-03T13:54:13Z</time></trkpt><trkpt lat="51.47876232197777" lon="21.668514693268897"><ele>136.0</ele><time>2026-05-03T13:54:14Z</time></trkpt><trkpt lat="51.47875143205533" lon="21.66868332946008"><ele>136.0</ele><time>2026-05-03T13:54:15Z</time></trkpt><trkpt lat="51.478722162812616" lon="21.66884254640562"><ele>136.0</ele><time>2026-05-03T13:54:16Z</time></trkpt><trkpt lat="51.4786820701004" lon="21.66899883698321"><ele>136.0</ele><time>2026-05-03T13:54:17Z</time></trkpt><trkpt lat="51.47863699721135" lon="21.66914853743637"><ele>136.0</ele><time>2026-05-03T13:54:18Z</time></trkpt><trkpt lat="51.4785858692023" lon="21.669308026516283"><ele>136.0</ele><time>2026-05-03T13:54:19Z</time></trkpt><trkpt lat="51.47854322414177" lon="21.6694757380723"><ele>136.0</ele><time>2026-05-03T13:54:20Z</time></trkpt><trkpt lat="51.47850633528835" lon="21.669643212711602"><ele>136.0</ele><time>2026-05-03T13:54:21Z</time></trkpt><trkpt lat="51.4784712935395" lon="21.669797678676723"><ele>136.0</ele><time>2026-05-03T13:54:22Z</time></trkpt><trkpt lat="51.47843314978803" lon="21.669964811139327"><ele>136.0</ele><time>2026-05-03T13:54:23Z</time></trkpt><trkpt lat="51.47838839531496" lon="21.670159319908702"><ele>136.2</ele><time>2026-05-03T13:54:24Z</time></trkpt><trkpt lat="51.47833374649224" lon="21.670335707567475"><ele>136.39999999999998</ele><time>2026-05-03T13:54:25Z</time></trkpt><trkpt lat="51.47828916754464" lon="21.670485441662173"><ele>136.6</ele><time>2026-05-03T13:54:26Z</time></trkpt><trkpt lat="51.47824722558014" lon="21.67061487338663"><ele>136.79999999999998</ele><time>2026-05-03T13:54:27Z</time></trkpt><trkpt lat="51.478217057781954" lon="21.670727336088405"><ele>137.0</ele><time>2026-05-03T13:54:28Z</time></trkpt><trkpt lat="51.47818609955227" lon="21.670837153590313"><ele>137.0</ele><time>2026-05-03T13:54:29Z</time></trkpt><trkpt lat="51.478138179816526" lon="21.670931081655507"><ele>137.0</ele><time>2026-05-03T13:54:30Z</time></trkpt><trkpt lat="51.4780520340427" lon="21.671036046738273"><ele>137.0</ele><time>2026-05-03T13:54:32Z</time></trkpt><trkpt lat="51.47797652294649" lon="21.671143272631568"><ele>137.0</ele><time>2026-05-03T13:54:34Z</time></trkpt><trkpt lat="51.4779202985272" lon="21.671219554234813"><ele>137.0</ele><time>2026-05-03T13:54:35Z</time></trkpt><trkpt lat="51.47784319909631" lon="21.671315339171475"><ele>137.0</ele><time>2026-05-03T13:54:36Z</time></trkpt><trkpt lat="51.47775591368196" lon="21.671425913333398"><ele>137.0</ele><time>2026-05-03T13:54:37Z</time></trkpt><trkpt lat="51.47766583712226" lon="21.67154099250027"><ele>137.0</ele><time>2026-05-03T13:54:38Z</time></trkpt><trkpt lat="51.47757997179981" lon="21.67165925025825"><ele>137.0</ele><time>2026-05-03T13:54:39Z</time></trkpt><trkpt lat="51.477490166434755" lon="21.67175919008984"><ele>137.0</ele><time>2026-05-03T13:54:40Z</time></trkpt><trkpt lat="51.47739572673776" lon="21.671845744144775"><ele>137.75</ele><time>2026-05-03T13:54:41Z</time></trkpt><trkpt lat="51.47729848788067" lon="21.67194258726295"><ele>138.5</ele><time>2026-05-03T13:54:42Z</time></trkpt><trkpt lat="51.47720040123963" lon="21.67203581469936"><ele>139.25</ele><time>2026-05-03T13:54:43Z</time></trkpt><trkpt lat="51.47710451686123" lon="21.67212354040273"><ele>140.0</ele><time>2026-05-03T13:54:44Z</time></trkpt><trkpt lat="51.47700864664826" lon="21.672239132295964"><ele>140.25</ele><time>2026-05-03T13:54:45Z</time></trkpt><trkpt lat="51.47689819431347" lon="21.672330378958605"><ele>140.5</ele><time>2026-05-03T13:54:46Z</time></trkpt><trkpt lat="51.476788919914426" lon="21.672427582922435"><ele>140.75</ele><time>2026-05-03T13:54:47Z</time></trkpt><trkpt lat="51.47669183989701" lon="21.672514937709437"><ele>141.0</ele><time>2026-05-03T13:54:48Z</time></trkpt><trkpt lat="51.47659811041244" lon="21.67259992333716"><ele>141.0</ele><time>2026-05-03T13:54:49Z</time></trkpt><trkpt lat="51.47650300309891" lon="21.672680895408167"><ele>141.0</ele><time>2026-05-03T13:54:50Z</time></trkpt><trkpt lat="51.47640460474878" lon="21.6727744754265"><ele>141.0</ele><time>2026-05-03T13:54:51Z</time></trkpt><trkpt lat="51.47632425744809" lon="21.672919387867633"><ele>141.0</ele><time>2026-05-03T13:54:52Z</time></trkpt><trkpt lat="51.476250766667434" lon="21.673094180859017"><ele>142.25</ele><time>2026-05-03T13:54:53Z</time></trkpt><trkpt lat="51.47619335178556" lon="21.673295124138427"><ele>143.5</ele><time>2026-05-03T13:54:54Z</time></trkpt><trkpt lat="51.47615275306453" lon="21.673492485036398"><ele>144.75</ele><time>2026-05-03T13:54:55Z</time></trkpt><trkpt lat="51.47611201145135" lon="21.673695958171024"><ele>146.0</ele><time>2026-05-03T13:54:56Z</time></trkpt><trkpt lat="51.47607716145428" lon="21.673901681703477"><ele>146.25</ele><time>2026-05-03T13:54:57Z</time></trkpt><trkpt lat="51.47603881150005" lon="21.674090375608227"><ele>146.5</ele><time>2026-05-03T13:54:58Z</time></trkpt><trkpt lat="51.47598231312761" lon="21.674280574721877"><ele>146.75</ele><time>2026-05-03T13:54:59Z</time></trkpt><trkpt lat="51.47594093586278" lon="21.674478871657065"><ele>147.0</ele><time>2026-05-03T13:55:00Z</time></trkpt><trkpt lat="51.47590679530795" lon="21.674687984467507"><ele>147.25</ele><time>2026-05-03T13:55:01Z</time></trkpt><trkpt lat="51.47586610293405" lon="21.674901225749203"><ele>147.5</ele><time>2026-05-03T13:55:02Z</time></trkpt><trkpt lat="51.475803455495445" lon="21.675117559932534"><ele>147.75</ele><time>2026-05-03T13:55:03Z</time></trkpt><trkpt lat="51.475765628685224" lon="21.675342907917667"><ele>148.0</ele><time>2026-05-03T13:55:04Z</time></trkpt><trkpt lat="51.475723783315566" lon="21.675554978117166"><ele>148.5</ele><time>2026-05-03T13:55:05Z</time></trkpt><trkpt lat="51.475689329961234" lon="21.675751616859348"><ele>149.0</ele><time>2026-05-03T13:55:06Z</time></trkpt><trkpt lat="51.47566530490795" lon="21.675946518519005"><ele>149.5</ele><time>2026-05-03T13:55:07Z</time></trkpt><trkpt lat="51.47562580844358" lon="21.676122987368412"><ele>150.0</ele><time>2026-05-03T13:55:08Z</time></trkpt><trkpt lat="51.47559665797954" lon="21.67630052416032"><ele>150.5</ele><time>2026-05-03T13:55:09Z</time></trkpt><trkpt lat="51.475556062737105" lon="21.676467052757626"><ele>151.0</ele><time>2026-05-03T13:55:10Z</time></trkpt><trkpt lat="51.47552079569383" lon="21.676657091570743"><ele>151.5</ele><time>2026-05-03T13:55:11Z</time></trkpt><trkpt lat="51.47547203663444" lon="21.676821533251857"><ele>152.0</ele><time>2026-05-03T13:55:12Z</time></trkpt><trkpt lat="51.475455589799296" lon="21.677004614174596"><ele>152.0</ele><time>2026-05-03T13:55:13Z</time></trkpt><trkpt lat="51.475431740824476" lon="21.677149330098715"><ele>152.0</ele><time>2026-05-03T13:55:14Z</time></trkpt><trkpt lat="51.4754158564524" lon="21.67725478860538"><ele>152.0</ele><time>2026-05-03T13:55:15Z</time></trkpt><trkpt lat="51.47539976281113" lon="21.677353080472056"><ele>152.0</ele><time>2026-05-03T13:55:16Z</time></trkpt><trkpt lat="51.4753820582049" lon="21.677473697423483"><ele>152.0</ele><time>2026-05-03T13:55:17Z</time></trkpt><trkpt lat="51.47536184633457" lon="21.677625077464864"><ele>152.0</ele><time>2026-05-03T13:55:18Z</time></trkpt><trkpt lat="51.47532669415027" lon="21.677742891095814"><ele>151.75</ele><time>2026-05-03T13:55:19Z</time></trkpt><trkpt lat="51.47530147308682" lon="21.677903047626312"><ele>151.5</ele><time>2026-05-03T13:55:21Z</time></trkpt><trkpt lat="51.47544085424602" lon="21.67800385432291"><ele>151.25</ele><time>2026-05-03T13:55:22Z</time></trkpt><trkpt lat="51.475519121695356" lon="21.678127927517128"><ele>151.0</ele><time>2026-05-03T13:55:23Z</time></trkpt><trkpt lat="51.47558978213609" lon="21.678265520680625"><ele>151.0</ele><time>2026-05-03T13:55:24Z</time></trkpt><trkpt lat="51.47566017488814" lon="21.678386971142544"><ele>151.0</ele><time>2026-05-03T13:55:25Z</time></trkpt><trkpt lat="51.475733772916755" lon="21.678508798168586"><ele>151.0</ele><time>2026-05-03T13:55:27Z</time></trkpt><trkpt lat="51.47579227115652" lon="21.67860352159231"><ele>151.0</ele><time>2026-05-03T13:55:28Z</time></trkpt><trkpt lat="51.47586141466026" lon="21.67870495918638"><ele>151.0</ele><time>2026-05-03T13:55:29Z</time></trkpt><trkpt lat="51.47592876661895" lon="21.67883458147173"><ele>151.0</ele><time>2026-05-03T13:55:30Z</time></trkpt><trkpt lat="51.47599586225247" lon="21.67897138460469"><ele>151.0</ele><time>2026-05-03T13:55:31Z</time></trkpt><trkpt lat="51.47606719006317" lon="21.6790949701758"><ele>151.0</ele><time>2026-05-03T13:55:32Z</time></trkpt><trkpt lat="51.47615082593882" lon="21.67924590469147"><ele>151.0</ele><time>2026-05-03T13:55:33Z</time></trkpt><trkpt lat="51.47622291964742" lon="21.67940458421838"><ele>151.8</ele><time>2026-05-03T13:55:34Z</time></trkpt><trkpt lat="51.476300879361546" lon="21.679519008029477"><ele>152.6</ele><time>2026-05-03T13:55:35Z</time></trkpt><trkpt lat="51.4763796509779" lon="21.67966827702075"><ele>153.4</ele><time>2026-05-03T13:55:37Z</time></trkpt><trkpt lat="51.47642574559703" lon="21.679751439069506"><ele>154.2</ele><time>2026-05-03T13:55:38Z</time></trkpt><trkpt lat="51.47648110202589" lon="21.6798410511512"><ele>155.0</ele><time>2026-05-03T13:55:39Z</time></trkpt><trkpt lat="51.47653333629629" lon="21.67995919000895"><ele>155.0</ele><time>2026-05-03T13:55:40Z</time></trkpt><trkpt lat="51.476600051457964" lon="21.680072586130134"><ele>155.0</ele><time>2026-05-03T13:55:41Z</time></trkpt><trkpt lat="51.47666294315606" lon="21.680142954354015"><ele>155.0</ele><time>2026-05-03T13:55:42Z</time></trkpt><trkpt lat="51.47671693334099" lon="21.68023507149973"><ele>155.0</ele><time>2026-05-03T13:55:43Z</time></trkpt><trkpt lat="51.47677406618168" lon="21.680369321611373"><ele>155.0</ele><time>2026-05-03T13:55:44Z</time></trkpt><trkpt lat="51.47685242926375" lon="21.68050329358981"><ele>155.0</ele><time>2026-05-03T13:55:45Z</time></trkpt><trkpt lat="51.47692502767698" lon="21.68062774200295"><ele>155.0</ele><time>2026-05-03T13:55:46Z</time></trkpt><trkpt lat="51.476998152026965" lon="21.68073285830432"><ele>155.0</ele><time>2026-05-03T13:55:47Z</time></trkpt><trkpt lat="51.47705482877207" lon="21.680836321209885"><ele>155.0</ele><time>2026-05-03T13:55:48Z</time></trkpt><trkpt lat="51.47711295768021" lon="21.680943525904723"><ele>155.0</ele><time>2026-05-03T13:55:49Z</time></trkpt><trkpt lat="51.47718140275973" lon="21.681051608534787"><ele>155.0</ele><time>2026-05-03T13:55:50Z</time></trkpt><trkpt lat="51.47724997917708" lon="21.68116739620681"><ele>155.0</ele><time>2026-05-03T13:55:51Z</time></trkpt><trkpt lat="51.47732015134793" lon="21.68129790066919"><ele>155.0</ele><time>2026-05-03T13:55:52Z</time></trkpt><trkpt lat="51.47739508008481" lon="21.68143545716308"><ele>155.0</ele><time>2026-05-03T13:55:53Z</time></trkpt><trkpt lat="51.47744898857562" lon="21.681581930888647"><ele>155.0</ele><time>2026-05-03T13:55:54Z</time></trkpt><trkpt lat="51.47751159631463" lon="21.681704571881447"><ele>155.0</ele><time>2026-05-03T13:55:55Z</time></trkpt><trkpt lat="51.47756495238543" lon="21.681809398086184"><ele>155.0</ele><time>2026-05-03T13:55:56Z</time></trkpt><trkpt lat="51.47761930869733" lon="21.68191654454251"><ele>155.0</ele><time>2026-05-03T13:55:57Z</time></trkpt><trkpt lat="51.47767165462332" lon="21.68202327134764"><ele>155.0</ele><time>2026-05-03T13:55:58Z</time></trkpt><trkpt lat="51.477719390686694" lon="21.682133801755533"><ele>155.0</ele><time>2026-05-03T13:55:59Z</time></trkpt><trkpt lat="51.47777023985789" lon="21.68225573189431"><ele>155.0</ele><time>2026-05-03T13:56:00Z</time></trkpt><trkpt lat="51.477803059058786" lon="21.682400661549565"><ele>155.0</ele><time>2026-05-03T13:56:01Z</time></trkpt><trkpt lat="51.4778678762244" lon="21.682527474234032"><ele>155.0</ele><time>2026-05-03T13:56:02Z</time></trkpt><trkpt lat="51.47795366511496" lon="21.682641398760413"><ele>155.0</ele><time>2026-05-03T13:56:03Z</time></trkpt><trkpt lat="51.47802970244315" lon="21.68277262397369"><ele>155.0</ele><time>2026-05-03T13:56:04Z</time></trkpt><trkpt lat="51.4781043457046" lon="21.682877106463735"><ele>155.0</ele><time>2026-05-03T13:56:05Z</time></trkpt><trkpt lat="51.47820371051575" lon="21.682966585228325"><ele>154.6</ele><time>2026-05-03T13:56:06Z</time></trkpt><trkpt lat="51.47829457317882" lon="21.683082080120244"><ele>154.2</ele><time>2026-05-03T13:56:07Z</time></trkpt><trkpt lat="51.478360887803426" lon="21.683210528505143"><ele>153.8</ele><time>2026-05-03T13:56:08Z</time></trkpt><trkpt lat="51.47841595077488" lon="21.683301480673297"><ele>153.4</ele><time>2026-05-03T13:56:09Z</time></trkpt><trkpt lat="51.47847336371317" lon="21.68337056890781"><ele>153.0</ele><time>2026-05-03T13:56:10Z</time></trkpt><trkpt lat="51.478561199808986" lon="21.683546242361977"><ele>152.6</ele><time>2026-05-03T13:56:12Z</time></trkpt><trkpt lat="51.47863443769477" lon="21.683632821698264"><ele>152.20000000000002</ele><time>2026-05-03T13:56:13Z</time></trkpt><trkpt lat="51.4786935102636" lon="21.68373474996398"><ele>151.8</ele><time>2026-05-03T13:56:14Z</time></trkpt><trkpt lat="51.47876366966176" lon="21.68385796818454"><ele>151.4</ele><time>2026-05-03T13:56:15Z</time></trkpt><trkpt lat="51.478826137721825" lon="21.684003419151605"><ele>151.0</ele><time>2026-05-03T13:56:16Z</time></trkpt><trkpt lat="51.47889049845361" lon="21.684119167231618"><ele>150.6</ele><time>2026-05-03T13:56:17Z</time></trkpt><trkpt lat="51.478963444853875" lon="21.68421326639152"><ele>150.2</ele><time>2026-05-03T13:56:18Z</time></trkpt><trkpt lat="51.47900724474858" lon="21.684317734623306"><ele>149.8</ele><time>2026-05-03T13:56:19Z</time></trkpt><trkpt lat="51.479049379927446" lon="21.6843944308435"><ele>149.4</ele><time>2026-05-03T13:56:20Z</time></trkpt><trkpt lat="51.47917546303891" lon="21.684524795175452"><ele>149.0</ele><time>2026-05-03T13:56:22Z</time></trkpt><trkpt lat="51.47924335758223" lon="21.684506422593074"><ele>149.0</ele><time>2026-05-03T13:56:24Z</time></trkpt><trkpt lat="51.47930422449526" lon="21.684475005228276"><ele>149.0</ele><time>2026-05-03T13:56:26Z</time></trkpt><trkpt lat="51.47923622392595" lon="21.684531213963616"><ele>149.0</ele><time>2026-05-03T13:56:40Z</time></trkpt><trkpt lat="51.479301446654524" lon="21.684462190481987"><ele>149.0</ele><time>2026-05-03T13:56:54Z</time></trkpt><trkpt lat="51.479388083516696" lon="21.6843588119383"><ele>149.0</ele><time>2026-05-03T13:56:56Z</time></trkpt><trkpt lat="51.479478494115945" lon="21.684259918934636"><ele>149.0</ele><time>2026-05-03T13:56:58Z</time></trkpt><trkpt lat="51.47955260352429" lon="21.684128473913752"><ele>148.75</ele><time>2026-05-03T13:57:00Z</time></trkpt><trkpt lat="51.47962323870602" lon="21.684004297691192"><ele>148.5</ele><time>2026-05-03T13:57:02Z</time></trkpt><trkpt lat="51.479709050111104" lon="21.683875608387027"><ele>148.25</ele><time>2026-05-03T13:57:04Z</time></trkpt><trkpt lat="51.47980066899828" lon="21.683739111548128"><ele>148.0</ele><time>2026-05-03T13:57:06Z</time></trkpt><trkpt lat="51.47989571251951" lon="21.68360355766468"><ele>148.28571428571428</ele><time>2026-05-03T13:57:08Z</time></trkpt><trkpt lat="51.47994582713329" lon="21.683532418373687"><ele>148.57142857142856</ele><time>2026-05-03T13:57:09Z</time></trkpt><trkpt lat="51.47999408191905" lon="21.683456823270653"><ele>148.85714285714283</ele><time>2026-05-03T13:57:10Z</time></trkpt><trkpt lat="51.48004971836413" lon="21.6833713668247"><ele>149.14285714285714</ele><time>2026-05-03T13:57:11Z</time></trkpt><trkpt lat="51.48011436399884" lon="21.683309237504105"><ele>149.42857142857142</ele><time>2026-05-03T13:57:12Z</time></trkpt><trkpt lat="51.4801694701114" lon="21.683228528245923"><ele>149.7142857142857</ele><time>2026-05-03T13:57:13Z</time></trkpt><trkpt lat="51.48022611427856" lon="21.68314637844794"><ele>150.0</ele><time>2026-05-03T13:57:14Z</time></trkpt><trkpt lat="51.48028378122202" lon="21.683063354747222"><ele>150.0</ele><time>2026-05-03T13:57:15Z</time></trkpt><trkpt lat="51.480353240016306" lon="21.682963677712905"><ele>150.0</ele><time>2026-05-03T13:57:16Z</time></trkpt><trkpt lat="51.480417151112725" lon="21.682871962466187"><ele>150.0</ele><time>2026-05-03T13:57:17Z</time></trkpt><trkpt lat="51.48049204956943" lon="21.682764309427885"><ele>150.0</ele><time>2026-05-03T13:57:18Z</time></trkpt><trkpt lat="51.480562679517725" lon="21.682663106447645"><ele>150.0</ele><time>2026-05-03T13:57:19Z</time></trkpt><trkpt lat="51.48062004257466" lon="21.68254928180673"><ele>151.2</ele><time>2026-05-03T13:57:20Z</time></trkpt><trkpt lat="51.48068242968921" lon="21.682462778948317"><ele>152.4</ele><time>2026-05-03T13:57:21Z</time></trkpt><trkpt lat="51.48075671226063" lon="21.68236960367474"><ele>153.6</ele><time>2026-05-03T13:57:22Z</time></trkpt><trkpt lat="51.48083694699546" lon="21.68226556798007"><ele>154.8</ele><time>2026-05-03T13:57:23Z</time></trkpt><trkpt lat="51.48091943653587" lon="21.682150051877624"><ele>156.0</ele><time>2026-05-03T13:57:24Z</time></trkpt><trkpt lat="51.48098242047116" lon="21.682057360268406"><ele>156.0</ele><time>2026-05-03T13:57:25Z</time></trkpt><trkpt lat="51.48104543814366" lon="21.681962597473085"><ele>156.0</ele><time>2026-05-03T13:57:26Z</time></trkpt><trkpt lat="51.48109222512233" lon="21.68189418758962"><ele>156.0</ele><time>2026-05-03T13:57:27Z</time></trkpt><trkpt lat="51.481171038765574" lon="21.681798123539508"><ele>156.0</ele><time>2026-05-03T13:57:29Z</time></trkpt><trkpt lat="51.481231019159864" lon="21.681682914848007"><ele>156.0</ele><time>2026-05-03T13:57:32Z</time></trkpt><trkpt lat="51.48130621329476" lon="21.681599806195567"><ele>156.0</ele><time>2026-05-03T13:57:34Z</time></trkpt><trkpt lat="51.4813893750424" lon="21.681482548820433"><ele>155.0</ele><time>2026-05-03T13:57:36Z</time></trkpt><trkpt lat="51.48146992476132" lon="21.681367466201493"><ele>154.0</ele><time>2026-05-03T13:57:38Z</time></trkpt><trkpt lat="51.48152656527388" lon="21.681286743281095"><ele>153.0</ele><time>2026-05-03T13:57:39Z</time></trkpt><trkpt lat="51.48158188292934" lon="21.681205380713724"><ele>152.0</ele><time>2026-05-03T13:57:40Z</time></trkpt><trkpt lat="51.48163772756568" lon="21.68112241110875"><ele>151.0</ele><time>2026-05-03T13:57:41Z</time></trkpt><trkpt lat="51.48169545816973" lon="21.681034687706205"><ele>150.0</ele><time>2026-05-03T13:57:42Z</time></trkpt><trkpt lat="51.48174973705199" lon="21.680922662177593"><ele>150.0</ele><time>2026-05-03T13:57:43Z</time></trkpt><trkpt lat="51.48181911463863" lon="21.68080796593285"><ele>150.0</ele><time>2026-05-03T13:57:44Z</time></trkpt><trkpt lat="51.48188746037006" lon="21.68067984018493"><ele>150.0</ele><time>2026-05-03T13:57:45Z</time></trkpt><trkpt lat="51.481965860324664" lon="21.680551133038094"><ele>150.0</ele><time>2026-05-03T13:57:46Z</time></trkpt><trkpt lat="51.48202519928785" lon="21.680441755704937"><ele>150.0</ele><time>2026-05-03T13:57:47Z</time></trkpt><trkpt lat="51.482077817009845" lon="21.680361561577865"><ele>150.0</ele><time>2026-05-03T13:57:48Z</time></trkpt><trkpt lat="51.48213897027287" lon="21.680307944491485"><ele>150.0</ele><time>2026-05-03T13:57:51Z</time></trkpt><trkpt lat="51.48203529731748" lon="21.68007231475957"><ele>150.0</ele><time>2026-05-03T13:58:39Z</time></trkpt><trkpt lat="51.48196605436843" lon="21.679946986950164"><ele>150.0</ele><time>2026-05-03T13:58:40Z</time></trkpt><trkpt lat="51.48187081536753" lon="21.67980923670544"><ele>150.0</ele><time>2026-05-03T13:58:41Z</time></trkpt><trkpt lat="51.48178185704591" lon="21.679647064115006"><ele>150.0</ele><time>2026-05-03T13:58:42Z</time></trkpt><trkpt lat="51.481674738700136" lon="21.679484917267512"><ele>150.0</ele><time>2026-05-03T13:58:43Z</time></trkpt><trkpt lat="51.48158217011625" lon="21.679290947765338"><ele>150.0</ele><time>2026-05-03T13:58:44Z</time></trkpt><trkpt lat="51.481461126557264" lon="21.6791261666374"><ele>149.33333333333334</ele><time>2026-05-03T13:58:45Z</time></trkpt><trkpt lat="51.48134469409038" lon="21.67893078903728"><ele>148.66666666666669</ele><time>2026-05-03T13:58:46Z</time></trkpt><trkpt lat="51.48123522842677" lon="21.67871241016479"><ele>148.0</ele><time>2026-05-03T13:58:47Z</time></trkpt><trkpt lat="51.48111535740857" lon="21.678514098640456"><ele>148.0</ele><time>2026-05-03T13:58:48Z</time></trkpt><trkpt lat="51.480976013764185" lon="21.678320844185993"><ele>148.0</ele><time>2026-05-03T13:58:49Z</time></trkpt><trkpt lat="51.4808598240468" lon="21.678091411797375"><ele>148.0</ele><time>2026-05-03T13:58:50Z</time></trkpt><trkpt lat="51.480731137724646" lon="21.677876342682275"><ele>148.66666666666669</ele><time>2026-05-03T13:58:51Z</time></trkpt><trkpt lat="51.4806045964977" lon="21.677664859927667"><ele>149.33333333333334</ele><time>2026-05-03T13:58:52Z</time></trkpt><trkpt lat="51.48048529170114" lon="21.67746223775153"><ele>150.0</ele><time>2026-05-03T13:58:53Z</time></trkpt><trkpt lat="51.48036486936783" lon="21.67725834909742"><ele>150.0</ele><time>2026-05-03T13:58:54Z</time></trkpt><trkpt lat="51.48024017715909" lon="21.67704474989793"><ele>150.0</ele><time>2026-05-03T13:58:55Z</time></trkpt><trkpt lat="51.480117720767105" lon="21.67683330673914"><ele>150.0</ele><time>2026-05-03T13:58:56Z</time></trkpt><trkpt lat="51.479988209181236" lon="21.67664102137789"><ele>149.66666666666666</ele><time>2026-05-03T13:58:57Z</time></trkpt><trkpt lat="51.479867697111274" lon="21.676436393595086"><ele>149.33333333333331</ele><time>2026-05-03T13:58:58Z</time></trkpt><trkpt lat="51.479746206442336" lon="21.676216600123098"><ele>149.0</ele><time>2026-05-03T13:58:59Z</time></trkpt><trkpt lat="51.479629912047855" lon="21.67599921402576"><ele>148.66666666666666</ele><time>2026-05-03T13:59:00Z</time></trkpt><trkpt lat="51.479517489648266" lon="21.675782153120196"><ele>148.33333333333334</ele><time>2026-05-03T13:59:01Z</time></trkpt><trkpt lat="51.47939599882457" lon="21.67557251919659"><ele>148.0</ele><time>2026-05-03T13:59:02Z</time></trkpt><trkpt lat="51.47927493486592" lon="21.675359666388555"><ele>148.33333333333334</ele><time>2026-05-03T13:59:03Z</time></trkpt><trkpt lat="51.47916329120821" lon="21.675152435038694"><ele>148.66666666666666</ele><time>2026-05-03T13:59:04Z</time></trkpt><trkpt lat="51.47906573344683" lon="21.67497107455367"><ele>149.0</ele><time>2026-05-03T13:59:05Z</time></trkpt><trkpt lat="51.47898138581575" lon="21.674811711617163"><ele>149.0</ele><time>2026-05-03T13:59:06Z</time></trkpt><trkpt lat="51.47890894727911" lon="21.67468275110796"><ele>149.0</ele><time>2026-05-03T13:59:07Z</time></trkpt><trkpt lat="51.47884442272868" lon="21.674584687965"><ele>149.0</ele><time>2026-05-03T13:59:08Z</time></trkpt><trkpt lat="51.47879511998986" lon="21.674489920160276"><ele>149.0</ele><time>2026-05-03T13:59:09Z</time></trkpt><trkpt lat="51.47872043795998" lon="21.674372022950642"><ele>149.0</ele><time>2026-05-03T13:59:11Z</time></trkpt><trkpt lat="51.47868873494376" lon="21.674278269291694"><ele>149.0</ele><time>2026-05-03T13:59:18Z</time></trkpt><trkpt lat="51.47876814083282" lon="21.674421758939832"><ele>149.0</ele><time>2026-05-03T13:59:21Z</time></trkpt><trkpt lat="51.47881428881591" lon="21.674504683771225"><ele>149.0</ele><time>2026-05-03T13:59:22Z</time></trkpt><trkpt lat="51.478908689956775" lon="21.67463176928919"><ele>149.0</ele><time>2026-05-03T13:59:23Z</time></trkpt><trkpt lat="51.478955077276844" lon="21.674768795590676"><ele>149.0</ele><time>2026-05-03T13:59:24Z</time></trkpt><trkpt lat="51.47902895819287" lon="21.674910750383518"><ele>149.0</ele><time>2026-05-03T13:59:25Z</time></trkpt><trkpt lat="51.47911765704512" lon="21.6750672802998"><ele>149.0</ele><time>2026-05-03T13:59:26Z</time></trkpt><trkpt lat="51.47920905237079" lon="21.675236371035645"><ele>149.0</ele><time>2026-05-03T13:59:27Z</time></trkpt><trkpt lat="51.4792916122089" lon="21.675445700714928"><ele>149.0</ele><time>2026-05-03T13:59:28Z</time></trkpt><trkpt lat="51.479400334006534" lon="21.675642290982537"><ele>149.0</ele><time>2026-05-03T13:59:29Z</time></trkpt><trkpt lat="51.479515615441215" lon="21.675849824824944"><ele>149.0</ele><time>2026-05-03T13:59:30Z</time></trkpt><trkpt lat="51.479631846413255" lon="21.676058861987308"><ele>149.0</ele><time>2026-05-03T13:59:31Z</time></trkpt><trkpt lat="51.47974989817368" lon="21.67626848234533"><ele>149.0</ele><time>2026-05-03T13:59:32Z</time></trkpt><trkpt lat="51.47987195555102" lon="21.676483525203913"><ele>149.0</ele><time>2026-05-03T13:59:33Z</time></trkpt><trkpt lat="51.48000487567841" lon="21.676678669047767"><ele>149.0</ele><time>2026-05-03T13:59:34Z</time></trkpt><trkpt lat="51.48013303252566" lon="21.67691043259648"><ele>149.33333333333331</ele><time>2026-05-03T13:59:35Z</time></trkpt><trkpt lat="51.48026769530923" lon="21.677134255011616"><ele>149.66666666666666</ele><time>2026-05-03T13:59:36Z</time></trkpt><trkpt lat="51.480396583039976" lon="21.677389210281856"><ele>150.0</ele><time>2026-05-03T13:59:37Z</time></trkpt><trkpt lat="51.48052096903503" lon="21.67760046222191"><ele>149.33333333333334</ele><time>2026-05-03T13:59:38Z</time></trkpt><trkpt lat="51.480671767246335" lon="21.677816174642754"><ele>148.66666666666669</ele><time>2026-05-03T13:59:39Z</time></trkpt><trkpt lat="51.480811741755325" lon="21.678053133906285"><ele>148.0</ele><time>2026-05-03T13:59:40Z</time></trkpt><trkpt lat="51.48093971068747" lon="21.67830030241367"><ele>148.0</ele><time>2026-05-03T13:59:41Z</time></trkpt><trkpt lat="51.481094355636095" lon="21.678555926341666"><ele>148.0</ele><time>2026-05-03T13:59:42Z</time></trkpt><trkpt lat="51.481245043133356" lon="21.678805220044985"><ele>148.0</ele><time>2026-05-03T13:59:43Z</time></trkpt><trkpt lat="51.48140123241493" lon="21.67903645349859"><ele>147.66666666666669</ele><time>2026-05-03T13:59:44Z</time></trkpt><trkpt lat="51.48155116535527" lon="21.679281352719396"><ele>147.33333333333334</ele><time>2026-05-03T13:59:45Z</time></trkpt><trkpt lat="51.481689237557504" lon="21.679512014474952"><ele>147.0</ele><time>2026-05-03T13:59:46Z</time></trkpt><trkpt lat="51.481820384931936" lon="21.679733988512236"><ele>147.6</ele><time>2026-05-03T13:59:47Z</time></trkpt><trkpt lat="51.48192102685715" lon="21.679946699074787"><ele>148.2</ele><time>2026-05-03T13:59:48Z</time></trkpt><trkpt lat="51.48200900992001" lon="21.680105014721732"><ele>148.8</ele><time>2026-05-03T13:59:49Z</time></trkpt><trkpt lat="51.48206755085016" lon="21.680184740081625"><ele>149.4</ele><time>2026-05-03T13:59:50Z</time></trkpt><trkpt lat="51.48208813673578" lon="21.68029203618776"><ele>150.0</ele><time>2026-05-03T13:59:52Z</time></trkpt><trkpt lat="51.48198584723088" lon="21.68046644519021"><ele>150.0</ele><time>2026-05-03T13:59:55Z</time></trkpt><trkpt lat="51.48192206384143" lon="21.68057233631451"><ele>150.0</ele><time>2026-05-03T13:59:56Z</time></trkpt><trkpt lat="51.48183996134613" lon="21.680687905929727"><ele>150.0</ele><time>2026-05-03T13:59:57Z</time></trkpt><trkpt lat="51.48179299547285" lon="21.680797263700267"><ele>150.0</ele><time>2026-05-03T13:59:58Z</time></trkpt><trkpt lat="51.481732421752255" lon="21.680901331346995"><ele>150.0</ele><time>2026-05-03T14:00:00Z</time></trkpt><trkpt lat="51.481679202253176" lon="21.68098568531099"><ele>150.0</ele><time>2026-05-03T14:00:07Z</time></trkpt><trkpt lat="51.48177304921567" lon="21.68086107216646"><ele>150.0</ele><time>2026-05-03T14:00:11Z</time></trkpt><trkpt lat="51.48183770427802" lon="21.680758671216875"><ele>150.0</ele><time>2026-05-03T14:00:12Z</time></trkpt><trkpt lat="51.48189764257083" lon="21.680625460864817"><ele>150.0</ele><time>2026-05-03T14:00:13Z</time></trkpt><trkpt lat="51.4819803140648" lon="21.68048247841635"><ele>150.0</ele><time>2026-05-03T14:00:14Z</time></trkpt><trkpt lat="51.48207074422823" lon="21.680351741086184"><ele>150.0</ele><time>2026-05-03T14:00:15Z</time></trkpt><trkpt lat="51.482174307316896" lon="21.680231453764677"><ele>149.25</ele><time>2026-05-03T14:00:16Z</time></trkpt><trkpt lat="51.48228439612681" lon="21.680134984447015"><ele>148.5</ele><time>2026-05-03T14:00:17Z</time></trkpt><trkpt lat="51.48240118651267" lon="21.68002210731991"><ele>147.75</ele><time>2026-05-03T14:00:18Z</time></trkpt><trkpt lat="51.48251070327646" lon="21.679863588078607"><ele>147.0</ele><time>2026-05-03T14:00:19Z</time></trkpt><trkpt lat="51.4826139638073" lon="21.679688380456174"><ele>147.0</ele><time>2026-05-03T14:00:20Z</time></trkpt><trkpt lat="51.482733978845474" lon="21.67950766571936"><ele>147.0</ele><time>2026-05-03T14:00:21Z</time></trkpt><trkpt lat="51.48286425907311" lon="21.67932609521353"><ele>147.0</ele><time>2026-05-03T14:00:22Z</time></trkpt><trkpt lat="51.48298947215772" lon="21.67913752888954"><ele>146.33333333333334</ele><time>2026-05-03T14:00:23Z</time></trkpt><trkpt lat="51.48311879012343" lon="21.6789440836485"><ele>145.66666666666669</ele><time>2026-05-03T14:00:24Z</time></trkpt><trkpt lat="51.48325416275866" lon="21.6787440978296"><ele>145.0</ele><time>2026-05-03T14:00:25Z</time></trkpt><trkpt lat="51.48338417947775" lon="21.67855410375785"><ele>144.66666666666669</ele><time>2026-05-03T14:00:26Z</time></trkpt><trkpt lat="51.48351084313479" lon="21.678370688255526"><ele>144.33333333333334</ele><time>2026-05-03T14:00:27Z</time></trkpt><trkpt lat="51.48364333915075" lon="21.678195402585924"><ele>144.0</ele><time>2026-05-03T14:00:28Z</time></trkpt><trkpt lat="51.48376699615041" lon="21.678008977719863"><ele>144.0</ele><time>2026-05-03T14:00:29Z</time></trkpt><trkpt lat="51.48388065057125" lon="21.67781774297003"><ele>144.0</ele><time>2026-05-03T14:00:30Z</time></trkpt><trkpt lat="51.484010202695806" lon="21.677643279544906"><ele>144.0</ele><time>2026-05-03T14:00:31Z</time></trkpt><trkpt lat="51.48415313967925" lon="21.677476380501975"><ele>144.0</ele><time>2026-05-03T14:00:32Z</time></trkpt><trkpt lat="51.484282398665115" lon="21.677302958930348"><ele>144.0</ele><time>2026-05-03T14:00:33Z</time></trkpt><trkpt lat="51.48439564693376" lon="21.67713574292733"><ele>144.0</ele><time>2026-05-03T14:00:34Z</time></trkpt><trkpt lat="51.48447130612302" lon="21.677024148030767"><ele>144.0</ele><time>2026-05-03T14:00:35Z</time></trkpt><trkpt lat="51.484512098338605" lon="21.676936670368356"><ele>144.0</ele><time>2026-05-03T14:00:36Z</time></trkpt><trkpt lat="51.48457969436044" lon="21.676836138264004"><ele>144.0</ele><time>2026-05-03T14:00:37Z</time></trkpt><trkpt lat="51.48463953426073" lon="21.67671721060912"><ele>144.0</ele><time>2026-05-03T14:00:38Z</time></trkpt><trkpt lat="51.48472998040472" lon="21.676598580370346"><ele>144.0</ele><time>2026-05-03T14:00:39Z</time></trkpt><trkpt lat="51.484816908777795" lon="21.676454230842626"><ele>144.0</ele><time>2026-05-03T14:00:40Z</time></trkpt><trkpt lat="51.48491884431762" lon="21.676298087981902"><ele>143.75</ele><time>2026-05-03T14:00:41Z</time></trkpt><trkpt lat="51.48502389932156" lon="21.676138422832857"><ele>143.5</ele><time>2026-05-03T14:00:42Z</time></trkpt><trkpt lat="51.4851236052063" lon="21.67596653583003"><ele>143.25</ele><time>2026-05-03T14:00:43Z</time></trkpt><trkpt lat="51.48523155815927" lon="21.67581330336314"><ele>143.0</ele><time>2026-05-03T14:00:44Z</time></trkpt><trkpt lat="51.48533534881743" lon="21.675651027249103"><ele>143.0</ele><time>2026-05-03T14:00:45Z</time></trkpt><trkpt lat="51.485442465885235" lon="21.675482411837013"><ele>143.0</ele><time>2026-05-03T14:00:46Z</time></trkpt><trkpt lat="51.48557306737072" lon="21.675346521096134"><ele>143.0</ele><time>2026-05-03T14:00:47Z</time></trkpt><trkpt lat="51.48569475995695" lon="21.67518967621449"><ele>143.0</ele><time>2026-05-03T14:00:48Z</time></trkpt><trkpt lat="51.485818796480515" lon="21.67502213664331"><ele>143.0</ele><time>2026-05-03T14:00:49Z</time></trkpt><trkpt lat="51.48595293434797" lon="21.6748776441841"><ele>143.0</ele><time>2026-05-03T14:00:50Z</time></trkpt><trkpt lat="51.486062157380815" lon="21.674694349269117"><ele>143.0</ele><time>2026-05-03T14:00:51Z</time></trkpt><trkpt lat="51.486165421898875" lon="21.674576341491708"><ele>143.0</ele><time>2026-05-03T14:00:52Z</time></trkpt><trkpt lat="51.48624648696862" lon="21.674445727241245"><ele>143.0</ele><time>2026-05-03T14:00:53Z</time></trkpt><trkpt lat="51.48631193078521" lon="21.674329118857933"><ele>143.0</ele><time>2026-05-03T14:00:54Z</time></trkpt><trkpt lat="51.48636749763902" lon="21.674219173423882"><ele>143.0</ele><time>2026-05-03T14:00:55Z</time></trkpt><trkpt lat="51.48642762423784" lon="21.674131537593976"><ele>142.6</ele><time>2026-05-03T14:00:56Z</time></trkpt><trkpt lat="51.48651412537237" lon="21.67399876029433"><ele>142.20000000000002</ele><time>2026-05-03T14:00:58Z</time></trkpt><trkpt lat="51.48656355637257" lon="21.673926198905576"><ele>141.8</ele><time>2026-05-03T14:01:03Z</time></trkpt><trkpt lat="51.48661617741464" lon="21.673867516302497"><ele>141.4</ele><time>2026-05-03T14:01:07Z</time></trkpt><trkpt lat="51.48654530939323" lon="21.67368020488013"><ele>141.0</ele><time>2026-05-03T14:01:08Z</time></trkpt><trkpt lat="51.486484883863575" lon="21.67352729352971"><ele>141.0</ele><time>2026-05-03T14:01:09Z</time></trkpt><trkpt lat="51.48643173557817" lon="21.673341685498148"><ele>141.0</ele><time>2026-05-03T14:01:10Z</time></trkpt><trkpt lat="51.48636877795555" lon="21.673135686559387"><ele>141.0</ele><time>2026-05-03T14:01:11Z</time></trkpt><trkpt lat="51.486302000797934" lon="21.672913726667012"><ele>141.0</ele><time>2026-05-03T14:01:12Z</time></trkpt><trkpt lat="51.486230812578654" lon="21.672675618855926"><ele>141.0</ele><time>2026-05-03T14:01:13Z</time></trkpt><trkpt lat="51.48615454230232" lon="21.67242085562602"><ele>141.0</ele><time>2026-05-03T14:01:14Z</time></trkpt><trkpt lat="51.4860733038832" lon="21.672156901409895"><ele>141.0</ele><time>2026-05-03T14:01:15Z</time></trkpt><trkpt lat="51.485995764786274" lon="21.671879347351496"><ele>140.33333333333334</ele><time>2026-05-03T14:01:16Z</time></trkpt><trkpt lat="51.485911679004694" lon="21.671596021677143"><ele>139.66666666666669</ele><time>2026-05-03T14:01:17Z</time></trkpt><trkpt lat="51.48581592154439" lon="21.671287064852493"><ele>139.0</ele><time>2026-05-03T14:01:18Z</time></trkpt><trkpt lat="51.48573749120248" lon="21.671002686893875"><ele>138.0</ele><time>2026-05-03T14:01:19Z</time></trkpt><trkpt lat="51.485665503066194" lon="21.670741532122538"><ele>137.0</ele><time>2026-05-03T14:01:20Z</time></trkpt><trkpt lat="51.485591372702785" lon="21.670496750461954"><ele>136.0</ele><time>2026-05-03T14:01:21Z</time></trkpt><trkpt lat="51.485491798054845" lon="21.67025215933983"><ele>136.66666666666669</ele><time>2026-05-03T14:01:22Z</time></trkpt><trkpt lat="51.485369710890616" lon="21.67001581169142"><ele>137.33333333333334</ele><time>2026-05-03T14:01:23Z</time></trkpt><trkpt lat="51.48524112367725" lon="21.66978888300584"><ele>138.0</ele><time>2026-05-03T14:01:24Z</time></trkpt><trkpt lat="51.485112164085784" lon="21.66957575328369"><ele>137.33333333333334</ele><time>2026-05-03T14:01:25Z</time></trkpt><trkpt lat="51.484990191291914" lon="21.669376685540175"><ele>136.66666666666669</ele><time>2026-05-03T14:01:26Z</time></trkpt><trkpt lat="51.4848753938575" lon="21.66918758221207"><ele>136.0</ele><time>2026-05-03T14:01:27Z</time></trkpt><trkpt lat="51.484768887983044" lon="21.669012810543208"><ele>136.0</ele><time>2026-05-03T14:01:28Z</time></trkpt><trkpt lat="51.48469045065481" lon="21.668823818147178"><ele>136.0</ele><time>2026-05-03T14:01:29Z</time></trkpt><trkpt lat="51.484612825846526" lon="21.66865111291427"><ele>136.0</ele><time>2026-05-03T14:01:30Z</time></trkpt><trkpt lat="51.48453002403191" lon="21.66849102069725"><ele>136.0</ele><time>2026-05-03T14:01:31Z</time></trkpt><trkpt lat="51.48447701596744" lon="21.66832758128421"><ele>136.2</ele><time>2026-05-03T14:01:32Z</time></trkpt><trkpt lat="51.48443473309254" lon="21.668173296615652"><ele>136.39999999999998</ele><time>2026-05-03T14:01:33Z</time></trkpt><trkpt lat="51.48441061713462" lon="21.668026395749823"><ele>136.6</ele><time>2026-05-03T14:01:34Z</time></trkpt><trkpt lat="51.484400732089824" lon="21.6678781114275"><ele>136.79999999999998</ele><time>2026-05-03T14:01:35Z</time></trkpt><trkpt lat="51.48440022750159" lon="21.667739184806038"><ele>137.0</ele><time>2026-05-03T14:01:36Z</time></trkpt><trkpt lat="51.484403926106985" lon="21.667612046827895"><ele>136.6</ele><time>2026-05-03T14:01:37Z</time></trkpt><trkpt lat="51.484401049585756" lon="21.66750058489348"><ele>136.2</ele><time>2026-05-03T14:01:38Z</time></trkpt><trkpt lat="51.48441694514266" lon="21.66731922745237"><ele>135.8</ele><time>2026-05-03T14:01:40Z</time></trkpt><trkpt lat="51.48444011448053" lon="21.667199385537"><ele>135.4</ele><time>2026-05-03T14:01:42Z</time></trkpt><trkpt lat="51.48446028568678" lon="21.667087349981273"><ele>135.0</ele><time>2026-05-03T14:01:44Z</time></trkpt><trkpt lat="51.484312553112964" lon="21.666938789580225"><ele>135.0</ele><time>2026-05-03T14:01:47Z</time></trkpt><trkpt lat="51.4842242936151" lon="21.66692485218728"><ele>135.0</ele><time>2026-05-03T14:01:48Z</time></trkpt><trkpt lat="51.48416100887701" lon="21.666912948027157"><ele>135.0</ele><time>2026-05-03T14:01:49Z</time></trkpt><trkpt lat="51.48409103763389" lon="21.66694640771933"><ele>135.0</ele><time>2026-05-03T14:01:51Z</time></trkpt><trkpt lat="51.484190807133935" lon="21.666966391527623"><ele>135.0</ele><time>2026-05-03T14:34:14Z</time></trkpt><trkpt lat="51.48430076806698" lon="21.666980678128034"><ele>135.0</ele><time>2026-05-03T14:34:16Z</time></trkpt><trkpt lat="51.48437049210323" lon="21.667009876202883"><ele>135.0</ele><time>2026-05-03T14:34:17Z</time></trkpt><trkpt lat="51.484439595967395" lon="21.667077730682383"><ele>135.0</ele><time>2026-05-03T14:34:19Z</time></trkpt><trkpt lat="51.48440101343136" lon="21.667230104789017"><ele>135.0</ele><time>2026-05-03T14:34:24Z</time></trkpt><trkpt lat="51.4843661226352" lon="21.667508423272878"><ele>135.0</ele><time>2026-05-03T14:34:26Z</time></trkpt><trkpt lat="51.484362319291435" lon="21.667690286552354"><ele>135.5</ele><time>2026-05-03T14:34:27Z</time></trkpt><trkpt lat="51.48436924673954" lon="21.667895996763974"><ele>136.0</ele><time>2026-05-03T14:34:28Z</time></trkpt><trkpt lat="51.484390021012636" lon="21.66811734777246"><ele>136.5</ele><time>2026-05-03T14:34:29Z</time></trkpt><trkpt lat="51.48444368638928" lon="21.66833939451375"><ele>137.0</ele><time>2026-05-03T14:34:30Z</time></trkpt><trkpt lat="51.4845229876536" lon="21.668555651562702"><ele>136.66666666666666</ele><time>2026-05-03T14:34:31Z</time></trkpt><trkpt lat="51.48461873134453" lon="21.668763632138347"><ele>136.33333333333334</ele><time>2026-05-03T14:34:32Z</time></trkpt><trkpt lat="51.48471100402309" lon="21.668975378532934"><ele>136.0</ele><time>2026-05-03T14:34:33Z</time></trkpt><trkpt lat="51.484811924970664" lon="21.669175199096816"><ele>136.0</ele><time>2026-05-03T14:34:34Z</time></trkpt><trkpt lat="51.48493480491134" lon="21.669364120683593"><ele>136.0</ele><time>2026-05-03T14:34:35Z</time></trkpt><trkpt lat="51.48506160480891" lon="21.669570454548644"><ele>136.0</ele><time>2026-05-03T14:34:36Z</time></trkpt><trkpt lat="51.48518853665874" lon="21.66977519836788"><ele>136.0</ele><time>2026-05-03T14:34:37Z</time></trkpt><trkpt lat="51.485317222417855" lon="21.66997730249492"><ele>136.0</ele><time>2026-05-03T14:34:38Z</time></trkpt><trkpt lat="51.48544428223251" lon="21.670191559786748"><ele>136.0</ele><time>2026-05-03T14:34:39Z</time></trkpt><trkpt lat="51.485538311530206" lon="21.670409734947512"><ele>136.0</ele><time>2026-05-03T14:34:40Z</time></trkpt><trkpt lat="51.48562090059623" lon="21.670655701019857"><ele>136.0</ele><time>2026-05-03T14:34:41Z</time></trkpt><trkpt lat="51.48569106041128" lon="21.67091634559801"><ele>136.0</ele><time>2026-05-03T14:34:42Z</time></trkpt><trkpt lat="51.48576691313789" lon="21.671186580982035"><ele>137.0</ele><time>2026-05-03T14:34:43Z</time></trkpt><trkpt lat="51.48584571857509" lon="21.671466615408544"><ele>138.0</ele><time>2026-05-03T14:34:44Z</time></trkpt><trkpt lat="51.485927180645824" lon="21.67175396469707"><ele>139.0</ele><time>2026-05-03T14:34:45Z</time></trkpt><trkpt lat="51.486011863057904" lon="21.67204122033894"><ele>139.66666666666669</ele><time>2026-05-03T14:34:46Z</time></trkpt><trkpt lat="51.48609918238947" lon="21.67233274277459"><ele>140.33333333333334</ele><time>2026-05-03T14:34:47Z</time></trkpt><trkpt lat="51.48618529174684" lon="21.672610411237947"><ele>141.0</ele><time>2026-05-03T14:34:48Z</time></trkpt><trkpt lat="51.486258689530814" lon="21.672857312000026"><ele>141.0</ele><time>2026-05-03T14:34:49Z</time></trkpt><trkpt lat="51.48632864972703" lon="21.67309078963856"><ele>141.0</ele><time>2026-05-03T14:34:50Z</time></trkpt><trkpt lat="51.48639188145874" lon="21.6733067959736"><ele>141.0</ele><time>2026-05-03T14:34:51Z</time></trkpt><trkpt lat="51.48645128609893" lon="21.673508681825535"><ele>141.0</ele><time>2026-05-03T14:34:52Z</time></trkpt><trkpt lat="51.48650709608203" lon="21.67368484536852"><ele>141.0</ele><time>2026-05-03T14:34:53Z</time></trkpt><trkpt lat="51.48655233109636" lon="21.673803225473495"><ele>141.0</ele><time>2026-05-03T14:34:54Z</time></trkpt><trkpt lat="51.486578818978515" lon="21.673945471984442"><ele>141.0</ele><time>2026-05-03T14:34:56Z</time></trkpt><trkpt lat="51.48647731223916" lon="21.674006464873706"><ele>141.0</ele><time>2026-05-03T14:34:57Z</time></trkpt><trkpt lat="51.48641351588767" lon="21.674119383654524"><ele>141.0</ele><time>2026-05-03T14:34:58Z</time></trkpt><trkpt lat="51.48633692371723" lon="21.674243068093784"><ele>141.5</ele><time>2026-05-03T14:34:59Z</time></trkpt><trkpt lat="51.48624250839608" lon="21.6743681577422"><ele>142.0</ele><time>2026-05-03T14:35:00Z</time></trkpt><trkpt lat="51.486149218320044" lon="21.67452792008563"><ele>142.5</ele><time>2026-05-03T14:35:01Z</time></trkpt><trkpt lat="51.48603622108299" lon="21.6746601877607"><ele>143.0</ele><time>2026-05-03T14:35:02Z</time></trkpt><trkpt lat="51.48592202818152" lon="21.674818766715525"><ele>143.0</ele><time>2026-05-03T14:35:03Z</time></trkpt><trkpt lat="51.485800847183526" lon="21.674982561259945"><ele>143.0</ele><time>2026-05-03T14:35:04Z</time></trkpt><trkpt lat="51.48568230614331" lon="21.675170672695206"><ele>143.0</ele><time>2026-05-03T14:35:05Z</time></trkpt><trkpt lat="51.4855332881028" lon="21.675307268236548"><ele>143.0</ele><time>2026-05-03T14:35:06Z</time></trkpt><trkpt lat="51.485398953287344" lon="21.675472383214593"><ele>143.0</ele><time>2026-05-03T14:35:07Z</time></trkpt><trkpt lat="51.485279566685755" lon="21.675660751497396"><ele>143.0</ele><time>2026-05-03T14:35:08Z</time></trkpt><trkpt lat="51.48516076563122" lon="21.675825426089517"><ele>143.0</ele><time>2026-05-03T14:35:09Z</time></trkpt><trkpt lat="51.48507604181974" lon="21.67596335489716"><ele>143.0</ele><time>2026-05-03T14:35:10Z</time></trkpt><trkpt lat="51.48501969391946" lon="21.676082599670337"><ele>143.0</ele><time>2026-05-03T14:35:11Z</time></trkpt><trkpt lat="51.48496440347559" lon="21.676180044795846"><ele>143.0</ele><time>2026-05-03T14:35:12Z</time></trkpt><trkpt lat="51.4849095266262" lon="21.676263407876075"><ele>143.0</ele><time>2026-05-03T14:35:13Z</time></trkpt><trkpt lat="51.48486335545724" lon="21.676333546217563"><ele>143.0</ele><time>2026-05-03T14:35:14Z</time></trkpt><trkpt lat="51.4848226312115" lon="21.676428460932208"><ele>143.0</ele><time>2026-05-03T14:35:22Z</time></trkpt><trkpt lat="51.48470900676474" lon="21.676568934178583"><ele>143.0</ele><time>2026-05-03T14:35:24Z</time></trkpt><trkpt lat="51.48463501202198" lon="21.67668118131174"><ele>143.0</ele><time>2026-05-03T14:35:25Z</time></trkpt><trkpt lat="51.48457872076834" lon="21.676793285300032"><ele>143.0</ele><time>2026-05-03T14:35:26Z</time></trkpt><trkpt lat="51.48452621802962" lon="21.676867051773698"><ele>143.0</ele><time>2026-05-03T14:35:27Z</time></trkpt><trkpt lat="51.48446653439936" lon="21.67695708407725"><ele>143.20000000000002</ele><time>2026-05-03T14:35:29Z</time></trkpt><trkpt lat="51.484381210953835" lon="21.67705672261715"><ele>143.4</ele><time>2026-05-03T14:35:32Z</time></trkpt><trkpt lat="51.48430829711462" lon="21.677163740161557"><ele>143.60000000000002</ele><time>2026-05-03T14:35:34Z</time></trkpt><trkpt lat="51.484238402691" lon="21.67729272642782"><ele>143.8</ele><time>2026-05-03T14:35:37Z</time></trkpt><trkpt lat="51.484174126172775" lon="21.677356913049106"><ele>144.0</ele><time>2026-05-03T14:35:38Z</time></trkpt><trkpt lat="51.48410672261119" lon="21.677453781257725"><ele>144.0</ele><time>2026-05-03T14:35:39Z</time></trkpt><trkpt lat="51.484036825327884" lon="21.677588574724986"><ele>144.0</ele><time>2026-05-03T14:35:40Z</time></trkpt><trkpt lat="51.483941209118136" lon="21.67771051509458"><ele>144.0</ele><time>2026-05-03T14:35:41Z</time></trkpt><trkpt lat="51.483841290264394" lon="21.677843638722937"><ele>144.0</ele><time>2026-05-03T14:35:42Z</time></trkpt><trkpt lat="51.48373586278564" lon="21.677983499453667"><ele>144.0</ele><time>2026-05-03T14:35:43Z</time></trkpt><trkpt lat="51.48364266288599" lon="21.678144250802255"><ele>144.0</ele><time>2026-05-03T14:35:44Z</time></trkpt><trkpt lat="51.483540792525574" lon="21.6783063870436"><ele>144.0</ele><time>2026-05-03T14:35:45Z</time></trkpt><trkpt lat="51.483423594756225" lon="21.678443150793253"><ele>144.0</ele><time>2026-05-03T14:35:46Z</time></trkpt><trkpt lat="51.48332259086974" lon="21.678615273333676"><ele>144.25</ele><time>2026-05-03T14:35:47Z</time></trkpt><trkpt lat="51.48321752944314" lon="21.678773231922897"><ele>144.5</ele><time>2026-05-03T14:35:48Z</time></trkpt><trkpt lat="51.48311261496198" lon="21.678933452952922"><ele>144.75</ele><time>2026-05-03T14:35:49Z</time></trkpt><trkpt lat="51.48300566288275" lon="21.679086273828737"><ele>145.0</ele><time>2026-05-03T14:35:50Z</time></trkpt><trkpt lat="51.482896478318175" lon="21.679247209575077"><ele>145.25</ele><time>2026-05-03T14:35:51Z</time></trkpt><trkpt lat="51.48279385475948" lon="21.679401081222174"><ele>145.5</ele><time>2026-05-03T14:35:52Z</time></trkpt><trkpt lat="51.482694893127245" lon="21.679548260054275"><ele>145.75</ele><time>2026-05-03T14:35:53Z</time></trkpt><trkpt lat="51.482596659391525" lon="21.67967988694681"><ele>146.0</ele><time>2026-05-03T14:35:54Z</time></trkpt><trkpt lat="51.482511073547336" lon="21.679816777573492"><ele>146.25</ele><time>2026-05-03T14:35:55Z</time></trkpt><trkpt lat="51.48242012281239" lon="21.679944348332775"><ele>146.5</ele><time>2026-05-03T14:35:56Z</time></trkpt><trkpt lat="51.48232120147184" lon="21.680079492044083"><ele>146.75</ele><time>2026-05-03T14:35:57Z</time></trkpt><trkpt lat="51.48220961434308" lon="21.680171454523457"><ele>147.0</ele><time>2026-05-03T14:35:58Z</time></trkpt><trkpt lat="51.48210486252361" lon="21.680290279253605"><ele>147.75</ele><time>2026-05-03T14:35:59Z</time></trkpt><trkpt lat="51.482002795661884" lon="21.680415773691212"><ele>148.5</ele><time>2026-05-03T14:36:00Z</time></trkpt><trkpt lat="51.48191231992974" lon="21.68056130484954"><ele>149.25</ele><time>2026-05-03T14:36:01Z</time></trkpt><trkpt lat="51.481830050739234" lon="21.68071453082825"><ele>150.0</ele><time>2026-05-03T14:36:02Z</time></trkpt><trkpt lat="51.4817584777352" lon="21.680856318475964"><ele>150.0</ele><time>2026-05-03T14:36:03Z</time></trkpt><trkpt lat="51.48169235139229" lon="21.680964896338356"><ele>150.0</ele><time>2026-05-03T14:36:04Z</time></trkpt><trkpt lat="51.481641688111104" lon="21.681069493822225"><ele>150.0</ele><time>2026-05-03T14:36:05Z</time></trkpt><trkpt lat="51.481577644343886" lon="21.681165192771246"><ele>150.0</ele><time>2026-05-03T14:36:07Z</time></trkpt><trkpt lat="51.48150848095518" lon="21.68122897620866"><ele>150.0</ele><time>2026-05-03T14:37:08Z</time></trkpt><trkpt lat="51.48144185888565" lon="21.681315317356574"><ele>150.0</ele><time>2026-05-03T14:37:09Z</time></trkpt><trkpt lat="51.48138433914662" lon="21.68142680135136"><ele>149.8</ele><time>2026-05-03T14:37:10Z</time></trkpt><trkpt lat="51.481323371593405" lon="21.681525113294192"><ele>149.6</ele><time>2026-05-03T14:37:11Z</time></trkpt><trkpt lat="51.48124139989984" lon="21.681620783077516"><ele>149.4</ele><time>2026-05-03T14:37:12Z</time></trkpt><trkpt lat="51.481171147685615" lon="21.681720961049884"><ele>149.2</ele><time>2026-05-03T14:37:13Z</time></trkpt><trkpt lat="51.48110272950266" lon="21.681854223789117"><ele>149.0</ele><time>2026-05-03T14:37:14Z</time></trkpt><trkpt lat="51.48100878090463" lon="21.681984117397324"><ele>150.75</ele><time>2026-05-03T14:37:15Z</time></trkpt><trkpt lat="51.4809120107951" lon="21.682112283414586"><ele>152.5</ele><time>2026-05-03T14:37:16Z</time></trkpt><trkpt lat="51.48081926339657" lon="21.682252196812087"><ele>154.25</ele><time>2026-05-03T14:37:17Z</time></trkpt><trkpt lat="51.48072246549415" lon="21.68236239429239"><ele>156.0</ele><time>2026-05-03T14:37:18Z</time></trkpt><trkpt lat="51.48066182257089" lon="21.682484415156033"><ele>156.0</ele><time>2026-05-03T14:37:19Z</time></trkpt><trkpt lat="51.48059813942236" lon="21.68256445764077"><ele>156.0</ele><time>2026-05-03T14:37:20Z</time></trkpt><trkpt lat="51.480542215866045" lon="21.68264960380537"><ele>156.0</ele><time>2026-05-03T14:37:21Z</time></trkpt><trkpt lat="51.48046415349733" lon="21.68273287164985"><ele>156.0</ele><time>2026-05-03T14:37:22Z</time></trkpt><trkpt lat="51.48039587327084" lon="21.682830985003324"><ele>156.0</ele><time>2026-05-03T14:37:23Z</time></trkpt><trkpt lat="51.480255673847395" lon="21.683032177922616"><ele>155.0</ele><time>2026-05-03T14:37:25Z</time></trkpt><trkpt lat="51.480201538294104" lon="21.683145946191704"><ele>154.0</ele><time>2026-05-03T14:37:26Z</time></trkpt><trkpt lat="51.48013652032409" lon="21.68323885935046"><ele>153.0</ele><time>2026-05-03T14:37:27Z</time></trkpt><trkpt lat="51.480071167940764" lon="21.68333413992127"><ele>152.0</ele><time>2026-05-03T14:37:28Z</time></trkpt><trkpt lat="51.47999407641811" lon="21.68341241091692"><ele>151.0</ele><time>2026-05-03T14:37:29Z</time></trkpt><trkpt lat="51.479928147480166" lon="21.683508681781763"><ele>150.0</ele><time>2026-05-03T14:37:30Z</time></trkpt><trkpt lat="51.479859433408265" lon="21.683608895102807"><ele>149.83333333333334</ele><time>2026-05-03T14:37:31Z</time></trkpt><trkpt lat="51.4797973893294" lon="21.68372762607094"><ele>149.66666666666666</ele><time>2026-05-03T14:37:32Z</time></trkpt><trkpt lat="51.47971896590785" lon="21.683812678253275"><ele>149.5</ele><time>2026-05-03T14:37:33Z</time></trkpt><trkpt lat="51.47966185425442" lon="21.683928261343368"><ele>149.33333333333331</ele><time>2026-05-03T14:37:34Z</time></trkpt><trkpt lat="51.47959986466703" lon="21.684010280337255"><ele>149.16666666666666</ele><time>2026-05-03T14:37:35Z</time></trkpt><trkpt lat="51.47954422938287" lon="21.68409251610039"><ele>149.0</ele><time>2026-05-03T14:37:36Z</time></trkpt><trkpt lat="51.47949102824721" lon="21.684172071010543"><ele>149.0</ele><time>2026-05-03T14:37:37Z</time></trkpt><trkpt lat="51.479428000587454" lon="21.684236696894203"><ele>149.0</ele><time>2026-05-03T14:37:38Z</time></trkpt><trkpt lat="51.47934479626262" lon="21.684346368873516"><ele>149.0</ele><time>2026-05-03T14:37:40Z</time></trkpt><trkpt lat="51.479261784790054" lon="21.684440326434753"><ele>149.0</ele><time>2026-05-03T14:37:42Z</time></trkpt><trkpt lat="51.47919993071709" lon="21.684476849925307"><ele>149.0</ele><time>2026-05-03T14:37:45Z</time></trkpt><trkpt lat="51.47911617428168" lon="21.68453321569945"><ele>149.0</ele><time>2026-05-03T14:37:47Z</time></trkpt><trkpt lat="51.479049918262035" lon="21.68450819568596"><ele>148.66666666666666</ele><time>2026-05-03T14:37:48Z</time></trkpt><trkpt lat="51.47896789603926" lon="21.684487626194294"><ele>148.33333333333334</ele><time>2026-05-03T14:37:50Z</time></trkpt><trkpt lat="51.478868785975756" lon="21.684527454049146"><ele>148.0</ele><time>2026-05-03T14:37:54Z</time></trkpt><trkpt lat="51.47882091792875" lon="21.685101682295198"><ele>148.25</ele><time>2026-05-03T14:37:55Z</time></trkpt><trkpt lat="51.47873430861635" lon="21.685240207319946"><ele>148.5</ele><time>2026-05-03T14:37:56Z</time></trkpt><trkpt lat="51.478639856082715" lon="21.685382174737747"><ele>148.75</ele><time>2026-05-03T14:37:57Z</time></trkpt><trkpt lat="51.47854468044844" lon="21.6855351609931"><ele>149.0</ele><time>2026-05-03T14:37:58Z</time></trkpt><trkpt lat="51.478435408136704" lon="21.685697388309766"><ele>149.0</ele><time>2026-05-03T14:37:59Z</time></trkpt><trkpt lat="51.47832542100325" lon="21.685861625142543"><ele>149.0</ele><time>2026-05-03T14:38:00Z</time></trkpt><trkpt lat="51.478211974979224" lon="21.68602321773887"><ele>149.0</ele><time>2026-05-03T14:38:01Z</time></trkpt><trkpt lat="51.4780949858624" lon="21.686176479849376"><ele>149.0</ele><time>2026-05-03T14:38:02Z</time></trkpt><trkpt lat="51.47798368020995" lon="21.686324854272417"><ele>149.0</ele><time>2026-05-03T14:38:03Z</time></trkpt><trkpt lat="51.477883147933674" lon="21.68647942492814"><ele>149.0</ele><time>2026-05-03T14:38:04Z</time></trkpt><trkpt lat="51.4777834582962" lon="21.686616058772866"><ele>149.0</ele><time>2026-05-03T14:38:05Z</time></trkpt><trkpt lat="51.4777038514179" lon="21.686739373491196"><ele>149.16666666666666</ele><time>2026-05-03T14:38:06Z</time></trkpt><trkpt lat="51.47764043533234" lon="21.686846976400844"><ele>149.33333333333331</ele><time>2026-05-03T14:38:07Z</time></trkpt><trkpt lat="51.47757770107684" lon="21.68695144463449"><ele>149.5</ele><time>2026-05-03T14:38:08Z</time></trkpt><trkpt lat="51.47752003034479" lon="21.687045418602725"><ele>149.66666666666666</ele><time>2026-05-03T14:38:09Z</time></trkpt><trkpt lat="51.47746173226968" lon="21.687139376763124"><ele>149.83333333333334</ele><time>2026-05-03T14:38:10Z</time></trkpt><trkpt lat="51.47740614834185" lon="21.68722710788959"><ele>150.0</ele><time>2026-05-03T14:38:11Z</time></trkpt><trkpt lat="51.477354316909484" lon="21.68730856303002"><ele>149.99999999999997</ele><time>2026-05-03T14:38:12Z</time></trkpt><trkpt lat="51.47730083477891" lon="21.6873852540602"><ele>150.0</ele><time>2026-05-03T14:38:13Z</time></trkpt><trkpt lat="51.47724741488281" lon="21.687463837615084"><ele>150.0</ele><time>2026-05-03T14:38:14Z</time></trkpt><trkpt lat="51.47719495268352" lon="21.687550413310834"><ele>150.0</ele><time>2026-05-03T14:38:15Z</time></trkpt><trkpt lat="51.47714383956441" lon="21.687633303659666"><ele>150.0</ele><time>2026-05-03T14:38:16Z</time></trkpt><trkpt lat="51.47709319728166" lon="21.68771713622764"><ele>149.99999999999997</ele><time>2026-05-03T14:38:17Z</time></trkpt><trkpt lat="51.47704569686729" lon="21.687801666631206"><ele>150.0</ele><time>2026-05-03T14:38:18Z</time></trkpt><trkpt lat="51.47699830839412" lon="21.687879674207494"><ele>150.16666666666666</ele><time>2026-05-03T14:38:19Z</time></trkpt><trkpt lat="51.4769537449003" lon="21.68795221411827"><ele>150.33333333333334</ele><time>2026-05-03T14:38:20Z</time></trkpt><trkpt lat="51.4768893018" lon="21.688059064976"><ele>150.5</ele><time>2026-05-03T14:38:22Z</time></trkpt><trkpt lat="51.47681568648655" lon="21.688033568418835"><ele>150.66666666666669</ele><time>2026-05-03T14:38:24Z</time></trkpt><trkpt lat="51.47676487169859" lon="21.687931080791067"><ele>150.83333333333334</ele><time>2026-05-03T14:38:25Z</time></trkpt><trkpt lat="51.476699238093175" lon="21.68780513778093"><ele>151.0</ele><time>2026-05-03T14:38:26Z</time></trkpt><trkpt lat="51.476617645849856" lon="21.687683579495108"><ele>151.0</ele><time>2026-05-03T14:38:27Z</time></trkpt><trkpt lat="51.47653294076586" lon="21.687553052962492"><ele>151.0</ele><time>2026-05-03T14:38:28Z</time></trkpt><trkpt lat="51.4764469269957" lon="21.687418536423674"><ele>151.0</ele><time>2026-05-03T14:38:29Z</time></trkpt><trkpt lat="51.4763557333016" lon="21.687272922854376"><ele>151.0</ele><time>2026-05-03T14:38:30Z</time></trkpt><trkpt lat="51.47625110958494" lon="21.68710759637743"><ele>151.0</ele><time>2026-05-03T14:38:31Z</time></trkpt><trkpt lat="51.47615204915159" lon="21.68694133688264"><ele>151.0</ele><time>2026-05-03T14:38:32Z</time></trkpt><trkpt lat="51.47605629129677" lon="21.68676928078633"><ele>151.0</ele><time>2026-05-03T14:38:33Z</time></trkpt><trkpt lat="51.47596232284594" lon="21.686615095775547"><ele>151.0</ele><time>2026-05-03T14:38:34Z</time></trkpt><trkpt lat="51.47588189093702" lon="21.68646181721511"><ele>151.25</ele><time>2026-05-03T14:38:35Z</time></trkpt><trkpt lat="51.47579820370882" lon="21.686313883708976"><ele>151.5</ele><time>2026-05-03T14:38:36Z</time></trkpt><trkpt lat="51.47571200295319" lon="21.686165224994433"><ele>151.75</ele><time>2026-05-03T14:38:37Z</time></trkpt><trkpt lat="51.475623792657316" lon="21.686016555656746"><ele>152.0</ele><time>2026-05-03T14:38:38Z</time></trkpt><trkpt lat="51.47554593609089" lon="21.685886859277634"><ele>152.0</ele><time>2026-05-03T14:38:39Z</time></trkpt><trkpt lat="51.475458445649664" lon="21.685756144785756"><ele>152.0</ele><time>2026-05-03T14:38:40Z</time></trkpt><trkpt lat="51.47536905060236" lon="21.685594963797598"><ele>152.0</ele><time>2026-05-03T14:38:41Z</time></trkpt><trkpt lat="51.47528049319223" lon="21.685429672505613"><ele>152.0</ele><time>2026-05-03T14:38:42Z</time></trkpt><trkpt lat="51.47517758160989" lon="21.685277697693234"><ele>152.25</ele><time>2026-05-03T14:38:43Z</time></trkpt><trkpt lat="51.47508824577953" lon="21.685132423271938"><ele>152.5</ele><time>2026-05-03T14:38:44Z</time></trkpt><trkpt lat="51.47500617236998" lon="21.684999605117113"><ele>152.75</ele><time>2026-05-03T14:38:45Z</time></trkpt><trkpt lat="51.47493084437679" lon="21.68487755732865"><ele>153.0</ele><time>2026-05-03T14:38:46Z</time></trkpt><trkpt lat="51.474855153447734" lon="21.684752662942163"><ele>153.0</ele><time>2026-05-03T14:38:47Z</time></trkpt><trkpt lat="51.474773374874964" lon="21.68462770908351"><ele>153.0</ele><time>2026-05-03T14:38:48Z</time></trkpt><trkpt lat="51.47469633105393" lon="21.684502238544795"><ele>153.0</ele><time>2026-05-03T14:38:49Z</time></trkpt><trkpt lat="51.474631534107544" lon="21.68438030929511"><ele>153.0</ele><time>2026-05-03T14:38:50Z</time></trkpt><trkpt lat="51.47456276327448" lon="21.684254642875292"><ele>153.0</ele><time>2026-05-03T14:38:51Z</time></trkpt><trkpt lat="51.47449818903851" lon="21.6841407516245"><ele>152.66666666666666</ele><time>2026-05-03T14:38:52Z</time></trkpt><trkpt lat="51.4744404865392" lon="21.68403035335244"><ele>152.33333333333334</ele><time>2026-05-03T14:38:53Z</time></trkpt><trkpt lat="51.474388387750395" lon="21.68393910977506"><ele>152.0</ele><time>2026-05-03T14:38:54Z</time></trkpt><trkpt lat="51.47434467360557" lon="21.683864296973557"><ele>151.66666666666669</ele><time>2026-05-03T14:38:55Z</time></trkpt><trkpt lat="51.47429790119462" lon="21.683793596417424"><ele>151.33333333333334</ele><time>2026-05-03T14:38:56Z</time></trkpt><trkpt lat="51.474203529664685" lon="21.683683311093777"><ele>151.0</ele><time>2026-05-03T14:38:58Z</time></trkpt><trkpt lat="51.474128480028675" lon="21.6836189677317"><ele>151.0</ele><time>2026-05-03T14:39:00Z</time></trkpt><trkpt lat="51.474052933746414" lon="21.683721967488555"><ele>151.0</ele><time>2026-05-03T14:39:02Z</time></trkpt><trkpt lat="51.474048157478656" lon="21.683851193699855"><ele>151.0</ele><time>2026-05-03T14:39:03Z</time></trkpt><trkpt lat="51.4740353893899" lon="21.683967556232556"><ele>151.0</ele><time>2026-05-03T14:39:04Z</time></trkpt><trkpt lat="51.474012091267795" lon="21.68408656504805"><ele>151.0</ele><time>2026-05-03T14:39:05Z</time></trkpt><trkpt lat="51.47398764770868" lon="21.68422376475379"><ele>151.0</ele><time>2026-05-03T14:39:06Z</time></trkpt><trkpt lat="51.47395777912161" lon="21.68437841422017"><ele>151.0</ele><time>2026-05-03T14:39:07Z</time></trkpt><trkpt lat="51.47392206275841" lon="21.68454432730497"><ele>151.0</ele><time>2026-05-03T14:39:08Z</time></trkpt><trkpt lat="51.473899655770595" lon="21.684718561386056"><ele>151.0</ele><time>2026-05-03T14:39:09Z</time></trkpt><trkpt lat="51.47386691378016" lon="21.684878693869212"><ele>151.0</ele><time>2026-05-03T14:39:10Z</time></trkpt><trkpt lat="51.47383597334608" lon="21.685030015676187"><ele>151.0</ele><time>2026-05-03T14:39:11Z</time></trkpt><trkpt lat="51.47379073467797" lon="21.685169877204796"><ele>151.0</ele><time>2026-05-03T14:39:12Z</time></trkpt><trkpt lat="51.47375759731964" lon="21.68533063077709"><ele>151.0</ele><time>2026-05-03T14:39:13Z</time></trkpt><trkpt lat="51.47373905962948" lon="21.685504127284272"><ele>151.0</ele><time>2026-05-03T14:39:14Z</time></trkpt><trkpt lat="51.47370495151899" lon="21.685671153086922"><ele>151.0</ele><time>2026-05-03T14:39:15Z</time></trkpt><trkpt lat="51.47365700462663" lon="21.68583262827218"><ele>151.0</ele><time>2026-05-03T14:39:16Z</time></trkpt><trkpt lat="51.473618978070256" lon="21.686009888165046"><ele>151.0</ele><time>2026-05-03T14:39:17Z</time></trkpt><trkpt lat="51.473583187788606" lon="21.686176727086846"><ele>151.0</ele><time>2026-05-03T14:39:18Z</time></trkpt><trkpt lat="51.473570287052866" lon="21.686337317113118"><ele>151.0</ele><time>2026-05-03T14:39:19Z</time></trkpt><trkpt lat="51.473535103789764" lon="21.68648505937536"><ele>151.0</ele><time>2026-05-03T14:39:20Z</time></trkpt><trkpt lat="51.47351201508101" lon="21.686648611712393"><ele>151.0</ele><time>2026-05-03T14:39:21Z</time></trkpt><trkpt lat="51.47347577999645" lon="21.686812378188698"><ele>151.25</ele><time>2026-05-03T14:39:22Z</time></trkpt><trkpt lat="51.47342953364282" lon="21.686991484515787"><ele>151.5</ele><time>2026-05-03T14:39:23Z</time></trkpt><trkpt lat="51.47338610320695" lon="21.687189289345273"><ele>151.75</ele><time>2026-05-03T14:39:24Z</time></trkpt><trkpt lat="51.47333415389064" lon="21.68739362945288"><ele>152.0</ele><time>2026-05-03T14:39:25Z</time></trkpt><trkpt lat="51.473281332059024" lon="21.687607406663716"><ele>152.25</ele><time>2026-05-03T14:39:26Z</time></trkpt><trkpt lat="51.47323051512962" lon="21.687795436663347"><ele>152.5</ele><time>2026-05-03T14:39:27Z</time></trkpt><trkpt lat="51.4731998387386" lon="21.68799866334137"><ele>152.75</ele><time>2026-05-03T14:39:28Z</time></trkpt><trkpt lat="51.47315582993786" lon="21.68820290008916"><ele>153.0</ele><time>2026-05-03T14:39:29Z</time></trkpt><trkpt lat="51.47312044227409" lon="21.688432950060992"><ele>152.75</ele><time>2026-05-03T14:39:30Z</time></trkpt><trkpt lat="51.473080057744475" lon="21.688656404508937"><ele>152.5</ele><time>2026-05-03T14:39:31Z</time></trkpt><trkpt lat="51.47303576101098" lon="21.688887068128867"><ele>152.25</ele><time>2026-05-03T14:39:32Z</time></trkpt><trkpt lat="51.472975262351255" lon="21.689104445591436"><ele>152.0</ele><time>2026-05-03T14:39:33Z</time></trkpt><trkpt lat="51.47293697651375" lon="21.68933470901602"><ele>152.0</ele><time>2026-05-03T14:39:34Z</time></trkpt><trkpt lat="51.4728949939751" lon="21.689556334332327"><ele>152.0</ele><time>2026-05-03T14:39:35Z</time></trkpt><trkpt lat="51.472855242790104" lon="21.68977825880738"><ele>152.0</ele><time>2026-05-03T14:39:36Z</time></trkpt><trkpt lat="51.472807695801166" lon="21.690008223866744"><ele>152.0</ele><time>2026-05-03T14:39:37Z</time></trkpt><trkpt lat="51.472763827527025" lon="21.6902386873473"><ele>152.0</ele><time>2026-05-03T14:39:38Z</time></trkpt><trkpt lat="51.47272141228134" lon="21.69047618820274"><ele>152.0</ele><time>2026-05-03T14:39:39Z</time></trkpt><trkpt lat="51.472669645825604" lon="21.690717121391888"><ele>152.0</ele><time>2026-05-03T14:39:40Z</time></trkpt><trkpt lat="51.47262295759352" lon="21.690953625528422"><ele>152.0</ele><time>2026-05-03T14:39:41Z</time></trkpt><trkpt lat="51.47257310332917" lon="21.691189919177237"><ele>152.0</ele><time>2026-05-03T14:39:42Z</time></trkpt><trkpt lat="51.472519817575304" lon="21.691433206477832"><ele>152.0</ele><time>2026-05-03T14:39:43Z</time></trkpt><trkpt lat="51.47246481464786" lon="21.69167494367741"><ele>152.0</ele><time>2026-05-03T14:39:44Z</time></trkpt><trkpt lat="51.4724038627011" lon="21.6919165749633"><ele>152.0</ele><time>2026-05-03T14:39:45Z</time></trkpt><trkpt lat="51.472350597812465" lon="21.692153138016096"><ele>152.0</ele><time>2026-05-03T14:39:46Z</time></trkpt><trkpt lat="51.47230078594106" lon="21.69237445380703"><ele>152.0</ele><time>2026-05-03T14:39:47Z</time></trkpt><trkpt lat="51.47225224971673" lon="21.692581485597156"><ele>152.0</ele><time>2026-05-03T14:39:48Z</time></trkpt><trkpt lat="51.47220743050077" lon="21.69278605457477"><ele>152.0</ele><time>2026-05-03T14:39:49Z</time></trkpt><trkpt lat="51.47216087782342" lon="21.692966231285922"><ele>152.0</ele><time>2026-05-03T14:39:50Z</time></trkpt><trkpt lat="51.47212871650097" lon="21.69310967252418"><ele>152.0</ele><time>2026-05-03T14:39:51Z</time></trkpt><trkpt lat="51.47211442335046" lon="21.693250567006068"><ele>152.0</ele><time>2026-05-03T14:39:52Z</time></trkpt><trkpt lat="51.472104988622206" lon="21.693417077375724"><ele>152.0</ele><time>2026-05-03T14:39:53Z</time></trkpt><trkpt lat="51.472101662498666" lon="21.693610331038858"><ele>152.0</ele><time>2026-05-03T14:39:54Z</time></trkpt><trkpt lat="51.472094168445096" lon="21.693822881446774"><ele>152.0</ele><time>2026-05-03T14:39:55Z</time></trkpt><trkpt lat="51.4720847745986" lon="21.694054536358845"><ele>151.75</ele><time>2026-05-03T14:39:56Z</time></trkpt><trkpt lat="51.47207286046638" lon="21.694292177883142"><ele>151.5</ele><time>2026-05-03T14:39:57Z</time></trkpt><trkpt lat="51.47206010625707" lon="21.694478567738607"><ele>151.25</ele><time>2026-05-03T14:39:58Z</time></trkpt><trkpt lat="51.47204825691748" lon="21.694651174086054"><ele>151.0</ele><time>2026-05-03T14:39:59Z</time></trkpt><trkpt lat="51.47203883166384" lon="21.69479704065795"><ele>151.0</ele><time>2026-05-03T14:40:00Z</time></trkpt><trkpt lat="51.47203596963326" lon="21.69494948968527"><ele>151.0</ele><time>2026-05-03T14:40:01Z</time></trkpt><trkpt lat="51.472036241507254" lon="21.695080724949246"><ele>151.0</ele><time>2026-05-03T14:40:02Z</time></trkpt><trkpt lat="51.47203360481205" lon="21.695194509757656"><ele>151.0</ele><time>2026-05-03T14:40:03Z</time></trkpt><trkpt lat="51.472020151701365" lon="21.69531042001643"><ele>151.0</ele><time>2026-05-03T14:40:04Z</time></trkpt><trkpt lat="51.472009678232354" lon="21.695410595621684"><ele>151.0</ele><time>2026-05-03T14:40:05Z</time></trkpt><trkpt lat="51.47200946429591" lon="21.69560171191333"><ele>151.0</ele><time>2026-05-03T14:40:07Z</time></trkpt><trkpt lat="51.47206577227234" lon="21.6957768747685"><ele>151.0</ele><time>2026-05-03T14:40:08Z</time></trkpt><trkpt lat="51.472104759548344" lon="21.695975830828264"><ele>151.0</ele><time>2026-05-03T14:40:09Z</time></trkpt><trkpt lat="51.47215059130391" lon="21.69620274964216"><ele>151.0</ele><time>2026-05-03T14:40:10Z</time></trkpt><trkpt lat="51.47220017722451" lon="21.69644666260577"><ele>151.0</ele><time>2026-05-03T14:40:11Z</time></trkpt><trkpt lat="51.47225300599499" lon="21.696699005264648"><ele>151.0</ele><time>2026-05-03T14:40:12Z</time></trkpt><trkpt lat="51.47230552299295" lon="21.696970897132175"><ele>151.0</ele><time>2026-05-03T14:40:13Z</time></trkpt><trkpt lat="51.472363373685184" lon="21.697262340505507"><ele>150.66666666666669</ele><time>2026-05-03T14:40:14Z</time></trkpt><trkpt lat="51.47242444752484" lon="21.69755671970208"><ele>150.33333333333334</ele><time>2026-05-03T14:40:15Z</time></trkpt><trkpt lat="51.472485718602314" lon="21.697859634182873"><ele>150.0</ele><time>2026-05-03T14:40:16Z</time></trkpt><trkpt lat="51.472553679263704" lon="21.6981700546225"><ele>149.66666666666666</ele><time>2026-05-03T14:40:17Z</time></trkpt><trkpt lat="51.47262084474595" lon="21.698488723773202"><ele>149.33333333333331</ele><time>2026-05-03T14:40:18Z</time></trkpt><trkpt lat="51.47269063271439" lon="21.698815277125046"><ele>149.0</ele><time>2026-05-03T14:40:19Z</time></trkpt><trkpt lat="51.47276201539636" lon="21.69914594831991"><ele>147.5</ele><time>2026-05-03T14:40:20Z</time></trkpt><trkpt lat="51.47283490924463" lon="21.699483718735127"><ele>146.0</ele><time>2026-05-03T14:40:21Z</time></trkpt><trkpt lat="51.47290953238883" lon="21.699830838248484"><ele>146.0</ele><time>2026-05-03T14:40:22Z</time></trkpt><trkpt lat="51.472986121903844" lon="21.700180727893265"><ele>146.0</ele><time>2026-05-03T14:40:23Z</time></trkpt><trkpt lat="51.47306234050564" lon="21.700537581963992"><ele>146.0</ele><time>2026-05-03T14:40:24Z</time></trkpt><trkpt lat="51.47313828532875" lon="21.700897751763442"><ele>146.0</ele><time>2026-05-03T14:40:25Z</time></trkpt><trkpt lat="51.47321432413607" lon="21.70125212023986"><ele>145.66666666666666</ele><time>2026-05-03T14:40:26Z</time></trkpt><trkpt lat="51.473290142921925" lon="21.701585885107136"><ele>145.33333333333334</ele><time>2026-05-03T14:40:27Z</time></trkpt><trkpt lat="51.4733559678275" lon="21.70190776826634"><ele>145.0</ele><time>2026-05-03T14:40:28Z</time></trkpt><trkpt lat="51.47341688517054" lon="21.70219727044552"><ele>144.66666666666669</ele><time>2026-05-03T14:40:29Z</time></trkpt><trkpt lat="51.47347487449058" lon="21.70247444201022"><ele>144.33333333333334</ele><time>2026-05-03T14:40:30Z</time></trkpt><trkpt lat="51.47353189517118" lon="21.702756869775538"><ele>144.0</ele><time>2026-05-03T14:40:31Z</time></trkpt><trkpt lat="51.473589924936114" lon="21.703046968706964"><ele>144.0</ele><time>2026-05-03T14:40:32Z</time></trkpt><trkpt lat="51.47365191193538" lon="21.703345934960627"><ele>144.0</ele><time>2026-05-03T14:40:33Z</time></trkpt><trkpt lat="51.4737193113487" lon="21.70365201637413"><ele>144.0</ele><time>2026-05-03T14:40:34Z</time></trkpt><trkpt lat="51.47378685784073" lon="21.703969320340985"><ele>144.0</ele><time>2026-05-03T14:40:35Z</time></trkpt><trkpt lat="51.47385297084868" lon="21.70429313918399"><ele>144.0</ele><time>2026-05-03T14:40:36Z</time></trkpt><trkpt lat="51.47392322818827" lon="21.70462435199671"><ele>144.0</ele><time>2026-05-03T14:40:37Z</time></trkpt><trkpt lat="51.47399526318467" lon="21.70496972246479"><ele>142.5</ele><time>2026-05-03T14:40:38Z</time></trkpt><trkpt lat="51.47407210858187" lon="21.705310365351835"><ele>141.0</ele><time>2026-05-03T14:40:39Z</time></trkpt><trkpt lat="51.47414793166106" lon="21.705655110803534"><ele>141.0</ele><time>2026-05-03T14:40:40Z</time></trkpt><trkpt lat="51.47421453288765" lon="21.705974044124112"><ele>141.0</ele><time>2026-05-03T14:40:41Z</time></trkpt><trkpt lat="51.47427266691827" lon="21.706259927933107"><ele>141.0</ele><time>2026-05-03T14:40:42Z</time></trkpt><trkpt lat="51.47432699100422" lon="21.706510913416416"><ele>141.0</ele><time>2026-05-03T14:40:43Z</time></trkpt><trkpt lat="51.47437489710817" lon="21.706734191872414"><ele>141.0</ele><time>2026-05-03T14:40:44Z</time></trkpt><trkpt lat="51.47441831621143" lon="21.706950578889874"><ele>141.0</ele><time>2026-05-03T14:40:45Z</time></trkpt><trkpt lat="51.47445932388417" lon="21.707162444703425"><ele>141.0</ele><time>2026-05-03T14:40:46Z</time></trkpt><trkpt lat="51.4744983249462" lon="21.707374766428153"><ele>141.0</ele><time>2026-05-03T14:40:47Z</time></trkpt><trkpt lat="51.47453888166152" lon="21.70757979287547"><ele>141.0</ele><time>2026-05-03T14:40:48Z</time></trkpt><trkpt lat="51.474580766133975" lon="21.70776070188748"><ele>141.0</ele><time>2026-05-03T14:40:49Z</time></trkpt><trkpt lat="51.47461289609642" lon="21.707902550061757"><ele>141.0</ele><time>2026-05-03T14:40:50Z</time></trkpt><trkpt lat="51.47463195608533" lon="21.708004807886308"><ele>141.0</ele><time>2026-05-03T14:40:51Z</time></trkpt><trkpt lat="51.47467328936358" lon="21.70812251907447"><ele>141.25</ele><time>2026-05-03T14:40:53Z</time></trkpt><trkpt lat="51.474814277521084" lon="21.708051350822583"><ele>141.5</ele><time>2026-05-03T14:40:54Z</time></trkpt><trkpt lat="51.47492381744391" lon="21.7080027303538"><ele>141.75</ele><time>2026-05-03T14:40:55Z</time></trkpt><trkpt lat="51.47504627493344" lon="21.70794470670892"><ele>142.0</ele><time>2026-05-03T14:40:56Z</time></trkpt><trkpt lat="51.47518512450776" lon="21.70790733475677"><ele>142.0</ele><time>2026-05-03T14:40:57Z</time></trkpt><trkpt lat="51.4753374625911" lon="21.707841589450652"><ele>142.0</ele><time>2026-05-03T14:40:58Z</time></trkpt><trkpt lat="51.475493291408384" lon="21.707745587786675"><ele>142.0</ele><time>2026-05-03T14:40:59Z</time></trkpt><trkpt lat="51.47566864955815" lon="21.707669480862762"><ele>141.33333333333334</ele><time>2026-05-03T14:41:00Z</time></trkpt><trkpt lat="51.475846475257036" lon="21.70758981365524"><ele>140.66666666666666</ele><time>2026-05-03T14:41:01Z</time></trkpt><trkpt lat="51.47603207806801" lon="21.707502929938933"><ele>140.0</ele><time>2026-05-03T14:41:02Z</time></trkpt><trkpt lat="51.476229402627354" lon="21.707438293090494"><ele>140.0</ele><time>2026-05-03T14:41:03Z</time></trkpt><trkpt lat="51.47641872994565" lon="21.70733005140089"><ele>140.0</ele><time>2026-05-03T14:41:04Z</time></trkpt><trkpt lat="51.4766200117683" lon="21.70724102483818"><ele>140.0</ele><time>2026-05-03T14:41:05Z</time></trkpt><trkpt lat="51.47682402784609" lon="21.707147569329027"><ele>140.0</ele><time>2026-05-03T14:41:06Z</time></trkpt><trkpt lat="51.4770398554462" lon="21.70707280878867"><ele>140.0</ele><time>2026-05-03T14:41:07Z</time></trkpt><trkpt lat="51.477249929444724" lon="21.706949409657746"><ele>140.0</ele><time>2026-05-03T14:41:08Z</time></trkpt><trkpt lat="51.477468331852144" lon="21.70684891469769"><ele>139.5</ele><time>2026-05-03T14:41:09Z</time></trkpt><trkpt lat="51.47769348772141" lon="21.70674653161846"><ele>139.0</ele><time>2026-05-03T14:41:10Z</time></trkpt><trkpt lat="51.4779137228483" lon="21.706645029174577"><ele>138.0</ele><time>2026-05-03T14:41:11Z</time></trkpt><trkpt lat="51.478123915321525" lon="21.70657875593119"><ele>137.0</ele><time>2026-05-03T14:41:12Z</time></trkpt><trkpt lat="51.478320834265126" lon="21.706491971124063"><ele>136.0</ele><time>2026-05-03T14:41:13Z</time></trkpt><trkpt lat="51.47851610970174" lon="21.706406676058666"><ele>136.0</ele><time>2026-05-03T14:41:14Z</time></trkpt><trkpt lat="51.478707218956636" lon="21.706323747263433"><ele>136.0</ele><time>2026-05-03T14:41:15Z</time></trkpt><trkpt lat="51.47888252959244" lon="21.70624767410477"><ele>136.0</ele><time>2026-05-03T14:41:16Z</time></trkpt><trkpt lat="51.479029682710475" lon="21.706183819306183"><ele>136.0</ele><time>2026-05-03T14:41:17Z</time></trkpt><trkpt lat="51.479159954644146" lon="21.706127289792356"><ele>136.0</ele><time>2026-05-03T14:41:18Z</time></trkpt><trkpt lat="51.47928552409111" lon="21.706071564870445"><ele>136.0</ele><time>2026-05-03T14:41:19Z</time></trkpt><trkpt lat="51.47941411118884" lon="21.705988798315026"><ele>136.0</ele><time>2026-05-03T14:41:20Z</time></trkpt><trkpt lat="51.479556939003686" lon="21.70594351626028"><ele>135.75</ele><time>2026-05-03T14:41:21Z</time></trkpt><trkpt lat="51.479688469996894" lon="21.705896232456375"><ele>135.5</ele><time>2026-05-03T14:41:22Z</time></trkpt><trkpt lat="51.47980579208977" lon="21.705835457140374"><ele>135.25</ele><time>2026-05-03T14:41:23Z</time></trkpt><trkpt lat="51.479932082156246" lon="21.705778924363536"><ele>135.0</ele><time>2026-05-03T14:41:24Z</time></trkpt><trkpt lat="51.48004775749227" lon="21.70569860844489"><ele>135.0</ele><time>2026-05-03T14:41:25Z</time></trkpt><trkpt lat="51.48018268155599" lon="21.705642344871336"><ele>135.0</ele><time>2026-05-03T14:41:26Z</time></trkpt><trkpt lat="51.48032470502085" lon="21.70559381729491"><ele>135.0</ele><time>2026-05-03T14:41:27Z</time></trkpt><trkpt lat="51.48047508189327" lon="21.705555434142763"><ele>135.0</ele><time>2026-05-03T14:41:28Z</time></trkpt><trkpt lat="51.48062421363856" lon="21.7054927713999"><ele>134.66666666666666</ele><time>2026-05-03T14:41:29Z</time></trkpt><trkpt lat="51.480770114933726" lon="21.705422316393296"><ele>134.33333333333331</ele><time>2026-05-03T14:41:30Z</time></trkpt><trkpt lat="51.48091460848125" lon="21.705347168566785"><ele>134.0</ele><time>2026-05-03T14:41:31Z</time></trkpt><trkpt lat="51.48106200296285" lon="21.705255380597208"><ele>134.33333333333331</ele><time>2026-05-03T14:41:32Z</time></trkpt><trkpt lat="51.48121363353496" lon="21.70521189775056"><ele>134.66666666666666</ele><time>2026-05-03T14:41:33Z</time></trkpt><trkpt lat="51.48136474379994" lon="21.705125955033374"><ele>135.0</ele><time>2026-05-03T14:41:34Z</time></trkpt><trkpt lat="51.48151272873539" lon="21.705038698312055"><ele>134.33333333333334</ele><time>2026-05-03T14:41:35Z</time></trkpt><trkpt lat="51.48166813820698" lon="21.704987905570423"><ele>133.66666666666669</ele><time>2026-05-03T14:41:36Z</time></trkpt><trkpt lat="51.48183424944544" lon="21.704935998107025"><ele>133.0</ele><time>2026-05-03T14:41:37Z</time></trkpt><trkpt lat="51.48199630662341" lon="21.704852451439095"><ele>132.75</ele><time>2026-05-03T14:41:38Z</time></trkpt><trkpt lat="51.48213204514499" lon="21.704799294745843"><ele>132.5</ele><time>2026-05-03T14:41:39Z</time></trkpt><trkpt lat="51.48223446130985" lon="21.70478364797837"><ele>132.25</ele><time>2026-05-03T14:41:40Z</time></trkpt><trkpt lat="51.48234157450032" lon="21.704746438407373"><ele>132.0</ele><time>2026-05-03T14:41:41Z</time></trkpt><trkpt lat="51.48246065548172" lon="21.704659930175815"><ele>132.0</ele><time>2026-05-03T14:41:42Z</time></trkpt><trkpt lat="51.482576226438084" lon="21.704612889230688"><ele>132.0</ele><time>2026-05-03T14:41:43Z</time></trkpt><trkpt lat="51.482698821607435" lon="21.704593475079918"><ele>132.0</ele><time>2026-05-03T14:41:44Z</time></trkpt><trkpt lat="51.48282348672192" lon="21.70454864476584"><ele>132.0</ele><time>2026-05-03T14:41:45Z</time></trkpt><trkpt lat="51.482953820024015" lon="21.70451694854907"><ele>132.0</ele><time>2026-05-03T14:41:46Z</time></trkpt><trkpt lat="51.48308760695021" lon="21.704453525160492"><ele>132.0</ele><time>2026-05-03T14:41:47Z</time></trkpt><trkpt lat="51.483213087823884" lon="21.704382397362433"><ele>132.0</ele><time>2026-05-03T14:41:48Z</time></trkpt><trkpt lat="51.483349265029865" lon="21.704343843574602"><ele>132.0</ele><time>2026-05-03T14:41:49Z</time></trkpt><trkpt lat="51.48348368438061" lon="21.70429594336932"><ele>132.0</ele><time>2026-05-03T14:41:50Z</time></trkpt><trkpt lat="51.483614212846234" lon="21.704221790300462"><ele>132.0</ele><time>2026-05-03T14:41:51Z</time></trkpt><trkpt lat="51.483756771686885" lon="21.704151442201862"><ele>132.0</ele><time>2026-05-03T14:41:52Z</time></trkpt><trkpt lat="51.48390620381809" lon="21.704076315861467"><ele>132.0</ele><time>2026-05-03T14:41:53Z</time></trkpt><trkpt lat="51.4840557471348" lon="21.70400554749646"><ele>131.33333333333334</ele><time>2026-05-03T14:41:54Z</time></trkpt><trkpt lat="51.48420529390315" lon="21.70393646550463"><ele>130.66666666666669</ele><time>2026-05-03T14:41:55Z</time></trkpt><trkpt lat="51.48435403177188" lon="21.70385608507826"><ele>130.0</ele><time>2026-05-03T14:41:56Z</time></trkpt><trkpt lat="51.48450403455256" lon="21.70376812537463"><ele>130.0</ele><time>2026-05-03T14:41:57Z</time></trkpt><trkpt lat="51.48465524502875" lon="21.703695062174692"><ele>130.0</ele><time>2026-05-03T14:41:58Z</time></trkpt><trkpt lat="51.484785497623456" lon="21.70359974406722"><ele>130.0</ele><time>2026-05-03T14:41:59Z</time></trkpt><trkpt lat="51.48492935633892" lon="21.703535902304715"><ele>130.0</ele><time>2026-05-03T14:42:00Z</time></trkpt><trkpt lat="51.48506691748764" lon="21.703458018834507"><ele>130.0</ele><time>2026-05-03T14:42:01Z</time></trkpt><trkpt lat="51.485206449469665" lon="21.703427021928118"><ele>130.0</ele><time>2026-05-03T14:42:02Z</time></trkpt><trkpt lat="51.48533521003212" lon="21.70341915546131"><ele>130.0</ele><time>2026-05-03T14:42:03Z</time></trkpt><trkpt lat="51.48544865516586" lon="21.703411379503724"><ele>130.0</ele><time>2026-05-03T14:42:04Z</time></trkpt><trkpt lat="51.485567348862304" lon="21.70340516301358"><ele>130.0</ele><time>2026-05-03T14:42:05Z</time></trkpt><trkpt lat="51.485695258328576" lon="21.70338391097915"><ele>130.0</ele><time>2026-05-03T14:42:06Z</time></trkpt><trkpt lat="51.48582340591365" lon="21.703363537512516"><ele>130.0</ele><time>2026-05-03T14:42:07Z</time></trkpt><trkpt lat="51.4859447826679" lon="21.703352816076066"><ele>130.0</ele><time>2026-05-03T14:42:08Z</time></trkpt><trkpt lat="51.48607863388026" lon="21.703345406700933"><ele>130.0</ele><time>2026-05-03T14:42:09Z</time></trkpt><trkpt lat="51.48621951290733" lon="21.70332630355381"><ele>130.0</ele><time>2026-05-03T14:42:10Z</time></trkpt><trkpt lat="51.48636807366428" lon="21.703298597283947"><ele>130.0</ele><time>2026-05-03T14:42:11Z</time></trkpt><trkpt lat="51.48650562971395" lon="21.70325440354469"><ele>129.5</ele><time>2026-05-03T14:42:12Z</time></trkpt><trkpt lat="51.48662232936482" lon="21.70322225376981"><ele>129.0</ele><time>2026-05-03T14:42:13Z</time></trkpt><trkpt lat="51.486720372843024" lon="21.70317670366262"><ele>128.5</ele><time>2026-05-03T14:42:14Z</time></trkpt><trkpt lat="51.48683756727137" lon="21.703082985206958"><ele>128.0</ele><time>2026-05-03T14:42:15Z</time></trkpt><trkpt lat="51.486962159220695" lon="21.7030469465536"><ele>128.0</ele><time>2026-05-03T14:42:16Z</time></trkpt><trkpt lat="51.48709371266946" lon="21.703003131290433"><ele>128.0</ele><time>2026-05-03T14:42:17Z</time></trkpt><trkpt lat="51.487223693876416" lon="21.70291251442322"><ele>128.0</ele><time>2026-05-03T14:42:18Z</time></trkpt><trkpt lat="51.48734302443511" lon="21.70283237193615"><ele>128.0</ele><time>2026-05-03T14:42:19Z</time></trkpt><trkpt lat="51.48745555958359" lon="21.702756421728715"><ele>128.0</ele><time>2026-05-03T14:42:20Z</time></trkpt><trkpt lat="51.487563232398465" lon="21.70270707586141"><ele>128.0</ele><time>2026-05-03T14:42:21Z</time></trkpt><trkpt lat="51.487667758979605" lon="21.702634366703002"><ele>128.0</ele><time>2026-05-03T14:42:22Z</time></trkpt><trkpt lat="51.487774289487106" lon="21.702580145222935"><ele>128.0</ele><time>2026-05-03T14:42:23Z</time></trkpt><trkpt lat="51.48788044713029" lon="21.70251440495292"><ele>127.5</ele><time>2026-05-03T14:42:24Z</time></trkpt><trkpt lat="51.487999411644005" lon="21.702456399527225"><ele>127.0</ele><time>2026-05-03T14:42:25Z</time></trkpt><trkpt lat="51.48810822790671" lon="21.70239416509265"><ele>126.5</ele><time>2026-05-03T14:42:26Z</time></trkpt><trkpt lat="51.48822158552188" lon="21.702329333495836"><ele>126.0</ele><time>2026-05-03T14:42:27Z</time></trkpt><trkpt lat="51.48831528475006" lon="21.70227501785976"><ele>126.0</ele><time>2026-05-03T14:42:28Z</time></trkpt><trkpt lat="51.48838922381731" lon="21.70220497511327"><ele>126.0</ele><time>2026-05-03T14:42:29Z</time></trkpt><trkpt lat="51.488466135482696" lon="21.702184399554195"><ele>126.0</ele><time>2026-05-03T14:42:30Z</time></trkpt><trkpt lat="51.488526774627076" lon="21.702150528206957"><ele>126.0</ele><time>2026-05-03T14:42:31Z</time></trkpt><trkpt lat="51.48859566682229" lon="21.702138436890923"><ele>126.0</ele><time>2026-05-03T14:42:33Z</time></trkpt><trkpt lat="51.48858812581349" lon="21.701929696558757"><ele>126.0</ele><time>2026-05-03T14:42:36Z</time></trkpt><trkpt lat="51.48848368470979" lon="21.701816677136854"><ele>126.19999999999999</ele><time>2026-05-03T14:42:38Z</time></trkpt><trkpt lat="51.488405820915546" lon="21.701725214221607"><ele>126.39999999999999</ele><time>2026-05-03T14:42:39Z</time></trkpt><trkpt lat="51.488320846093636" lon="21.70162382730958"><ele>126.6</ele><time>2026-05-03T14:42:40Z</time></trkpt><trkpt lat="51.48823065668837" lon="21.701514561740556"><ele>126.8</ele><time>2026-05-03T14:42:41Z</time></trkpt><trkpt lat="51.48814723720668" lon="21.701412481164784"><ele>127.0</ele><time>2026-05-03T14:42:42Z</time></trkpt><trkpt lat="51.48806868024337" lon="21.701315948657527"><ele>127.0</ele><time>2026-05-03T14:42:43Z</time></trkpt><trkpt lat="51.48799996284727" lon="21.701228421563656"><ele>126.99999999999999</ele><time>2026-05-03T14:42:44Z</time></trkpt><trkpt lat="51.48793815549717" lon="21.70114579956589"><ele>126.99999999999999</ele><time>2026-05-03T14:42:45Z</time></trkpt><trkpt lat="51.48786365161614" lon="21.701046513095854"><ele>127.0</ele><time>2026-05-03T14:42:46Z</time></trkpt><trkpt lat="51.48777474844781" lon="21.700930472885"><ele>127.0</ele><time>2026-05-03T14:42:47Z</time></trkpt><trkpt lat="51.48767820229571" lon="21.700841109046106"><ele>127.5</ele><time>2026-05-03T14:42:48Z</time></trkpt><trkpt lat="51.48758484902328" lon="21.7007249917244"><ele>128.0</ele><time>2026-05-03T14:42:49Z</time></trkpt><trkpt lat="51.487481478942314" lon="21.700623817547065"><ele>128.5</ele><time>2026-05-03T14:42:50Z</time></trkpt><trkpt lat="51.48737698525607" lon="21.700506779933917"><ele>129.0</ele><time>2026-05-03T14:42:51Z</time></trkpt><trkpt lat="51.487255736346775" lon="21.700394270496638"><ele>129.0</ele><time>2026-05-03T14:42:52Z</time></trkpt><trkpt lat="51.48712906973523" lon="21.700298663132198"><ele>129.0</ele><time>2026-05-03T14:42:53Z</time></trkpt><trkpt lat="51.48701632332565" lon="21.700205022707397"><ele>129.0</ele><time>2026-05-03T14:42:54Z</time></trkpt><trkpt lat="51.48690972738441" lon="21.700102605144394"><ele>129.0</ele><time>2026-05-03T14:42:55Z</time></trkpt><trkpt lat="51.48680174316514" lon="21.70000860569779"><ele>129.4</ele><time>2026-05-03T14:42:56Z</time></trkpt><trkpt lat="51.486731180590425" lon="21.699911863003468"><ele>129.8</ele><time>2026-05-03T14:42:57Z</time></trkpt><trkpt lat="51.48664702063956" lon="21.699865924827613"><ele>130.2</ele><time>2026-05-03T14:42:58Z</time></trkpt><trkpt lat="51.48655606216292" lon="21.699823671626127"><ele>130.6</ele><time>2026-05-03T14:42:59Z</time></trkpt><trkpt lat="51.48643447958151" lon="21.69978086569955"><ele>131.0</ele><time>2026-05-03T14:43:00Z</time></trkpt><trkpt lat="51.48630726642214" lon="21.699738696197183"><ele>130.75</ele><time>2026-05-03T14:43:01Z</time></trkpt><trkpt lat="51.48617225546975" lon="21.6996903706878"><ele>130.5</ele><time>2026-05-03T14:43:02Z</time></trkpt><trkpt lat="51.48605821988546" lon="21.69962713651093"><ele>130.25</ele><time>2026-05-03T14:43:03Z</time></trkpt><trkpt lat="51.48595622223389" lon="21.699579747910462"><ele>130.0</ele><time>2026-05-03T14:43:04Z</time></trkpt><trkpt lat="51.48587279564304" lon="21.69952949005691"><ele>130.0</ele><time>2026-05-03T14:43:05Z</time></trkpt><trkpt lat="51.48579835612726" lon="21.69948709142862"><ele>130.0</ele><time>2026-05-03T14:43:06Z</time></trkpt><trkpt lat="51.485711243211135" lon="21.699453194709836"><ele>130.0</ele><time>2026-05-03T14:43:07Z</time></trkpt><trkpt lat="51.48563688950903" lon="21.699399662291125"><ele>130.0</ele><time>2026-05-03T14:43:08Z</time></trkpt><trkpt lat="51.4855723038544" lon="21.699345463997265"><ele>130.0</ele><time>2026-05-03T14:43:09Z</time></trkpt><trkpt lat="51.48548128254653" lon="21.699327141202488"><ele>130.0</ele><time>2026-05-03T14:43:10Z</time></trkpt><trkpt lat="51.48539970778382" lon="21.6992760577222"><ele>130.2</ele><time>2026-05-03T14:43:11Z</time></trkpt><trkpt lat="51.48532250783191" lon="21.69923875021086"><ele>130.4</ele><time>2026-05-03T14:43:12Z</time></trkpt><trkpt lat="51.48524663553672" lon="21.699153151596533"><ele>130.6</ele><time>2026-05-03T14:43:13Z</time></trkpt><trkpt lat="51.485160986859036" lon="21.699076471779378"><ele>130.8</ele><time>2026-05-03T14:43:14Z</time></trkpt><trkpt lat="51.48506757858899" lon="21.698966460030643"><ele>131.0</ele><time>2026-05-03T14:43:15Z</time></trkpt><trkpt lat="51.48496594581564" lon="21.698835177588812"><ele>131.0</ele><time>2026-05-03T14:43:16Z</time></trkpt><trkpt lat="51.48485878820233" lon="21.698695438308878"><ele>131.0</ele><time>2026-05-03T14:43:17Z</time></trkpt><trkpt lat="51.48476221246039" lon="21.698547582810498"><ele>131.0</ele><time>2026-05-03T14:43:18Z</time></trkpt><trkpt lat="51.48466420160474" lon="21.698415777763415"><ele>131.0</ele><time>2026-05-03T14:43:19Z</time></trkpt><trkpt lat="51.48458162191593" lon="21.698282325770354"><ele>131.5</ele><time>2026-05-03T14:43:20Z</time></trkpt><trkpt lat="51.48448904294506" lon="21.698142055674033"><ele>132.0</ele><time>2026-05-03T14:43:21Z</time></trkpt><trkpt lat="51.48436189863148" lon="21.69801122157872"><ele>132.5</ele><time>2026-05-03T14:43:22Z</time></trkpt><trkpt lat="51.48424975538174" lon="21.697853055613887"><ele>133.0</ele><time>2026-05-03T14:43:23Z</time></trkpt><trkpt lat="51.484131309071905" lon="21.69775092835031"><ele>133.0</ele><time>2026-05-03T14:43:24Z</time></trkpt><trkpt lat="51.48400988293644" lon="21.697691757672384"><ele>133.0</ele><time>2026-05-03T14:43:25Z</time></trkpt><trkpt lat="51.483915615191506" lon="21.697575051141666"><ele>133.0</ele><time>2026-05-03T14:43:26Z</time></trkpt><trkpt lat="51.48383855182795" lon="21.697474494197724"><ele>133.0</ele><time>2026-05-03T14:43:27Z</time></trkpt><trkpt lat="51.48375756693699" lon="21.69735940728522"><ele>133.5</ele><time>2026-05-03T14:43:28Z</time></trkpt><trkpt lat="51.48366082665462" lon="21.697237046495907"><ele>134.0</ele><time>2026-05-03T14:43:29Z</time></trkpt><trkpt lat="51.483557304115955" lon="21.697124701651237"><ele>134.5</ele><time>2026-05-03T14:43:30Z</time></trkpt><trkpt lat="51.48348651756872" lon="21.69697540197548"><ele>135.0</ele><time>2026-05-03T14:43:31Z</time></trkpt><trkpt lat="51.4833895536546" lon="21.696849405450017"><ele>135.2</ele><time>2026-05-03T14:43:32Z</time></trkpt><trkpt lat="51.48330313258474" lon="21.696715754589604"><ele>135.4</ele><time>2026-05-03T14:43:33Z</time></trkpt><trkpt lat="51.483214273592765" lon="21.69661947880846"><ele>135.6</ele><time>2026-05-03T14:43:34Z</time></trkpt><trkpt lat="51.48314714467267" lon="21.696493338629995"><ele>135.8</ele><time>2026-05-03T14:43:35Z</time></trkpt><trkpt lat="51.48305995740256" lon="21.69640641653132"><ele>136.0</ele><time>2026-05-03T14:43:36Z</time></trkpt><trkpt lat="51.48298387049237" lon="21.696307807468052"><ele>136.4</ele><time>2026-05-03T14:43:37Z</time></trkpt><trkpt lat="51.482896342844" lon="21.696224236363783"><ele>136.8</ele><time>2026-05-03T14:43:38Z</time></trkpt><trkpt lat="51.48280661001542" lon="21.69614606541992"><ele>137.20000000000002</ele><time>2026-05-03T14:43:39Z</time></trkpt><trkpt lat="51.48272363489287" lon="21.696107638410673"><ele>137.6</ele><time>2026-05-03T14:43:40Z</time></trkpt><trkpt lat="51.48265954875233" lon="21.69607270675835"><ele>138.0</ele><time>2026-05-03T14:43:41Z</time></trkpt><trkpt lat="51.482573618218694" lon="21.695946039591863"><ele>138.33333333333334</ele><time>2026-05-03T14:43:43Z</time></trkpt><trkpt lat="51.4825283649046" lon="21.695847025063657"><ele>138.66666666666666</ele><time>2026-05-03T14:43:44Z</time></trkpt><trkpt lat="51.48246131046805" lon="21.695730454444835"><ele>139.0</ele><time>2026-05-03T14:43:45Z</time></trkpt><trkpt lat="51.482393117438775" lon="21.695627337267535"><ele>139.33333333333331</ele><time>2026-05-03T14:43:46Z</time></trkpt><trkpt lat="51.48232504831334" lon="21.695544035500774"><ele>139.66666666666666</ele><time>2026-05-03T14:43:47Z</time></trkpt><trkpt lat="51.48225530237839" lon="21.69547386673078"><ele>140.0</ele><time>2026-05-03T14:43:48Z</time></trkpt><trkpt lat="51.48218520550216" lon="21.695400830100425"><ele>140.0</ele><time>2026-05-03T14:43:49Z</time></trkpt><trkpt lat="51.48211728175082" lon="21.695324974139353"><ele>140.0</ele><time>2026-05-03T14:43:50Z</time></trkpt><trkpt lat="51.48205269357133" lon="21.695254907173208"><ele>140.0</ele><time>2026-05-03T14:43:51Z</time></trkpt><trkpt lat="51.481990851016924" lon="21.695185320670223"><ele>140.0</ele><time>2026-05-03T14:43:52Z</time></trkpt><trkpt lat="51.48192907856737" lon="21.695117010199596"><ele>140.0</ele><time>2026-05-03T14:43:53Z</time></trkpt><trkpt lat="51.48186295000447" lon="21.695051069588267"><ele>140.0</ele><time>2026-05-03T14:43:54Z</time></trkpt><trkpt lat="51.48180166192153" lon="21.694970254692517"><ele>140.33333333333331</ele><time>2026-05-03T14:43:55Z</time></trkpt><trkpt lat="51.4817295363065" lon="21.694938323489122"><ele>140.66666666666666</ele><time>2026-05-03T14:43:56Z</time></trkpt><trkpt lat="51.48167667531867" lon="21.694866087035084"><ele>141.0</ele><time>2026-05-03T14:43:57Z</time></trkpt><trkpt lat="51.48161329565176" lon="21.694811028523144"><ele>141.33333333333334</ele><time>2026-05-03T14:43:58Z</time></trkpt><trkpt lat="51.48154171301137" lon="21.69474884387064"><ele>141.66666666666669</ele><time>2026-05-03T14:43:59Z</time></trkpt><trkpt lat="51.481466576703276" lon="21.6946802612419"><ele>142.0</ele><time>2026-05-03T14:44:00Z</time></trkpt><trkpt lat="51.481388569494655" lon="21.694598838077454"><ele>142.0</ele><time>2026-05-03T14:44:01Z</time></trkpt><trkpt lat="51.48130647256976" lon="21.69450157961694"><ele>142.0</ele><time>2026-05-03T14:44:02Z</time></trkpt><trkpt lat="51.481221456494865" lon="21.694398294252377"><ele>142.0</ele><time>2026-05-03T14:44:03Z</time></trkpt><trkpt lat="51.481131810341914" lon="21.6943232351892"><ele>142.0</ele><time>2026-05-03T14:44:04Z</time></trkpt><trkpt lat="51.481063006705654" lon="21.694241028959773"><ele>142.0</ele><time>2026-05-03T14:44:05Z</time></trkpt><trkpt lat="51.48099497418424" lon="21.694161989096706"><ele>142.16666666666669</ele><time>2026-05-03T14:44:06Z</time></trkpt><trkpt lat="51.480934361336715" lon="21.694059144351193"><ele>142.33333333333334</ele><time>2026-05-03T14:44:07Z</time></trkpt><trkpt lat="51.48086920868748" lon="21.69398299917471"><ele>142.5</ele><time>2026-05-03T14:44:08Z</time></trkpt><trkpt lat="51.480805822133426" lon="21.69390892033099"><ele>142.66666666666666</ele><time>2026-05-03T14:44:09Z</time></trkpt><trkpt lat="51.48073248013352" lon="21.693850379256176"><ele>142.83333333333331</ele><time>2026-05-03T14:44:10Z</time></trkpt><trkpt lat="51.48066712090578" lon="21.693767442442653"><ele>143.0</ele><time>2026-05-03T14:44:11Z</time></trkpt><trkpt lat="51.48060195188781" lon="21.693686091556938"><ele>143.0</ele><time>2026-05-03T14:44:12Z</time></trkpt><trkpt lat="51.48053723919615" lon="21.693601824794772"><ele>143.0</ele><time>2026-05-03T14:44:13Z</time></trkpt><trkpt lat="51.48048578570581" lon="21.693521694720562"><ele>143.0</ele><time>2026-05-03T14:44:14Z</time></trkpt><trkpt lat="51.48043540508313" lon="21.69344948396798"><ele>143.0</ele><time>2026-05-03T14:44:15Z</time></trkpt><trkpt lat="51.48037717705193" lon="21.693312884235024"><ele>143.0</ele><time>2026-05-03T14:44:17Z</time></trkpt><trkpt lat="51.48033102790921" lon="21.693231068788805"><ele>143.0</ele><time>2026-05-03T14:44:19Z</time></trkpt><trkpt lat="51.48041665966553" lon="21.693111189066073"><ele>143.0</ele><time>2026-05-03T14:44:20Z</time></trkpt><trkpt lat="51.48044781455667" lon="21.69301942951626"><ele>143.0</ele><time>2026-05-03T14:44:21Z</time></trkpt><trkpt lat="51.48048816492816" lon="21.692900584272515"><ele>143.0</ele><time>2026-05-03T14:44:22Z</time></trkpt><trkpt lat="51.48053983661633" lon="21.692750819980503"><ele>143.0</ele><time>2026-05-03T14:44:23Z</time></trkpt><trkpt lat="51.48058862068475" lon="21.69256300284272"><ele>143.0</ele><time>2026-05-03T14:44:24Z</time></trkpt><trkpt lat="51.48064791477078" lon="21.69237302778725"><ele>143.25</ele><time>2026-05-03T14:44:25Z</time></trkpt><trkpt lat="51.48070046580577" lon="21.692164722906526"><ele>143.5</ele><time>2026-05-03T14:44:26Z</time></trkpt><trkpt lat="51.480743129225196" lon="21.691959178631112"><ele>143.75</ele><time>2026-05-03T14:44:27Z</time></trkpt><trkpt lat="51.480783430786865" lon="21.691773364869274"><ele>144.0</ele><time>2026-05-03T14:44:28Z</time></trkpt><trkpt lat="51.480813438266495" lon="21.691610532338903"><ele>144.0</ele><time>2026-05-03T14:44:29Z</time></trkpt><trkpt lat="51.48083981504088" lon="21.69146332760408"><ele>144.0</ele><time>2026-05-03T14:44:30Z</time></trkpt><trkpt lat="51.480879571770494" lon="21.691347043578997"><ele>144.0</ele><time>2026-05-03T14:44:31Z</time></trkpt><trkpt lat="51.480927712029036" lon="21.691217830380854"><ele>144.0</ele><time>2026-05-03T14:44:32Z</time></trkpt><trkpt lat="51.48097974700666" lon="21.691084835796033"><ele>144.0</ele><time>2026-05-03T14:44:33Z</time></trkpt><trkpt lat="51.48100662404659" lon="21.69093252406404"><ele>144.0</ele><time>2026-05-03T14:44:34Z</time></trkpt><trkpt lat="51.48105299213427" lon="21.690789206217012"><ele>144.0</ele><time>2026-05-03T14:44:35Z</time></trkpt><trkpt lat="51.48110264701959" lon="21.69066115193467"><ele>144.0</ele><time>2026-05-03T14:44:36Z</time></trkpt><trkpt lat="51.48112655990867" lon="21.69053132264877"><ele>144.0</ele><time>2026-05-03T14:44:37Z</time></trkpt><trkpt lat="51.48116814555375" lon="21.69043799298749"><ele>144.0</ele><time>2026-05-03T14:44:38Z</time></trkpt><trkpt lat="51.481206869010585" lon="21.69032720973815"><ele>144.0</ele><time>2026-05-03T14:44:39Z</time></trkpt><trkpt lat="51.48124106994919" lon="21.690198991241996"><ele>143.5</ele><time>2026-05-03T14:44:40Z</time></trkpt><trkpt lat="51.48126642834151" lon="21.690086453892928"><ele>143.0</ele><time>2026-05-03T14:44:41Z</time></trkpt><trkpt lat="51.481279328592116" lon="21.689973250515056"><ele>142.5</ele><time>2026-05-03T14:44:42Z</time></trkpt><trkpt lat="51.48128046965821" lon="21.689870889567622"><ele>142.0</ele><time>2026-05-03T14:44:43Z</time></trkpt><trkpt lat="51.481284372021626" lon="21.689768765853373"><ele>141.5</ele><time>2026-05-03T14:44:44Z</time></trkpt><trkpt lat="51.48133183002746" lon="21.689687182950692"><ele>141.0</ele><time>2026-05-03T14:44:45Z</time></trkpt><trkpt lat="51.481413687880945" lon="21.68952228870418"><ele>140.75</ele><time>2026-05-03T14:44:47Z</time></trkpt><trkpt lat="51.48146802781238" lon="21.68941738045508"><ele>140.5</ele><time>2026-05-03T14:44:48Z</time></trkpt><trkpt lat="51.48153728992116" lon="21.689289382155025"><ele>140.25</ele><time>2026-05-03T14:44:49Z</time></trkpt><trkpt lat="51.48160935037157" lon="21.689112065605496"><ele>140.0</ele><time>2026-05-03T14:44:50Z</time></trkpt><trkpt lat="51.48167685515272" lon="21.688911503531045"><ele>140.0</ele><time>2026-05-03T14:44:51Z</time></trkpt><trkpt lat="51.48175378880948" lon="21.688733897046113"><ele>140.0</ele><time>2026-05-03T14:44:52Z</time></trkpt><trkpt lat="51.481824955974666" lon="21.688596529440748"><ele>140.0</ele><time>2026-05-03T14:44:53Z</time></trkpt><trkpt lat="51.481882488216804" lon="21.688487990716173"><ele>140.0</ele><time>2026-05-03T14:44:54Z</time></trkpt><trkpt lat="51.481936612424406" lon="21.688394422849413"><ele>140.0</ele><time>2026-05-03T14:44:55Z</time></trkpt><trkpt lat="51.481993825745356" lon="21.68830352445416"><ele>140.0</ele><time>2026-05-03T14:44:56Z</time></trkpt><trkpt lat="51.48205246343032" lon="21.688215882652283"><ele>140.0</ele><time>2026-05-03T14:44:57Z</time></trkpt><trkpt lat="51.48211263754147" lon="21.688110154392824"><ele>140.0</ele><time>2026-05-03T14:44:58Z</time></trkpt><trkpt lat="51.482177353002285" lon="21.688002321508964"><ele>140.0</ele><time>2026-05-03T14:44:59Z</time></trkpt><trkpt lat="51.4822554292056" lon="21.687922710181123"><ele>140.0</ele><time>2026-05-03T14:45:00Z</time></trkpt><trkpt lat="51.48231062990761" lon="21.68781163616871"><ele>140.0</ele><time>2026-05-03T14:45:01Z</time></trkpt><trkpt lat="51.48236146462437" lon="21.687746625375585"><ele>140.0</ele><time>2026-05-03T14:45:02Z</time></trkpt><trkpt lat="51.48243428867833" lon="21.687631322981463"><ele>140.0</ele><time>2026-05-03T14:45:04Z</time></trkpt><trkpt lat="51.4825126130096" lon="21.68753262671517"><ele>140.0</ele><time>2026-05-03T14:45:06Z</time></trkpt><trkpt lat="51.48239859411972" lon="21.6872927684982"><ele>140.0</ele><time>2026-05-03T14:45:08Z</time></trkpt><trkpt lat="51.48233537728384" lon="21.687198204797333"><ele>140.0</ele><time>2026-05-03T14:45:09Z</time></trkpt><trkpt lat="51.48225855167182" lon="21.687071124376462"><ele>140.0</ele><time>2026-05-03T14:45:10Z</time></trkpt><trkpt lat="51.482206044516595" lon="21.686958449972597"><ele>140.0</ele><time>2026-05-03T14:45:11Z</time></trkpt><trkpt lat="51.48215493855881" lon="21.686866526584797"><ele>140.0</ele><time>2026-05-03T14:45:12Z</time></trkpt><trkpt lat="51.482110257980246" lon="21.686786722987364"><ele>140.0</ele><time>2026-05-03T14:45:13Z</time></trkpt><trkpt lat="51.48205766912046" lon="21.686717569575105"><ele>140.0</ele><time>2026-05-03T14:45:14Z</time></trkpt><trkpt lat="51.48200980173354" lon="21.686636317860383"><ele>140.5</ele><time>2026-05-03T14:45:15Z</time></trkpt><trkpt lat="51.481953095171335" lon="21.68654024244232"><ele>141.0</ele><time>2026-05-03T14:45:16Z</time></trkpt><trkpt lat="51.481892745062694" lon="21.68639259368273"><ele>141.5</ele><time>2026-05-03T14:45:17Z</time></trkpt><trkpt lat="51.481801525069336" lon="21.686257891137963"><ele>142.0</ele><time>2026-05-03T14:45:18Z</time></trkpt><trkpt lat="51.481709540109115" lon="21.686097475821533"><ele>142.33333333333334</ele><time>2026-05-03T14:45:19Z</time></trkpt><trkpt lat="51.48161434608877" lon="21.685922645412678"><ele>142.66666666666666</ele><time>2026-05-03T14:45:20Z</time></trkpt><trkpt lat="51.48152642730382" lon="21.685734122441186"><ele>143.0</ele><time>2026-05-03T14:45:21Z</time></trkpt><trkpt lat="51.48140804324471" lon="21.6855617287642"><ele>143.0</ele><time>2026-05-03T14:45:22Z</time></trkpt><trkpt lat="51.48130147052156" lon="21.685363506567413"><ele>143.0</ele><time>2026-05-03T14:45:23Z</time></trkpt><trkpt lat="51.48120081514881" lon="21.685149165407218"><ele>143.0</ele><time>2026-05-03T14:45:24Z</time></trkpt><trkpt lat="51.48107798659497" lon="21.684957849037108"><ele>143.75</ele><time>2026-05-03T14:45:25Z</time></trkpt><trkpt lat="51.48098029386924" lon="21.684773197030392"><ele>144.5</ele><time>2026-05-03T14:45:26Z</time></trkpt><trkpt lat="51.480888045953" lon="21.68463162434944"><ele>145.25</ele><time>2026-05-03T14:45:27Z</time></trkpt><trkpt lat="51.480812360538124" lon="21.684472646602348"><ele>146.0</ele><time>2026-05-03T14:45:28Z</time></trkpt><trkpt lat="51.48073547249803" lon="21.68434010206364"><ele>146.4</ele><time>2026-05-03T14:45:29Z</time></trkpt><trkpt lat="51.48065526538564" lon="21.68422970877775"><ele>146.8</ele><time>2026-05-03T14:45:30Z</time></trkpt><trkpt lat="51.48059383815169" lon="21.684111357583046"><ele>147.20000000000002</ele><time>2026-05-03T14:45:31Z</time></trkpt><trkpt lat="51.48053053530314" lon="21.68399522972829"><ele>147.6</ele><time>2026-05-03T14:45:32Z</time></trkpt><trkpt lat="51.48046870668106" lon="21.683875306001394"><ele>148.0</ele><time>2026-05-03T14:45:33Z</time></trkpt><trkpt lat="51.48040079959006" lon="21.683776783817223"><ele>148.0</ele><time>2026-05-03T14:45:34Z</time></trkpt><trkpt lat="51.4803448181239" lon="21.68367868469051"><ele>148.0</ele><time>2026-05-03T14:45:35Z</time></trkpt><trkpt lat="51.48029035616207" lon="21.683583511847516"><ele>148.0</ele><time>2026-05-03T14:45:36Z</time></trkpt><trkpt lat="51.48024869537449" lon="21.683482984846336"><ele>148.0</ele><time>2026-05-03T14:45:37Z</time></trkpt><trkpt lat="51.48020387719696" lon="21.683394715944825"><ele>148.0</ele><time>2026-05-03T14:45:38Z</time></trkpt><trkpt lat="51.48012408427028" lon="21.6832844092361"><ele>148.0</ele><time>2026-05-03T14:45:40Z</time></trkpt><trkpt lat="51.47997958750353" lon="21.68342735441683"><ele>148.0</ele><time>2026-05-03T14:45:43Z</time></trkpt><trkpt lat="51.47990676655857" lon="21.68355057737625"><ele>148.0</ele><time>2026-05-03T14:45:44Z</time></trkpt><trkpt lat="51.479818130511084" lon="21.683683380541495"><ele>148.0</ele><time>2026-05-03T14:45:45Z</time></trkpt><trkpt lat="51.47973019160163" lon="21.683831178489758"><ele>148.0</ele><time>2026-05-03T14:45:46Z</time></trkpt><trkpt lat="51.47963384512362" lon="21.683964441826504"><ele>148.0</ele><time>2026-05-03T14:45:47Z</time></trkpt><trkpt lat="51.47955863761137" lon="21.684073018314436"><ele>148.0</ele><time>2026-05-03T14:45:48Z</time></trkpt><trkpt lat="51.47948974788276" lon="21.684165872488073"><ele>148.0</ele><time>2026-05-03T14:45:49Z</time></trkpt><trkpt lat="51.479426294200444" lon="21.684244412300927"><ele>148.0</ele><time>2026-05-03T14:45:50Z</time></trkpt><trkpt lat="51.47937155703712" lon="21.68434136471324"><ele>148.0</ele><time>2026-05-03T14:45:51Z</time></trkpt><trkpt lat="51.47931706337423" lon="21.684406981974973"><ele>148.0</ele><time>2026-05-03T14:45:52Z</time></trkpt><trkpt lat="51.47924303643585" lon="21.684478287702962"><ele>148.0</ele><time>2026-05-03T14:45:54Z</time></trkpt><trkpt lat="51.47912612862055" lon="21.68443387277991"><ele>148.0</ele><time>2026-05-03T14:45:56Z</time></trkpt><trkpt lat="51.479056721441786" lon="21.68433766939116"><ele>148.0</ele><time>2026-05-03T14:45:57Z</time></trkpt><trkpt lat="51.47898667303822" lon="21.684215978862483"><ele>148.0</ele><time>2026-05-03T14:45:58Z</time></trkpt><trkpt lat="51.47893062133874" lon="21.684111758303754"><ele>148.0</ele><time>2026-05-03T14:45:59Z</time></trkpt><trkpt lat="51.47886558030199" lon="21.68402900665262"><ele>148.16666666666669</ele><time>2026-05-03T14:46:00Z</time></trkpt><trkpt lat="51.47880591481632" lon="21.683912935539595"><ele>148.33333333333334</ele><time>2026-05-03T14:46:01Z</time></trkpt><trkpt lat="51.47874235528738" lon="21.683806356946004"><ele>148.5</ele><time>2026-05-03T14:46:02Z</time></trkpt><trkpt lat="51.47868034605757" lon="21.68369862169381"><ele>148.66666666666666</ele><time>2026-05-03T14:46:03Z</time></trkpt><trkpt lat="51.478626184283975" lon="21.683608546128795"><ele>148.83333333333331</ele><time>2026-05-03T14:46:04Z</time></trkpt><trkpt lat="51.478582075931" lon="21.683504030535918"><ele>149.0</ele><time>2026-05-03T14:46:05Z</time></trkpt><trkpt lat="51.47853646042543" lon="21.683426047421346"><ele>149.66666666666666</ele><time>2026-05-03T14:46:06Z</time></trkpt><trkpt lat="51.47847715324454" lon="21.683361497752728"><ele>150.33333333333331</ele><time>2026-05-03T14:46:07Z</time></trkpt><trkpt lat="51.47843332952135" lon="21.683253667724653"><ele>151.0</ele><time>2026-05-03T14:46:08Z</time></trkpt><trkpt lat="51.47837789548441" lon="21.68319740384034"><ele>151.66666666666666</ele><time>2026-05-03T14:46:09Z</time></trkpt><trkpt lat="51.47827473271666" lon="21.683044183689713"><ele>152.33333333333334</ele><time>2026-05-03T14:46:11Z</time></trkpt><trkpt lat="51.47821485398926" lon="21.682961262811883"><ele>153.0</ele><time>2026-05-03T14:46:12Z</time></trkpt><trkpt lat="51.47815251891592" lon="21.68288294879798"><ele>153.0</ele><time>2026-05-03T14:46:13Z</time></trkpt><trkpt lat="51.478084016128996" lon="21.68281138872441"><ele>153.0</ele><time>2026-05-03T14:46:14Z</time></trkpt><trkpt lat="51.47802210389137" lon="21.68272917229232"><ele>153.0</ele><time>2026-05-03T14:46:15Z</time></trkpt><trkpt lat="51.477976153024144" lon="21.682610634378268"><ele>153.0</ele><time>2026-05-03T14:46:16Z</time></trkpt><trkpt lat="51.47791815437387" lon="21.68251233542154"><ele>153.0</ele><time>2026-05-03T14:46:17Z</time></trkpt><trkpt lat="51.47785543778028" lon="21.68243574743308"><ele>153.0</ele><time>2026-05-03T14:46:18Z</time></trkpt><trkpt lat="51.47781358471182" lon="21.682340091836537"><ele>153.0</ele><time>2026-05-03T14:46:19Z</time></trkpt><trkpt lat="51.47777200119764" lon="21.682236120754087"><ele>153.0</ele><time>2026-05-03T14:46:20Z</time></trkpt><trkpt lat="51.47774252141988" lon="21.68213713706601"><ele>153.0</ele><time>2026-05-03T14:46:21Z</time></trkpt><trkpt lat="51.47771598823551" lon="21.682040528040538"><ele>153.0</ele><time>2026-05-03T14:46:22Z</time></trkpt><trkpt lat="51.47764008497308" lon="21.681904711666895"><ele>153.0</ele><time>2026-05-03T14:46:24Z</time></trkpt><trkpt lat="51.477602786012646" lon="21.68181870081003"><ele>153.0</ele><time>2026-05-03T14:46:25Z</time></trkpt><trkpt lat="51.47756004856151" lon="21.681740811693604"><ele>153.33333333333334</ele><time>2026-05-03T14:46:26Z</time></trkpt><trkpt lat="51.47749180963265" lon="21.681581663306172"><ele>153.66666666666666</ele><time>2026-05-03T14:46:28Z</time></trkpt><trkpt lat="51.477449551174615" lon="21.68149945871938"><ele>154.0</ele><time>2026-05-03T14:46:29Z</time></trkpt><trkpt lat="51.47739973882955" lon="21.68140201893407"><ele>154.33333333333331</ele><time>2026-05-03T14:46:30Z</time></trkpt><trkpt lat="51.477344150694876" lon="21.681333915576584"><ele>154.66666666666666</ele><time>2026-05-03T14:46:31Z</time></trkpt><trkpt lat="51.47729692779449" lon="21.68124164843058"><ele>155.0</ele><time>2026-05-03T14:46:32Z</time></trkpt><trkpt lat="51.47725754728431" lon="21.681135593302255"><ele>155.0</ele><time>2026-05-03T14:46:33Z</time></trkpt><trkpt lat="51.477202567468424" lon="21.681076772234785"><ele>155.0</ele><time>2026-05-03T14:46:34Z</time></trkpt><trkpt lat="51.47716611831239" lon="21.68097226206584"><ele>155.0</ele><time>2026-05-03T14:46:35Z</time></trkpt><trkpt lat="51.47709823772136" lon="21.680891636722343"><ele>155.0</ele><time>2026-05-03T14:46:36Z</time></trkpt><trkpt lat="51.477038143752225" lon="21.680779156516106"><ele>155.0</ele><time>2026-05-03T14:46:37Z</time></trkpt><trkpt lat="51.47697064618253" lon="21.680662222395902"><ele>155.0</ele><time>2026-05-03T14:46:38Z</time></trkpt><trkpt lat="51.47689834210545" lon="21.680535173447122"><ele>155.0</ele><time>2026-05-03T14:46:39Z</time></trkpt><trkpt lat="51.476824480231116" lon="21.680401712782867"><ele>155.0</ele><time>2026-05-03T14:46:40Z</time></trkpt><trkpt lat="51.47674969769579" lon="21.680271301165135"><ele>155.0</ele><time>2026-05-03T14:46:41Z</time></trkpt><trkpt lat="51.47666185168864" lon="21.680128760689165"><ele>155.0</ele><time>2026-05-03T14:46:42Z</time></trkpt><trkpt lat="51.47657822281269" lon="21.679959498137"><ele>155.0</ele><time>2026-05-03T14:46:43Z</time></trkpt><trkpt lat="51.47649379880653" lon="21.6798132886904"><ele>155.0</ele><time>2026-05-03T14:46:44Z</time></trkpt><trkpt lat="51.476402409586804" lon="21.679687711845194"><ele>155.0</ele><time>2026-05-03T14:46:45Z</time></trkpt><trkpt lat="51.4763214473985" lon="21.67954587439921"><ele>155.0</ele><time>2026-05-03T14:46:46Z</time></trkpt><trkpt lat="51.47626677061227" lon="21.67940646061097"><ele>154.33333333333331</ele><time>2026-05-03T14:46:47Z</time></trkpt><trkpt lat="51.47621580989241" lon="21.679327832784583"><ele>153.66666666666666</ele><time>2026-05-03T14:46:48Z</time></trkpt><trkpt lat="51.47616749270277" lon="21.67925308489542"><ele>153.0</ele><time>2026-05-03T14:46:49Z</time></trkpt><trkpt lat="51.47612000657575" lon="21.679156195362687"><ele>152.33333333333334</ele><time>2026-05-03T14:46:50Z</time></trkpt><trkpt lat="51.47606621777914" lon="21.679069946877558"><ele>151.66666666666669</ele><time>2026-05-03T14:46:51Z</time></trkpt><trkpt lat="51.476006072732936" lon="21.67895910071162"><ele>151.0</ele><time>2026-05-03T14:46:52Z</time></trkpt><trkpt lat="51.475946175811195" lon="21.678854257027687"><ele>151.0</ele><time>2026-05-03T14:46:53Z</time></trkpt><trkpt lat="51.47588855569593" lon="21.678737161555524"><ele>151.0</ele><time>2026-05-03T14:46:54Z</time></trkpt><trkpt lat="51.475852518712166" lon="21.6786302894411"><ele>151.0</ele><time>2026-05-03T14:46:55Z</time></trkpt><trkpt lat="51.47578558654734" lon="21.678542458547838"><ele>151.0</ele><time>2026-05-03T14:46:56Z</time></trkpt><trkpt lat="51.475735910445096" lon="21.678453296449735"><ele>151.0</ele><time>2026-05-03T14:46:57Z</time></trkpt><trkpt lat="51.475689425869156" lon="21.67837543435637"><ele>151.0</ele><time>2026-05-03T14:46:58Z</time></trkpt><trkpt lat="51.47561669283019" lon="21.67824555596916"><ele>151.0</ele><time>2026-05-03T14:47:00Z</time></trkpt><trkpt lat="51.47554625432996" lon="21.678113677159192"><ele>151.0</ele><time>2026-05-03T14:47:02Z</time></trkpt><trkpt lat="51.47544964317591" lon="21.6779780904054"><ele>151.0</ele><time>2026-05-03T14:47:04Z</time></trkpt><trkpt lat="51.475389572300635" lon="21.677859803120317"><ele>151.0</ele><time>2026-05-03T14:47:06Z</time></trkpt><trkpt lat="51.47536167026631" lon="21.677768994590465"><ele>151.0</ele><time>2026-05-03T14:47:09Z</time></trkpt><trkpt lat="51.47531438055902" lon="21.67767445505971"><ele>151.2</ele><time>2026-05-03T14:47:19Z</time></trkpt><trkpt lat="51.475401730860476" lon="21.677513834768583"><ele>151.39999999999998</ele><time>2026-05-03T14:47:20Z</time></trkpt><trkpt lat="51.47542986991811" lon="21.677311023870637"><ele>151.6</ele><time>2026-05-03T14:47:22Z</time></trkpt><trkpt lat="51.475444781005166" lon="21.677197271257057"><ele>151.79999999999998</ele><time>2026-05-03T14:47:23Z</time></trkpt><trkpt lat="51.47545167775509" lon="21.67707934371771"><ele>152.0</ele><time>2026-05-03T14:47:24Z</time></trkpt><trkpt lat="51.47546984061783" lon="21.67697534388751"><ele>152.0</ele><time>2026-05-03T14:47:25Z</time></trkpt><trkpt lat="51.47550252446006" lon="21.67679124833262"><ele>152.0</ele><time>2026-05-03T14:47:27Z</time></trkpt><trkpt lat="51.47553642174089" lon="21.676612447101032"><ele>152.0</ele><time>2026-05-03T14:47:29Z</time></trkpt><trkpt lat="51.47557061394722" lon="21.676486629192745"><ele>152.0</ele><time>2026-05-03T14:47:31Z</time></trkpt><trkpt lat="51.47560245016704" lon="21.67635970918796"><ele>152.0</ele><time>2026-05-03T14:47:33Z</time></trkpt><trkpt lat="51.47564065297466" lon="21.676200269631398"><ele>151.66666666666666</ele><time>2026-05-03T14:47:35Z</time></trkpt><trkpt lat="51.475650864077586" lon="21.67609958705569"><ele>151.33333333333331</ele><time>2026-05-03T14:47:37Z</time></trkpt><trkpt lat="51.475681531810885" lon="21.675980334443274"><ele>151.0</ele><time>2026-05-03T14:49:22Z</time></trkpt><trkpt lat="51.47569946047324" lon="21.675860145364865"><ele>150.66666666666666</ele><time>2026-05-03T14:49:23Z</time></trkpt><trkpt lat="51.47572315766301" lon="21.675714546328148"><ele>150.33333333333334</ele><time>2026-05-03T14:49:24Z</time></trkpt><trkpt lat="51.47575197913285" lon="21.67555198890849"><ele>150.0</ele><time>2026-05-03T14:49:25Z</time></trkpt><trkpt lat="51.47577125596555" lon="21.675362538867823"><ele>149.5</ele><time>2026-05-03T14:49:26Z</time></trkpt><trkpt lat="51.47582585069411" lon="21.675177838614395"><ele>149.0</ele><time>2026-05-03T14:49:27Z</time></trkpt><trkpt lat="51.475854840498194" lon="21.67498819352977"><ele>148.5</ele><time>2026-05-03T14:49:28Z</time></trkpt><trkpt lat="51.475891146236535" lon="21.674814260898984"><ele>148.0</ele><time>2026-05-03T14:49:29Z</time></trkpt><trkpt lat="51.475927436539834" lon="21.674645697672574"><ele>148.0</ele><time>2026-05-03T14:49:30Z</time></trkpt><trkpt lat="51.47597237189585" lon="21.674447454506012"><ele>148.0</ele><time>2026-05-03T14:49:31Z</time></trkpt><trkpt lat="51.476006584986166" lon="21.67427259851574"><ele>148.0</ele><time>2026-05-03T14:49:32Z</time></trkpt><trkpt lat="51.4760387355275" lon="21.674110436568842"><ele>148.0</ele><time>2026-05-03T14:49:33Z</time></trkpt><trkpt lat="51.47607014791489" lon="21.673962062926304"><ele>148.0</ele><time>2026-05-03T14:49:34Z</time></trkpt><trkpt lat="51.476100468572426" lon="21.673827063698102"><ele>147.83333333333334</ele><time>2026-05-03T14:49:35Z</time></trkpt><trkpt lat="51.476131287152214" lon="21.673690857525195"><ele>147.66666666666669</ele><time>2026-05-03T14:49:36Z</time></trkpt><trkpt lat="51.47615609453152" lon="21.67354882156038"><ele>147.5</ele><time>2026-05-03T14:49:37Z</time></trkpt><trkpt lat="51.476182852303616" lon="21.673413469521286"><ele>147.33333333333334</ele><time>2026-05-03T14:49:38Z</time></trkpt><trkpt lat="51.47622527786016" lon="21.673298004824087"><ele>147.16666666666666</ele><time>2026-05-03T14:49:39Z</time></trkpt><trkpt lat="51.47625878144816" lon="21.673187119957742"><ele>147.0</ele><time>2026-05-03T14:49:40Z</time></trkpt><trkpt lat="51.4762998999017" lon="21.673079483645516"><ele>146.4</ele><time>2026-05-03T14:49:41Z</time></trkpt><trkpt lat="51.4763525987682" lon="21.672958297186323"><ele>145.79999999999998</ele><time>2026-05-03T14:49:42Z</time></trkpt><trkpt lat="51.476407819979684" lon="21.672849226883717"><ele>145.2</ele><time>2026-05-03T14:49:43Z</time></trkpt><trkpt lat="51.4764608028401" lon="21.6727711417697"><ele>144.6</ele><time>2026-05-03T14:49:44Z</time></trkpt><trkpt lat="51.47656189497335" lon="21.67267484537916"><ele>144.0</ele><time>2026-05-03T14:49:46Z</time></trkpt><trkpt lat="51.47665155997561" lon="21.67256008351625"><ele>143.25</ele><time>2026-05-03T14:49:48Z</time></trkpt><trkpt lat="51.47675044138412" lon="21.672473139776283"><ele>142.5</ele><time>2026-05-03T14:49:49Z</time></trkpt><trkpt lat="51.47686766902513" lon="21.672368329933757"><ele>141.75</ele><time>2026-05-03T14:49:50Z</time></trkpt><trkpt lat="51.4769920062706" lon="21.672260595764563"><ele>141.0</ele><time>2026-05-03T14:49:51Z</time></trkpt><trkpt lat="51.47711061129213" lon="21.672161726006433"><ele>140.75</ele><time>2026-05-03T14:49:52Z</time></trkpt><trkpt lat="51.47722074854142" lon="21.67205730647304"><ele>140.5</ele><time>2026-05-03T14:49:53Z</time></trkpt><trkpt lat="51.47732005772595" lon="21.67197091253965"><ele>140.25</ele><time>2026-05-03T14:49:54Z</time></trkpt><trkpt lat="51.47741399445568" lon="21.67187139253867"><ele>140.0</ele><time>2026-05-03T14:49:55Z</time></trkpt><trkpt lat="51.47749953788747" lon="21.671768921281913"><ele>139.4</ele><time>2026-05-03T14:49:56Z</time></trkpt><trkpt lat="51.47758559499266" lon="21.671698817322778"><ele>138.8</ele><time>2026-05-03T14:49:57Z</time></trkpt><trkpt lat="51.47764731200307" lon="21.671594866436042"><ele>138.2</ele><time>2026-05-03T14:49:58Z</time></trkpt><trkpt lat="51.47771998290127" lon="21.671515245998602"><ele>137.6</ele><time>2026-05-03T14:49:59Z</time></trkpt><trkpt lat="51.47778820193287" lon="21.671429850129854"><ele>137.0</ele><time>2026-05-03T14:50:00Z</time></trkpt><trkpt lat="51.477855513709" lon="21.67133175968922"><ele>137.0</ele><time>2026-05-03T14:50:01Z</time></trkpt><trkpt lat="51.477924458088886" lon="21.67124057581863"><ele>137.0</ele><time>2026-05-03T14:50:02Z</time></trkpt><trkpt lat="51.477989098472456" lon="21.67115465511843"><ele>137.0</ele><time>2026-05-03T14:50:03Z</time></trkpt><trkpt lat="51.47805470428682" lon="21.671069785184926"><ele>137.0</ele><time>2026-05-03T14:50:04Z</time></trkpt><trkpt lat="51.47813019585307" lon="21.670995282741597"><ele>137.0</ele><time>2026-05-03T14:50:05Z</time></trkpt><trkpt lat="51.47819070879735" lon="21.670905895159997"><ele>137.0</ele><time>2026-05-03T14:50:06Z</time></trkpt><trkpt lat="51.47824045634663" lon="21.670797290050352"><ele>137.0</ele><time>2026-05-03T14:50:07Z</time></trkpt><trkpt lat="51.47827551839161" lon="21.67067354348605"><ele>137.0</ele><time>2026-05-03T14:50:08Z</time></trkpt><trkpt lat="51.47830832937812" lon="21.670538725032237"><ele>137.0</ele><time>2026-05-03T14:50:09Z</time></trkpt><trkpt lat="51.478342458541086" lon="21.670410267343385"><ele>137.0</ele><time>2026-05-03T14:50:10Z</time></trkpt><trkpt lat="51.478381834462645" lon="21.670276517664462"><ele>137.0</ele><time>2026-05-03T14:50:11Z</time></trkpt><trkpt lat="51.47842469547563" lon="21.670137543336256"><ele>136.79999999999998</ele><time>2026-05-03T14:50:12Z</time></trkpt><trkpt lat="51.47846300312886" lon="21.670000527818758"><ele>136.6</ele><time>2026-05-03T14:50:13Z</time></trkpt><trkpt lat="51.47849567948419" lon="21.66986293198385"><ele>136.39999999999998</ele><time>2026-05-03T14:50:14Z</time></trkpt><trkpt lat="51.478527019835205" lon="21.669693126379006"><ele>136.2</ele><time>2026-05-03T14:50:15Z</time></trkpt><trkpt lat="51.478556873238034" lon="21.669526661340715"><ele>136.0</ele><time>2026-05-03T14:50:16Z</time></trkpt><trkpt lat="51.47859315590838" lon="21.669378687804496"><ele>136.0</ele><time>2026-05-03T14:50:17Z</time></trkpt><trkpt lat="51.478636353502345" lon="21.66925910602014"><ele>136.0</ele><time>2026-05-03T14:50:18Z</time></trkpt><trkpt lat="51.47867217501504" lon="21.669136893718285"><ele>136.0</ele><time>2026-05-03T14:50:19Z</time></trkpt><trkpt lat="51.478707737056176" lon="21.669018439766305"><ele>136.0</ele><time>2026-05-03T14:50:20Z</time></trkpt><trkpt lat="51.47873898643672" lon="21.668882372001924"><ele>136.0</ele><time>2026-05-03T14:50:21Z</time></trkpt><trkpt lat="51.47876651504937" lon="21.668749450359385"><ele>136.0</ele><time>2026-05-03T14:50:22Z</time></trkpt><trkpt lat="51.478780771948145" lon="21.668604111990174"><ele>135.8</ele><time>2026-05-03T14:50:23Z</time></trkpt><trkpt lat="51.47879345655351" lon="21.66844782707899"><ele>135.6</ele><time>2026-05-03T14:50:24Z</time></trkpt><trkpt lat="51.47879454603589" lon="21.668311610977558"><ele>135.4</ele><time>2026-05-03T14:50:25Z</time></trkpt><trkpt lat="51.47881520747861" lon="21.668146183219125"><ele>135.2</ele><time>2026-05-03T14:50:26Z</time></trkpt><trkpt lat="51.478827786384336" lon="21.667963650518256"><ele>135.0</ele><time>2026-05-03T14:50:27Z</time></trkpt><trkpt lat="51.478846607619104" lon="21.667799068400896"><ele>135.25</ele><time>2026-05-03T14:50:28Z</time></trkpt><trkpt lat="51.47889156359595" lon="21.66765232701483"><ele>135.5</ele><time>2026-05-03T14:50:29Z</time></trkpt><trkpt lat="51.47893879991035" lon="21.66749349578581"><ele>135.75</ele><time>2026-05-03T14:50:30Z</time></trkpt><trkpt lat="51.47899276702267" lon="21.66731746904177"><ele>136.0</ele><time>2026-05-03T14:50:31Z</time></trkpt><trkpt lat="51.47905182586918" lon="21.667118116726794"><ele>136.0</ele><time>2026-05-03T14:50:32Z</time></trkpt><trkpt lat="51.47910290368997" lon="21.666945074264778"><ele>136.0</ele><time>2026-05-03T14:50:33Z</time></trkpt><trkpt lat="51.479139384511946" lon="21.666796477971545"><ele>136.0</ele><time>2026-05-03T14:50:34Z</time></trkpt><trkpt lat="51.47916287853286" lon="21.66664111589831"><ele>136.0</ele><time>2026-05-03T14:50:35Z</time></trkpt><trkpt lat="51.47919074421653" lon="21.666487995440054"><ele>136.0</ele><time>2026-05-03T14:50:36Z</time></trkpt><trkpt lat="51.47922480122711" lon="21.666349084131557"><ele>136.75</ele><time>2026-05-03T14:50:37Z</time></trkpt><trkpt lat="51.479272959235836" lon="21.666218036812236"><ele>137.5</ele><time>2026-05-03T14:50:38Z</time></trkpt><trkpt lat="51.47935692786799" lon="21.66612354436845"><ele>138.25</ele><time>2026-05-03T14:50:39Z</time></trkpt><trkpt lat="51.47944433731028" lon="21.665977771323302"><ele>139.0</ele><time>2026-05-03T14:50:40Z</time></trkpt><trkpt lat="51.47954515423284" lon="21.66581608815813"><ele>139.25</ele><time>2026-05-03T14:50:41Z</time></trkpt><trkpt lat="51.4796355132001" lon="21.665651778575885"><ele>139.5</ele><time>2026-05-03T14:50:42Z</time></trkpt><trkpt lat="51.479724086972446" lon="21.665510192289165"><ele>139.75</ele><time>2026-05-03T14:50:43Z</time></trkpt><trkpt lat="51.479807111076134" lon="21.665369840182244"><ele>140.0</ele><time>2026-05-03T14:50:44Z</time></trkpt><trkpt lat="51.47989849199532" lon="21.6652323435838"><ele>140.0</ele><time>2026-05-03T14:50:45Z</time></trkpt><trkpt lat="51.47999198705942" lon="21.665096270734324"><ele>140.0</ele><time>2026-05-03T14:50:46Z</time></trkpt><trkpt lat="51.480092601021084" lon="21.66493780717803"><ele>140.0</ele><time>2026-05-03T14:50:47Z</time></trkpt><trkpt lat="51.48020430784211" lon="21.66478888612495"><ele>140.0</ele><time>2026-05-03T14:50:48Z</time></trkpt><trkpt lat="51.48030484787341" lon="21.664637985145234"><ele>140.0</ele><time>2026-05-03T14:50:49Z</time></trkpt><trkpt lat="51.48039859713629" lon="21.664482966491295"><ele>140.0</ele><time>2026-05-03T14:50:50Z</time></trkpt><trkpt lat="51.480470373912325" lon="21.6643478436018"><ele>140.0</ele><time>2026-05-03T14:50:51Z</time></trkpt><trkpt lat="51.48052777598282" lon="21.664226993811287"><ele>140.0</ele><time>2026-05-03T14:50:52Z</time></trkpt><trkpt lat="51.48058434482264" lon="21.664126344328754"><ele>140.0</ele><time>2026-05-03T14:50:53Z</time></trkpt><trkpt lat="51.48063707858624" lon="21.66404406290521"><ele>139.4</ele><time>2026-05-03T14:50:54Z</time></trkpt><trkpt lat="51.48066571312698" lon="21.663932236717756"><ele>138.8</ele><time>2026-05-03T14:50:55Z</time></trkpt><trkpt lat="51.480750133347364" lon="21.663862658554343"><ele>138.2</ele><time>2026-05-03T14:50:56Z</time></trkpt><trkpt lat="51.480847628016356" lon="21.66378217360747"><ele>137.6</ele><time>2026-05-03T14:50:57Z</time></trkpt><trkpt lat="51.48096723507659" lon="21.663689472429112"><ele>137.0</ele><time>2026-05-03T14:50:58Z</time></trkpt><trkpt lat="51.48109225885858" lon="21.66357115854319"><ele>137.0</ele><time>2026-05-03T14:50:59Z</time></trkpt><trkpt lat="51.481228837016225" lon="21.663444675727288"><ele>137.0</ele><time>2026-05-03T14:51:00Z</time></trkpt><trkpt lat="51.4813607244877" lon="21.66328144785627"><ele>137.0</ele><time>2026-05-03T14:51:01Z</time></trkpt><trkpt lat="51.48149628149554" lon="21.66310245653348"><ele>136.33333333333331</ele><time>2026-05-03T14:51:02Z</time></trkpt><trkpt lat="51.481635509821594" lon="21.662911844436998"><ele>135.66666666666666</ele><time>2026-05-03T14:51:03Z</time></trkpt><trkpt lat="51.481797122699376" lon="21.662734894686125"><ele>135.0</ele><time>2026-05-03T14:51:04Z</time></trkpt><trkpt lat="51.481954711051074" lon="21.662510403825706"><ele>135.0</ele><time>2026-05-03T14:51:05Z</time></trkpt><trkpt lat="51.482097599889094" lon="21.662263411313557"><ele>135.0</ele><time>2026-05-03T14:51:06Z</time></trkpt><trkpt lat="51.48223073945366" lon="21.662022623484226"><ele>135.0</ele><time>2026-05-03T14:51:07Z</time></trkpt><trkpt lat="51.48236031295174" lon="21.661816899922183"><ele>135.66666666666666</ele><time>2026-05-03T14:51:08Z</time></trkpt><trkpt lat="51.48248785797337" lon="21.661637357900766"><ele>136.33333333333331</ele><time>2026-05-03T14:51:09Z</time></trkpt><trkpt lat="51.48261345699546" lon="21.66147454718169"><ele>137.0</ele><time>2026-05-03T14:51:10Z</time></trkpt><trkpt lat="51.48272149317086" lon="21.661337796587866"><ele>137.0</ele><time>2026-05-03T14:51:11Z</time></trkpt><trkpt lat="51.48282522034838" lon="21.661202340799512"><ele>137.0</ele><time>2026-05-03T14:51:12Z</time></trkpt><trkpt lat="51.48291493719609" lon="21.661083877977774"><ele>137.0</ele><time>2026-05-03T14:51:13Z</time></trkpt><trkpt lat="51.48297587049327" lon="21.660984248960546"><ele>137.0</ele><time>2026-05-03T14:51:14Z</time></trkpt><trkpt lat="51.483052141239696" lon="21.66088929305598"><ele>137.0</ele><time>2026-05-03T14:51:16Z</time></trkpt><trkpt lat="51.48297625215976" lon="21.66062438992278"><ele>137.2</ele><time>2026-05-03T14:51:21Z</time></trkpt><trkpt lat="51.48291851066258" lon="21.66054731733994"><ele>137.39999999999998</ele><time>2026-05-03T14:51:22Z</time></trkpt><trkpt lat="51.482844184987215" lon="21.660448658109974"><ele>137.60000000000002</ele><time>2026-05-03T14:51:23Z</time></trkpt><trkpt lat="51.482755042946515" lon="21.660330813305688"><ele>137.8</ele><time>2026-05-03T14:51:24Z</time></trkpt><trkpt lat="51.482645338028036" lon="21.660221745777456"><ele>138.0</ele><time>2026-05-03T14:51:25Z</time></trkpt><trkpt lat="51.48254083741939" lon="21.660071611444618"><ele>139.33333333333334</ele><time>2026-05-03T14:51:26Z</time></trkpt><trkpt lat="51.48242767636857" lon="21.65991398168644"><ele>140.66666666666669</ele><time>2026-05-03T14:51:27Z</time></trkpt><trkpt lat="51.48230438768777" lon="21.65975467662343"><ele>142.0</ele><time>2026-05-03T14:51:28Z</time></trkpt><trkpt lat="51.48217689555246" lon="21.65958813289974"><ele>142.0</ele><time>2026-05-03T14:51:29Z</time></trkpt><trkpt lat="51.48204104967336" lon="21.659414863700597"><ele>142.0</ele><time>2026-05-03T14:51:30Z</time></trkpt><trkpt lat="51.48189498024974" lon="21.659234146293933"><ele>142.0</ele><time>2026-05-03T14:51:31Z</time></trkpt><trkpt lat="51.48174651244722" lon="21.659046267777224"><ele>142.0</ele><time>2026-05-03T14:51:32Z</time></trkpt><trkpt lat="51.48160730203214" lon="21.658862892171882"><ele>142.0</ele><time>2026-05-03T14:51:33Z</time></trkpt><trkpt lat="51.481467754819256" lon="21.658667389131757"><ele>142.0</ele><time>2026-05-03T14:51:34Z</time></trkpt><trkpt lat="51.48132302854303" lon="21.658473886333297"><ele>142.66666666666669</ele><time>2026-05-03T14:51:35Z</time></trkpt><trkpt lat="51.48116942352609" lon="21.658289835224288"><ele>143.33333333333334</ele><time>2026-05-03T14:51:36Z</time></trkpt><trkpt lat="51.48101648346875" lon="21.65810310792493"><ele>144.0</ele><time>2026-05-03T14:51:37Z</time></trkpt><trkpt lat="51.480869757787" lon="21.65789795553366"><ele>145.33333333333334</ele><time>2026-05-03T14:51:38Z</time></trkpt><trkpt lat="51.480720222164464" lon="21.657688387539327"><ele>146.66666666666669</ele><time>2026-05-03T14:51:39Z</time></trkpt><trkpt lat="51.48056872786942" lon="21.65748295316448"><ele>148.0</ele><time>2026-05-03T14:51:40Z</time></trkpt><trkpt lat="51.48041421665552" lon="21.657280398841753"><ele>148.0</ele><time>2026-05-03T14:51:41Z</time></trkpt><trkpt lat="51.48026073526661" lon="21.65707752599555"><ele>148.0</ele><time>2026-05-03T14:51:42Z</time></trkpt><trkpt lat="51.480107807431516" lon="21.656867036595955"><ele>148.0</ele><time>2026-05-03T14:51:43Z</time></trkpt><trkpt lat="51.47995514243104" lon="21.656649596755287"><ele>148.66666666666669</ele><time>2026-05-03T14:51:44Z</time></trkpt><trkpt lat="51.47980305420331" lon="21.656428248025865"><ele>149.33333333333334</ele><time>2026-05-03T14:51:45Z</time></trkpt><trkpt lat="51.47964943193271" lon="21.65620691402079"><ele>150.0</ele><time>2026-05-03T14:51:46Z</time></trkpt><trkpt lat="51.479495953257256" lon="21.655985336466244"><ele>150.66666666666666</ele><time>2026-05-03T14:51:47Z</time></trkpt><trkpt lat="51.479338610109025" lon="21.65576609509976"><ele>151.33333333333331</ele><time>2026-05-03T14:51:48Z</time></trkpt><trkpt lat="51.4791801845101" lon="21.655545751454596"><ele>152.0</ele><time>2026-05-03T14:51:49Z</time></trkpt><trkpt lat="51.479015831874705" lon="21.655330546129502"><ele>152.33333333333331</ele><time>2026-05-03T14:51:50Z</time></trkpt><trkpt lat="51.478855797846194" lon="21.65511905768139"><ele>152.66666666666666</ele><time>2026-05-03T14:51:51Z</time></trkpt><trkpt lat="51.47869894270903" lon="21.6549079260527"><ele>153.0</ele><time>2026-05-03T14:51:52Z</time></trkpt><trkpt lat="51.47855908771839" lon="21.654713404741635"><ele>153.33333333333334</ele><time>2026-05-03T14:51:53Z</time></trkpt><trkpt lat="51.47841973950072" lon="21.654541319864638"><ele>153.66666666666669</ele><time>2026-05-03T14:51:54Z</time></trkpt><trkpt lat="51.47829260163449" lon="21.654370892288256"><ele>154.0</ele><time>2026-05-03T14:51:55Z</time></trkpt><trkpt lat="51.47817023228076" lon="21.654213740604373"><ele>154.25</ele><time>2026-05-03T14:51:56Z</time></trkpt><trkpt lat="51.47805669874137" lon="21.654062911855934"><ele>154.5</ele><time>2026-05-03T14:51:57Z</time></trkpt><trkpt lat="51.477945818659364" lon="21.653912995610263"><ele>154.75</ele><time>2026-05-03T14:51:58Z</time></trkpt><trkpt lat="51.477838855030086" lon="21.65376795957839"><ele>155.0</ele><time>2026-05-03T14:51:59Z</time></trkpt><trkpt lat="51.477733100682855" lon="21.653624374455674"><ele>155.5</ele><time>2026-05-03T14:52:00Z</time></trkpt><trkpt lat="51.47762775659629" lon="21.65348483215666"><ele>156.0</ele><time>2026-05-03T14:52:01Z</time></trkpt><trkpt lat="51.47752427946159" lon="21.6533425788614"><ele>156.5</ele><time>2026-05-03T14:52:02Z</time></trkpt><trkpt lat="51.47741449623062" lon="21.653209181708064"><ele>157.0</ele><time>2026-05-03T14:52:03Z</time></trkpt><trkpt lat="51.47730445130922" lon="21.653067232863346"><ele>157.0</ele><time>2026-05-03T14:52:04Z</time></trkpt><trkpt lat="51.477192964514394" lon="21.652918794616838"><ele>157.0</ele><time>2026-05-03T14:52:05Z</time></trkpt><trkpt lat="51.47707512784585" lon="21.652764787785227"><ele>157.0</ele><time>2026-05-03T14:52:06Z</time></trkpt><trkpt lat="51.47694944423232" lon="21.652599542958406"><ele>156.66666666666669</ele><time>2026-05-03T14:52:07Z</time></trkpt><trkpt lat="51.47682302187183" lon="21.65242704767078"><ele>156.33333333333334</ele><time>2026-05-03T14:52:08Z</time></trkpt><trkpt lat="51.47669832940708" lon="21.652258102765803"><ele>156.0</ele><time>2026-05-03T14:52:09Z</time></trkpt><trkpt lat="51.476576096561914" lon="21.652094257514666"><ele>156.33333333333334</ele><time>2026-05-03T14:52:10Z</time></trkpt><trkpt lat="51.47645401861138" lon="21.651930721664847"><ele>156.66666666666669</ele><time>2026-05-03T14:52:11Z</time></trkpt><trkpt lat="51.476335232031474" lon="21.651765116894037"><ele>157.0</ele><time>2026-05-03T14:52:12Z</time></trkpt><trkpt lat="51.476216434451494" lon="21.65160333758717"><ele>157.33333333333334</ele><time>2026-05-03T14:52:13Z</time></trkpt><trkpt lat="51.476101188466906" lon="21.651440813538326"><ele>157.66666666666666</ele><time>2026-05-03T14:52:14Z</time></trkpt><trkpt lat="51.47598458950201" lon="21.6512817756331"><ele>158.0</ele><time>2026-05-03T14:52:15Z</time></trkpt><trkpt lat="51.47586783107051" lon="21.651126323081627"><ele>158.0</ele><time>2026-05-03T14:52:16Z</time></trkpt><trkpt lat="51.47575126283351" lon="21.650981440176075"><ele>158.0</ele><time>2026-05-03T14:52:17Z</time></trkpt><trkpt lat="51.475644032605416" lon="21.650837698519002"><ele>158.0</ele><time>2026-05-03T14:52:18Z</time></trkpt><trkpt lat="51.47553993447502" lon="21.65070249031762"><ele>158.0</ele><time>2026-05-03T14:52:19Z</time></trkpt><trkpt lat="51.47543977272816" lon="21.650570034252574"><ele>158.0</ele><time>2026-05-03T14:52:20Z</time></trkpt><trkpt lat="51.475341554051546" lon="21.650435081983186"><ele>158.0</ele><time>2026-05-03T14:52:21Z</time></trkpt><trkpt lat="51.475255309596726" lon="21.650321246390526"><ele>158.0</ele><time>2026-05-03T14:52:22Z</time></trkpt><trkpt lat="51.47516531090108" lon="21.65020592540777"><ele>158.0</ele><time>2026-05-03T14:52:23Z</time></trkpt><trkpt lat="51.47508690987725" lon="21.65009845104525"><ele>158.0</ele><time>2026-05-03T14:52:24Z</time></trkpt><trkpt lat="51.47501792161415" lon="21.650002933970832"><ele>158.0</ele><time>2026-05-03T14:52:25Z</time></trkpt><trkpt lat="51.47495876955499" lon="21.649921684547298"><ele>158.0</ele><time>2026-05-03T14:52:26Z</time></trkpt><trkpt lat="51.47490919663922" lon="21.649853546467874"><ele>158.0</ele><time>2026-05-03T14:52:27Z</time></trkpt><trkpt lat="51.474839431791644" lon="21.649765674256994"><ele>158.0</ele><time>2026-05-03T14:52:29Z</time></trkpt><trkpt lat="51.47474529991754" lon="21.64963711235675"><ele>158.0</ele><time>2026-05-03T14:52:47Z</time></trkpt><trkpt lat="51.47465722227588" lon="21.649532040949246"><ele>157.75</ele><time>2026-05-03T14:52:48Z</time></trkpt><trkpt lat="51.47456641166176" lon="21.649406719079302"><ele>157.5</ele><time>2026-05-03T14:52:49Z</time></trkpt><trkpt lat="51.474458724086865" lon="21.649287800993044"><ele>157.25</ele><time>2026-05-03T14:52:50Z</time></trkpt><trkpt lat="51.47435241905599" lon="21.649142599241973"><ele>157.0</ele><time>2026-05-03T14:52:51Z</time></trkpt><trkpt lat="51.474236176846794" lon="21.648980387189333"><ele>157.0</ele><time>2026-05-03T14:52:52Z</time></trkpt><trkpt lat="51.47411155194115" lon="21.648811061511918"><ele>157.0</ele><time>2026-05-03T14:52:53Z</time></trkpt><trkpt lat="51.47398003573729" lon="21.64863889793191"><ele>157.0</ele><time>2026-05-03T14:52:54Z</time></trkpt><trkpt lat="51.47384503059281" lon="21.64845655527333"><ele>157.5</ele><time>2026-05-03T14:52:55Z</time></trkpt><trkpt lat="51.47372576194986" lon="21.648281595831243"><ele>158.0</ele><time>2026-05-03T14:52:56Z</time></trkpt><trkpt lat="51.47361923592732" lon="21.648141447847124"><ele>158.5</ele><time>2026-05-03T14:52:57Z</time></trkpt><trkpt lat="51.47352612418826" lon="21.648030707615572"><ele>159.0</ele><time>2026-05-03T14:52:58Z</time></trkpt><trkpt lat="51.473455567247306" lon="21.647937488466763"><ele>159.0</ele><time>2026-05-03T14:52:59Z</time></trkpt><trkpt lat="51.47340757486142" lon="21.64786625746052"><ele>159.0</ele><time>2026-05-03T14:53:00Z</time></trkpt><trkpt lat="51.47336178752462" lon="21.64776827046519"><ele>159.0</ele><time>2026-05-03T14:57:39Z</time></trkpt><trkpt lat="51.47349945465473" lon="21.64766889325582"><ele>159.0</ele><time>2026-05-03T15:01:32Z</time></trkpt><trkpt lat="51.47356543008751" lon="21.647597472493075"><ele>159.0</ele><time>2026-05-03T15:01:33Z</time></trkpt><trkpt lat="51.47361257038122" lon="21.647506761989874"><ele>159.0</ele><time>2026-05-03T15:01:34Z</time></trkpt><trkpt lat="51.47367918293335" lon="21.647398006588574"><ele>159.0</ele><time>2026-05-03T15:01:38Z</time></trkpt><trkpt lat="51.47375276455063" lon="21.64722536604098"><ele>159.0</ele><time>2026-05-03T15:01:56Z</time></trkpt><trkpt lat="51.47370612786443" lon="21.647302160407484"><ele>159.0</ele><time>2026-05-03T15:04:03Z</time></trkpt><trkpt lat="51.47364367352181" lon="21.647347913872196"><ele>159.0</ele><time>2026-05-03T15:04:10.001Z</time></trkpt><trkpt lat="51.47360074147676" lon="21.647437000278725"><ele>159.0</ele><time>2026-05-03T15:04:21Z</time></trkpt><trkpt lat="51.473546869831615" lon="21.647511765859008"><ele>159.0</ele><time>2026-05-03T15:04:29Z</time></trkpt><trkpt lat="51.47347973244886" lon="21.647530678096118"><ele>159.0</ele><time>2026-05-03T15:04:36Z</time></trkpt><trkpt lat="51.47341835025101" lon="21.64733059980717"><ele>159.0</ele><time>2026-05-03T15:05:33.019Z</time></trkpt><trkpt lat="51.47377721012146" lon="21.647311959547032"><ele>159.0</ele><time>2026-05-03T15:06:23.024Z</time></trkpt><trkpt lat="51.47378415007051" lon="21.647586310761298"><ele>159.0</ele><time>2026-05-03T15:06:27.001Z</time></trkpt><trkpt lat="51.4736366677765" lon="21.647608344652333"><ele>159.0</ele><time>2026-05-03T15:06:28.001Z</time></trkpt><trkpt lat="51.47354908800395" lon="21.647567412924474"><ele>159.0</ele><time>2026-05-03T15:06:31.001Z</time></trkpt><trkpt lat="51.47360264597991" lon="21.647434288919015"><ele>159.0</ele><time>2026-05-03T15:07:01Z</time></trkpt><trkpt lat="51.47371628171972" lon="21.647464382629277"><ele>159.0</ele><time>2026-05-03T15:07:29Z</time></trkpt><trkpt lat="51.473806920101374" lon="21.64753771306985"><ele>159.0</ele><time>2026-05-03T15:07:31Z</time></trkpt><trkpt lat="51.47389496814762" lon="21.64751836716643"><ele>159.0</ele><time>2026-05-03T15:07:32Z</time></trkpt><trkpt lat="51.47383237706324" lon="21.647573273479377"><ele>159.0</ele><time>2026-05-03T15:07:33Z</time></trkpt><trkpt lat="51.47384684820478" lon="21.64744618065424"><ele>159.0</ele><time>2026-05-03T15:07:52Z</time></trkpt><trkpt lat="51.473789157256526" lon="21.6473620360909"><ele>159.0</ele><time>2026-05-03T15:07:54Z</time></trkpt><trkpt lat="51.47375016286615" lon="21.64725525594937"><ele>159.0</ele><time>2026-05-03T15:07:58Z</time></trkpt><trkpt lat="51.47379093759746" lon="21.64735215503928"><ele>159.0</ele><time>2026-05-03T15:08:13Z</time></trkpt><trkpt lat="51.473773426171746" lon="21.647252943608386"><ele>159.0</ele><time>2026-05-03T15:08:14Z</time></trkpt><trkpt lat="51.47379255145788" lon="21.64737206509826"><ele>159.0</ele><time>2026-05-03T15:10:03Z</time></trkpt><trkpt lat="51.4737741705952" lon="21.64751137013559"><ele>159.0</ele><time>2026-05-03T15:10:21Z</time></trkpt><trkpt lat="51.47377973575874" lon="21.6473738843068"><ele>159.0</ele><time>2026-05-03T15:10:24Z</time></trkpt><trkpt lat="51.4737209147424" lon="21.647285921443498"><ele>159.0</ele><time>2026-05-03T15:11:37Z</time></trkpt><trkpt lat="51.473764027255626" lon="21.64716996226424"><ele>159.0</ele><time>2026-05-03T15:12:57Z</time></trkpt><trkpt lat="51.47375641710056" lon="21.647291340624918"><ele>159.0</ele><time>2026-05-03T15:13:33Z</time></trkpt><trkpt lat="51.473666651976124" lon="21.647330367758208"><ele>159.0</ele><time>2026-05-03T15:13:38Z</time></trkpt><trkpt lat="51.47377590678997" lon="21.647627622297907"><ele>159.0</ele><time>2026-05-03T15:13:39Z</time></trkpt><trkpt lat="51.47375752486509" lon="21.647404421638637"><ele>159.0</ele><time>2026-05-03T15:13:40Z</time></trkpt><trkpt lat="51.473784360193115" lon="21.64731243341872"><ele>159.0</ele><time>2026-05-03T15:13:42Z</time></trkpt><trkpt lat="51.47373299098187" lon="21.647245129716506"><ele>159.0</ele><time>2026-05-03T15:14:01Z</time></trkpt><trkpt lat="51.47373554729477" lon="21.64736642929453"><ele>159.0</ele><time>2026-05-03T15:14:30Z</time></trkpt><trkpt lat="51.473673582370346" lon="21.64745383537983"><ele>159.0</ele><time>2026-05-03T15:14:32Z</time></trkpt><trkpt lat="51.47371712167953" lon="21.64761847918731"><ele>159.0</ele><time>2026-05-03T15:14:36Z</time></trkpt><trkpt lat="51.473705811396385" lon="21.647727786389847"><ele>159.0</ele><time>2026-05-03T15:14:40Z</time></trkpt><trkpt lat="51.47365840803261" lon="21.6476241163019"><ele>159.0</ele><time>2026-05-03T15:14:43Z</time></trkpt><trkpt lat="51.47370497262054" lon="21.647500376521812"><ele>159.0</ele><time>2026-05-03T15:14:44Z</time></trkpt><trkpt lat="51.47369455027846" lon="21.647357864116838"><ele>159.0</ele><time>2026-05-03T15:14:55Z</time></trkpt><trkpt lat="51.47373903802533" lon="21.647219397353414"><ele>159.0</ele><time>2026-05-03T15:15:05.999Z</time></trkpt><trkpt lat="51.47369389893214" lon="21.64712140691059"><ele>159.0</ele><time>2026-05-03T15:15:09.999Z</time></trkpt><trkpt lat="51.47363701824663" lon="21.647035619523553"><ele>159.0</ele><time>2026-05-03T15:15:12.999Z</time></trkpt><trkpt lat="51.473673347511195" lon="21.6472511422263"><ele>159.0</ele><time>2026-05-03T15:15:18.999Z</time></trkpt><trkpt lat="51.473676869353376" lon="21.64736668182558"><ele>159.0</ele><time>2026-05-03T15:15:26.999Z</time></trkpt><trkpt lat="51.47363983871207" lon="21.647223777874753"><ele>159.0</ele><time>2026-05-03T15:15:28.999Z</time></trkpt><trkpt lat="51.47363508431364" lon="21.647112694941146"><ele>159.0</ele><time>2026-05-03T15:16:41Z</time></trkpt><trkpt lat="51.47361431837981" lon="21.647009978309498"><ele>159.0</ele><time>2026-05-03T15:16:45Z</time></trkpt><trkpt lat="51.4736233530514" lon="21.647181512536914"><ele>159.0</ele><time>2026-05-03T15:16:49Z</time></trkpt><trkpt lat="51.47365316847235" lon="21.647271636187373"><ele>159.0</ele><time>2026-05-03T15:16:54Z</time></trkpt><trkpt lat="51.473698391928856" lon="21.64737520303577"><ele>159.0</ele><time>2026-05-03T15:17:28Z</time></trkpt><trkpt lat="51.473638604583456" lon="21.647328126876697"><ele>159.0</ele><time>2026-05-03T15:17:44Z</time></trkpt><trkpt lat="51.473589534408944" lon="21.647392257865032"><ele>159.0</ele><time>2026-05-03T15:17:49Z</time></trkpt><trkpt lat="51.473530610415715" lon="21.647428262559522"><ele>159.0</ele><time>2026-05-03T15:17:55Z</time></trkpt></trkseg></trk></gpx>